Wetterdaten: Sonntag, 04.12.2022
Datum Zeit Temp. I. Temp. A. Feuchte I. Feuchte A. Luftdruck Regen Wind Richtung Richtung Sonnenschein Solar Taupunkt Windchill Windböen
04.12.2022 00:00 22,4 °C -0,1 °C 48 % 95 % 1020,4 hPa 0,0 l/m² 1,3 km/h (1 Bft) N-NO 12 ° 0 min 0 W/m² -0,8 °C -0,1 °C 3,2 km/h (1 Bft)
04.12.2022 00:02 22,4 °C -0,1 °C 48 % 95 % 1020,3 hPa 0,0 l/m² 2,7 km/h (1 Bft) NO 54 ° 0 min 0 W/m² -0,8 °C -0,1 °C 6,4 km/h (2 Bft)
04.12.2022 00:04 22,4 °C -0,1 °C 48 % 95 % 1020,3 hPa 0,0 l/m² 0,0 km/h (0 Bft) NO 47 ° 0 min 0 W/m² -0,8 °C -0,1 °C 0,0 km/h (0 Bft)
04.12.2022 00:06 22,4 °C -0,1 °C 48 % 95 % 1020,2 hPa 0,0 l/m² 0,5 km/h (0 Bft) NO 36 ° 0 min 0 W/m² -0,8 °C -0,1 °C 3,2 km/h (1 Bft)
04.12.2022 00:08 22,4 °C -0,1 °C 48 % 95 % 1020,2 hPa 0,0 l/m² 0,9 km/h (0 Bft) NO 42 ° 0 min 0 W/m² -0,8 °C -0,1 °C 3,2 km/h (1 Bft)
04.12.2022 00:10 22,3 °C -0,1 °C 48 % 95 % 1020,1 hPa 0,0 l/m² 0,4 km/h (0 Bft) NO 50 ° 0 min 0 W/m² -0,8 °C -0,1 °C 3,2 km/h (1 Bft)
04.12.2022 00:11 22,4 °C -0,1 °C 48 % 95 % 1020,2 hPa 0,0 l/m² 0,7 km/h (0 Bft) NO 53 ° 0 min 0 W/m² -0,8 °C -0,1 °C 3,2 km/h (1 Bft)
04.12.2022 00:12 22,4 °C -0,1 °C 48 % 95 % 1020,2 hPa 0,0 l/m² 1,5 km/h (1 Bft) NO 44 ° 0 min 0 W/m² -0,8 °C -0,1 °C 4,8 km/h (1 Bft)
04.12.2022 00:13 22,4 °C -0,1 °C 48 % 95 % 1020,3 hPa 0,0 l/m² 0,0 km/h (0 Bft) NO 44 ° 0 min 0 W/m² -0,8 °C -0,1 °C 0,0 km/h (0 Bft)
04.12.2022 00:15 22,4 °C -0,1 °C 48 % 95 % 1020,2 hPa 0,0 l/m² 2,2 km/h (1 Bft) N 5 ° 0 min 0 W/m² -0,8 °C -0,1 °C 6,4 km/h (2 Bft)
04.12.2022 00:17 22,4 °C -0,1 °C 48 % 95 % 1020,2 hPa 0,0 l/m² 1,1 km/h (1 Bft) O-NO 57 ° 0 min 0 W/m² -0,8 °C -0,1 °C 4,8 km/h (1 Bft)
04.12.2022 00:19 22,4 °C -0,1 °C 48 % 95 % 1020,1 hPa 0,0 l/m² 1,6 km/h (1 Bft) NO 34 ° 0 min 0 W/m² -0,8 °C -0,1 °C 6,4 km/h (2 Bft)
04.12.2022 00:21 22,4 °C -0,1 °C 48 % 95 % 1020,2 hPa 0,0 l/m² 1,5 km/h (1 Bft) NO 53 ° 0 min 0 W/m² -0,8 °C -0,1 °C 6,4 km/h (2 Bft)
04.12.2022 00:22 22,4 °C -0,1 °C 48 % 95 % 1020,1 hPa 0,0 l/m² 1,7 km/h (1 Bft) N-NO 26 ° 0 min 0 W/m² -0,8 °C -0,1 °C 3,2 km/h (1 Bft)
04.12.2022 00:23 22,4 °C -0,1 °C 48 % 95 % 1020,1 hPa 0,0 l/m² 2,2 km/h (1 Bft) NO 34 ° 0 min 0 W/m² -0,8 °C -0,1 °C 4,8 km/h (1 Bft)
04.12.2022 00:25 22,3 °C -0,1 °C 48 % 95 % 1020,1 hPa 0,0 l/m² 1,6 km/h (1 Bft) NO 51 ° 0 min 0 W/m² -0,8 °C -0,1 °C 4,8 km/h (1 Bft)
04.12.2022 00:27 22,4 °C -0,1 °C 48 % 95 % 1020,1 hPa 0,0 l/m² 1,5 km/h (1 Bft) N-NO 23 ° 0 min 0 W/m² -0,8 °C -0,1 °C 4,8 km/h (1 Bft)
04.12.2022 00:29 22,3 °C -0,1 °C 48 % 95 % 1020,2 hPa 0,0 l/m² 1,2 km/h (1 Bft) NO 45 ° 0 min 0 W/m² -0,8 °C -0,1 °C 4,8 km/h (1 Bft)
04.12.2022 00:31 22,4 °C -0,1 °C 48 % 95 % 1020,3 hPa 0,0 l/m² 3,6 km/h (1 Bft) NO 41 ° 0 min 0 W/m² -0,8 °C -0,1 °C 9,7 km/h (2 Bft)
04.12.2022 00:32 22,4 °C -0,1 °C 48 % 95 % 1020,3 hPa 0,0 l/m² 0,8 km/h (0 Bft) O-NO 57 ° 0 min 0 W/m² -0,8 °C -0,1 °C 4,8 km/h (1 Bft)
04.12.2022 00:33 22,3 °C -0,1 °C 48 % 95 % 1020,2 hPa 0,0 l/m² 5,1 km/h (1 Bft) NO 40 ° 0 min 0 W/m² -0,8 °C -0,1 °C 8,0 km/h (2 Bft)
04.12.2022 00:35 22,4 °C -0,1 °C 48 % 95 % 1020,2 hPa 0,0 l/m² 4,2 km/h (1 Bft) NO 34 ° 0 min 0 W/m² -0,8 °C -0,1 °C 8,0 km/h (2 Bft)
04.12.2022 00:37 22,4 °C -0,1 °C 48 % 95 % 1020,2 hPa 0,0 l/m² 2,4 km/h (1 Bft) N-NO 27 ° 0 min 0 W/m² -0,8 °C -0,1 °C 6,4 km/h (2 Bft)
04.12.2022 00:39 22,3 °C -0,1 °C 48 % 95 % 1020,2 hPa 0,0 l/m² 1,6 km/h (1 Bft) N 9 ° 0 min 0 W/m² -0,8 °C -0,1 °C 6,4 km/h (2 Bft)
04.12.2022 00:41 22,4 °C -0,1 °C 48 % 95 % 1020,1 hPa 0,0 l/m² 1,9 km/h (1 Bft) N-NO 28 ° 0 min 0 W/m² -0,8 °C -0,1 °C 6,4 km/h (2 Bft)
04.12.2022 00:42 22,4 °C -0,1 °C 48 % 95 % 1020,1 hPa 0,0 l/m² 5,2 km/h (1 Bft) NO 40 ° 0 min 0 W/m² -0,8 °C -0,1 °C 8,0 km/h (2 Bft)
04.12.2022 00:43 22,3 °C 0,0 °C 48 % 95 % 1020,1 hPa 0,0 l/m² 6,2 km/h (2 Bft) N-NO 29 ° 0 min 0 W/m² -0,7 °C 0,0 °C 9,7 km/h (2 Bft)
04.12.2022 00:46 22,3 °C 0,0 °C 48 % 95 % 1020,0 hPa 0,0 l/m² 1,6 km/h (1 Bft) NO 34 ° 0 min 0 W/m² -0,7 °C 0,0 °C 6,4 km/h (2 Bft)
04.12.2022 00:47 22,3 °C 0,0 °C 48 % 95 % 1020,0 hPa 0,0 l/m² 1,9 km/h (1 Bft) NO 50 ° 0 min 0 W/m² -0,7 °C 0,0 °C 6,4 km/h (2 Bft)
04.12.2022 00:49 22,3 °C 0,0 °C 48 % 95 % 1020,1 hPa 0,0 l/m² 1,9 km/h (1 Bft) NO 38 ° 0 min 0 W/m² -0,7 °C 0,0 °C 4,8 km/h (1 Bft)
04.12.2022 00:51 22,3 °C 0,0 °C 48 % 95 % 1020,0 hPa 0,0 l/m² 0,5 km/h (0 Bft) O-NO 60 ° 0 min 0 W/m² -0,7 °C 0,0 °C 3,2 km/h (1 Bft)
04.12.2022 00:52 22,3 °C -0,1 °C 48 % 95 % 1020,1 hPa 0,0 l/m² 3,4 km/h (1 Bft) N-NO 27 ° 0 min 0 W/m² -0,8 °C -0,1 °C 4,8 km/h (1 Bft)
04.12.2022 00:53 22,3 °C 0,0 °C 48 % 95 % 1020,1 hPa 0,0 l/m² 4,4 km/h (1 Bft) NO 40 ° 0 min 0 W/m² -0,7 °C 0,0 °C 8,0 km/h (2 Bft)
04.12.2022 00:55 22,3 °C -0,1 °C 48 % 95 % 1020,0 hPa 0,0 l/m² 4,8 km/h (1 Bft) N 9 ° 0 min 0 W/m² -0,8 °C -0,1 °C 11,3 km/h (2 Bft)
04.12.2022 00:57 22,3 °C 0,0 °C 48 % 95 % 1020,0 hPa 0,0 l/m² 3,0 km/h (1 Bft) N-NO 32 ° 0 min 0 W/m² -0,7 °C 0,0 °C 6,4 km/h (2 Bft)
04.12.2022 00:59 22,3 °C 0,0 °C 48 % 95 % 1019,9 hPa 0,0 l/m² 3,1 km/h (1 Bft) O-NO 57 ° 0 min 0 W/m² -0,7 °C 0,0 °C 6,4 km/h (2 Bft)
04.12.2022 01:01 22,3 °C 0,0 °C 48 % 95 % 1019,9 hPa 0,0 l/m² 1,2 km/h (1 Bft) NO 40 ° 0 min 0 W/m² -0,7 °C 0,0 °C 4,8 km/h (1 Bft)
04.12.2022 01:02 22,3 °C 0,0 °C 48 % 95 % 1019,9 hPa 0,0 l/m² 2,1 km/h (1 Bft) N-NO 20 ° 0 min 0 W/m² -0,7 °C 0,0 °C 6,4 km/h (2 Bft)
04.12.2022 01:03 22,3 °C 0,0 °C 48 % 95 % 1019,9 hPa 0,0 l/m² 0,6 km/h (0 Bft) NO 51 ° 0 min 0 W/m² -0,7 °C 0,0 °C 4,8 km/h (1 Bft)
04.12.2022 01:05 22,3 °C 0,0 °C 48 % 95 % 1019,9 hPa 0,0 l/m² 7,7 km/h (2 Bft) NO 38 ° 0 min 0 W/m² -0,7 °C -1,3 °C 11,3 km/h (2 Bft)
04.12.2022 01:08 22,3 °C 0,1 °C 48 % 95 % 1019,8 hPa 0,0 l/m² 3,1 km/h (1 Bft) NO 49 ° 0 min 0 W/m² -0,6 °C 0,1 °C 8,0 km/h (2 Bft)
04.12.2022 01:10 22,3 °C 0,0 °C 48 % 95 % 1019,7 hPa 0,0 l/m² 4,2 km/h (1 Bft) NO 51 ° 0 min 0 W/m² -0,7 °C 0,0 °C 8,0 km/h (2 Bft)
04.12.2022 01:12 22,3 °C 0,0 °C 48 % 95 % 1019,6 hPa 0,0 l/m² 2,1 km/h (1 Bft) NO 51 ° 0 min 0 W/m² -0,7 °C 0,0 °C 8,0 km/h (2 Bft)
04.12.2022 01:13 22,3 °C 0,0 °C 48 % 95 % 1019,6 hPa 0,0 l/m² 6,9 km/h (2 Bft) NO 50 ° 0 min 0 W/m² -0,7 °C -0,5 °C 12,9 km/h (3 Bft)
04.12.2022 01:14 22,3 °C 0,0 °C 48 % 95 % 1019,7 hPa 0,0 l/m² 1,2 km/h (1 Bft) O-NO 68 ° 0 min 0 W/m² -0,7 °C 0,0 °C 6,4 km/h (2 Bft)
04.12.2022 01:16 22,3 °C 0,0 °C 48 % 95 % 1019,7 hPa 0,0 l/m² 1,0 km/h (0 Bft) O-NO 67 ° 0 min 0 W/m² -0,7 °C 0,0 °C 4,8 km/h (1 Bft)
04.12.2022 01:18 22,3 °C 0,0 °C 48 % 95 % 1019,7 hPa 0,0 l/m² 2,3 km/h (1 Bft) NO 48 ° 0 min 0 W/m² -0,7 °C 0,0 °C 8,0 km/h (2 Bft)
04.12.2022 01:20 22,3 °C 0,0 °C 48 % 95 % 1019,6 hPa 0,0 l/m² 1,6 km/h (1 Bft) O-NO 57 ° 0 min 0 W/m² -0,7 °C 0,0 °C 4,8 km/h (1 Bft)
04.12.2022 01:22 22,3 °C 0,1 °C 48 % 95 % 1019,8 hPa 0,0 l/m² 1,7 km/h (1 Bft) O-NO 57 ° 0 min 0 W/m² -0,6 °C 0,1 °C 4,8 km/h (1 Bft)
04.12.2022 01:23 22,3 °C 0,1 °C 48 % 95 % 1019,8 hPa 0,0 l/m² 0,7 km/h (0 Bft) NO 53 ° 0 min 0 W/m² -0,6 °C 0,1 °C 3,2 km/h (1 Bft)
04.12.2022 01:24 22,3 °C 0,0 °C 48 % 95 % 1019,8 hPa 0,0 l/m² 1,3 km/h (1 Bft) N-NO 32 ° 0 min 0 W/m² -0,7 °C 0,0 °C 4,8 km/h (1 Bft)
04.12.2022 01:26 22,3 °C 0,1 °C 48 % 95 % 1019,8 hPa 0,0 l/m² 0,6 km/h (0 Bft) N-NO 28 ° 0 min 0 W/m² -0,6 °C 0,1 °C 3,2 km/h (1 Bft)
04.12.2022 01:28 22,3 °C 0,1 °C 48 % 95 % 1019,8 hPa 0,0 l/m² 1,5 km/h (1 Bft) NO 55 ° 0 min 0 W/m² -0,6 °C 0,1 °C 4,8 km/h (1 Bft)
04.12.2022 01:30 22,3 °C 0,0 °C 48 % 95 % 1019,8 hPa 0,0 l/m² 0,4 km/h (0 Bft) O-NO 65 ° 0 min 0 W/m² -0,7 °C 0,0 °C 3,2 km/h (1 Bft)
04.12.2022 01:32 22,3 °C 0,0 °C 48 % 95 % 1019,8 hPa 0,0 l/m² 1,2 km/h (1 Bft) O-NO 74 ° 0 min 0 W/m² -0,7 °C 0,0 °C 4,8 km/h (1 Bft)
04.12.2022 01:33 22,3 °C 0,0 °C 48 % 95 % 1019,8 hPa 0,0 l/m² 1,7 km/h (1 Bft) O-NO 57 ° 0 min 0 W/m² -0,7 °C 0,0 °C 3,2 km/h (1 Bft)
04.12.2022 01:34 22,3 °C 0,1 °C 48 % 95 % 1019,8 hPa 0,0 l/m² 0,0 km/h (0 Bft) NO 53 ° 0 min 0 W/m² -0,6 °C 0,1 °C 0,0 km/h (0 Bft)
04.12.2022 01:36 22,3 °C 0,1 °C 48 % 95 % 1019,7 hPa 0,0 l/m² 1,1 km/h (1 Bft) O-NO 69 ° 0 min 0 W/m² -0,6 °C 0,1 °C 4,8 km/h (1 Bft)
04.12.2022 01:38 22,3 °C 0,1 °C 48 % 95 % 1019,9 hPa 0,0 l/m² 3,9 km/h (1 Bft) NO 40 ° 0 min 0 W/m² -0,6 °C 0,1 °C 8,0 km/h (2 Bft)
04.12.2022 01:40 22,3 °C 0,1 °C 48 % 95 % 1019,8 hPa 0,0 l/m² 2,1 km/h (1 Bft) O-NO 57 ° 0 min 0 W/m² -0,6 °C 0,1 °C 6,4 km/h (2 Bft)
04.12.2022 01:42 22,3 °C 0,1 °C 48 % 95 % 1019,8 hPa 0,0 l/m² 1,8 km/h (1 Bft) N-NO 26 ° 0 min 0 W/m² -0,6 °C 0,1 °C 6,4 km/h (2 Bft)
04.12.2022 01:43 22,3 °C 0,1 °C 49 % 95 % 1019,8 hPa 0,0 l/m² 4,7 km/h (1 Bft) O-NO 70 ° 0 min 0 W/m² -0,6 °C 0,1 °C 8,0 km/h (2 Bft)
04.12.2022 01:44 22,3 °C 0,1 °C 49 % 95 % 1019,8 hPa 0,0 l/m² 3,7 km/h (1 Bft) NO 53 ° 0 min 0 W/m² -0,6 °C 0,1 °C 6,4 km/h (2 Bft)
04.12.2022 01:46 22,3 °C 0,1 °C 49 % 95 % 1019,9 hPa 0,0 l/m² 2,6 km/h (1 Bft) O-NO 57 ° 0 min 0 W/m² -0,6 °C 0,1 °C 6,4 km/h (2 Bft)
04.12.2022 01:48 22,3 °C 0,1 °C 49 % 95 % 1019,9 hPa 0,0 l/m² 1,7 km/h (1 Bft) O-NO 65 ° 0 min 0 W/m² -0,6 °C 0,1 °C 6,4 km/h (2 Bft)
04.12.2022 01:50 22,3 °C 0,1 °C 49 % 95 % 1019,9 hPa 0,0 l/m² 4,1 km/h (1 Bft) NO 50 ° 0 min 0 W/m² -0,6 °C 0,1 °C 9,7 km/h (2 Bft)
04.12.2022 01:52 22,3 °C 0,1 °C 49 % 95 % 1019,8 hPa 0,0 l/m² 4,5 km/h (1 Bft) N-NO 16 ° 0 min 0 W/m² -0,6 °C 0,1 °C 8,0 km/h (2 Bft)
04.12.2022 01:53 22,3 °C 0,1 °C 49 % 95 % 1019,9 hPa 0,0 l/m² 7,1 km/h (2 Bft) N-NO 25 ° 0 min 0 W/m² -0,6 °C -0,6 °C 11,3 km/h (2 Bft)
04.12.2022 01:54 22,3 °C 0,1 °C 49 % 95 % 1019,9 hPa 0,0 l/m² 3,7 km/h (1 Bft) NO 36 ° 0 min 0 W/m² -0,6 °C 0,1 °C 6,4 km/h (2 Bft)
04.12.2022 01:56 22,3 °C 0,1 °C 49 % 95 % 1019,8 hPa 0,0 l/m² 2,6 km/h (1 Bft) N-NO 24 ° 0 min 0 W/m² -0,6 °C 0,1 °C 6,4 km/h (2 Bft)
04.12.2022 01:58 22,3 °C 0,1 °C 49 % 95 % 1019,9 hPa 0,0 l/m² 4,0 km/h (1 Bft) N-NW 336 ° 0 min 0 W/m² -0,6 °C 0,1 °C 8,0 km/h (2 Bft)
04.12.2022 02:00 22,3 °C 0,1 °C 49 % 95 % 1019,9 hPa 0,0 l/m² 5,1 km/h (1 Bft) N-NO 25 ° 0 min 0 W/m² -0,6 °C 0,1 °C 8,0 km/h (2 Bft)
04.12.2022 02:02 22,3 °C 0,1 °C 49 % 95 % 1019,9 hPa 0,0 l/m² 2,6 km/h (1 Bft) N-NO 26 ° 0 min 0 W/m² -0,6 °C 0,1 °C 6,4 km/h (2 Bft)
04.12.2022 02:03 22,3 °C 0,1 °C 49 % 95 % 1019,8 hPa 0,0 l/m² 2,6 km/h (1 Bft) NO 49 ° 0 min 0 W/m² -0,6 °C 0,1 °C 8,0 km/h (2 Bft)
04.12.2022 02:04 22,3 °C 0,1 °C 49 % 95 % 1019,8 hPa 0,0 l/m² 2,6 km/h (1 Bft) N 11 ° 0 min 0 W/m² -0,6 °C 0,1 °C 4,8 km/h (1 Bft)
04.12.2022 02:06 22,2 °C 0,1 °C 49 % 95 % 1019,8 hPa 0,0 l/m² 1,8 km/h (1 Bft) O-NO 63 ° 0 min 0 W/m² -0,6 °C 0,1 °C 6,4 km/h (2 Bft)
04.12.2022 02:08 22,3 °C 0,1 °C 49 % 95 % 1019,8 hPa 0,0 l/m² 2,4 km/h (1 Bft) N-NO 32 ° 0 min 0 W/m² -0,6 °C 0,1 °C 8,0 km/h (2 Bft)
04.12.2022 02:10 22,3 °C 0,1 °C 49 % 95 % 1019,8 hPa 0,0 l/m² 2,7 km/h (1 Bft) NO 39 ° 0 min 0 W/m² -0,6 °C 0,1 °C 9,7 km/h (2 Bft)
04.12.2022 02:12 22,2 °C 0,1 °C 49 % 95 % 1019,7 hPa 0,0 l/m² 5,5 km/h (2 Bft) N-NO 17 ° 0 min 0 W/m² -0,6 °C 0,1 °C 11,3 km/h (2 Bft)
04.12.2022 02:13 22,2 °C 0,1 °C 49 % 95 % 1019,7 hPa 0,0 l/m² 4,1 km/h (1 Bft) NO 42 ° 0 min 0 W/m² -0,6 °C 0,1 °C 6,4 km/h (2 Bft)
04.12.2022 02:14 22,3 °C 0,1 °C 49 % 95 % 1019,7 hPa 0,0 l/m² 0,9 km/h (0 Bft) N-NO 12 ° 0 min 0 W/m² -0,6 °C 0,1 °C 3,2 km/h (1 Bft)
04.12.2022 02:16 22,3 °C 0,1 °C 49 % 95 % 1019,6 hPa 0,0 l/m² 3,7 km/h (1 Bft) N-NO 27 ° 0 min 0 W/m² -0,6 °C 0,1 °C 9,7 km/h (2 Bft)
04.12.2022 02:18 22,3 °C 0,1 °C 49 % 95 % 1019,7 hPa 0,0 l/m² 2,9 km/h (1 Bft) N-NO 32 ° 0 min 0 W/m² -0,6 °C 0,1 °C 9,7 km/h (2 Bft)
04.12.2022 02:20 22,2 °C 0,1 °C 49 % 95 % 1019,8 hPa 0,0 l/m² 5,8 km/h (2 Bft) N-NW 346 ° 0 min 0 W/m² -0,6 °C 0,1 °C 9,7 km/h (2 Bft)
04.12.2022 02:22 22,2 °C 0,1 °C 49 % 95 % 1019,7 hPa 0,0 l/m² 1,6 km/h (1 Bft) NO 55 ° 0 min 0 W/m² -0,6 °C 0,1 °C 4,8 km/h (1 Bft)
04.12.2022 02:23 22,3 °C 0,1 °C 49 % 95 % 1019,6 hPa 0,0 l/m² 0,9 km/h (0 Bft) NO 37 ° 0 min 0 W/m² -0,6 °C 0,1 °C 1,6 km/h (1 Bft)
04.12.2022 02:24 22,3 °C 0,1 °C 49 % 95 % 1019,6 hPa 0,0 l/m² 2,9 km/h (1 Bft) N 355 ° 0 min 0 W/m² -0,6 °C 0,1 °C 4,8 km/h (1 Bft)
04.12.2022 02:26 22,2 °C 0,1 °C 49 % 95 % 1019,6 hPa 0,0 l/m² 2,8 km/h (1 Bft) N-NO 33 ° 0 min 0 W/m² -0,6 °C 0,1 °C 8,0 km/h (2 Bft)
04.12.2022 02:28 22,3 °C 0,1 °C 49 % 95 % 1019,6 hPa 0,0 l/m² 3,4 km/h (1 Bft) N-NO 24 ° 0 min 0 W/m² -0,6 °C 0,1 °C 6,4 km/h (2 Bft)
04.12.2022 02:30 22,2 °C 0,2 °C 49 % 95 % 1019,6 hPa 0,0 l/m² 4,5 km/h (1 Bft) NO 44 ° 0 min 0 W/m² -0,5 °C 0,2 °C 12,9 km/h (3 Bft)
04.12.2022 02:32 22,3 °C 0,2 °C 49 % 95 % 1019,6 hPa 0,0 l/m² 4,6 km/h (1 Bft) O-NO 60 ° 0 min 0 W/m² -0,5 °C 0,2 °C 11,3 km/h (2 Bft)
04.12.2022 02:33 22,3 °C 0,1 °C 49 % 95 % 1019,6 hPa 0,0 l/m² 2,6 km/h (1 Bft) NO 55 ° 0 min 0 W/m² -0,6 °C 0,1 °C 6,4 km/h (2 Bft)
04.12.2022 02:34 22,2 °C 0,2 °C 49 % 95 % 1019,6 hPa 0,0 l/m² 2,7 km/h (1 Bft) N 355 ° 0 min 0 W/m² -0,5 °C 0,2 °C 4,8 km/h (1 Bft)
04.12.2022 02:36 22,2 °C 0,1 °C 49 % 95 % 1019,5 hPa 0,0 l/m² 5,4 km/h (2 Bft) N-NO 22 ° 0 min 0 W/m² -0,6 °C 0,1 °C 8,0 km/h (2 Bft)
04.12.2022 02:38 22,2 °C 0,2 °C 49 % 95 % 1019,5 hPa 0,0 l/m² 3,7 km/h (1 Bft) N-NO 15 ° 0 min 0 W/m² -0,5 °C 0,2 °C 8,0 km/h (2 Bft)
04.12.2022 02:40 22,3 °C 0,2 °C 49 % 95 % 1019,5 hPa 0,0 l/m² 4,9 km/h (1 Bft) N-NO 24 ° 0 min 0 W/m² -0,5 °C 0,2 °C 12,9 km/h (3 Bft)
04.12.2022 02:42 22,3 °C 0,2 °C 49 % 95 % 1019,6 hPa 0,0 l/m² 3,7 km/h (1 Bft) N-NO 30 ° 0 min 0 W/m² -0,5 °C 0,2 °C 8,0 km/h (2 Bft)
04.12.2022 02:43 22,3 °C 0,2 °C 49 % 95 % 1019,6 hPa 0,0 l/m² 4,3 km/h (1 Bft) NO 51 ° 0 min 0 W/m² -0,5 °C 0,2 °C 4,8 km/h (1 Bft)
04.12.2022 02:44 22,3 °C 0,2 °C 49 % 95 % 1019,5 hPa 0,0 l/m² 3,8 km/h (1 Bft) NO 49 ° 0 min 0 W/m² -0,5 °C 0,2 °C 6,4 km/h (2 Bft)
04.12.2022 02:46 22,3 °C 0,2 °C 49 % 95 % 1019,5 hPa 0,0 l/m² 3,9 km/h (1 Bft) NO 36 ° 0 min 0 W/m² -0,5 °C 0,2 °C 8,0 km/h (2 Bft)
04.12.2022 02:48 22,3 °C 0,2 °C 49 % 95 % 1019,5 hPa 0,0 l/m² 2,8 km/h (1 Bft) N-NO 30 ° 0 min 0 W/m² -0,5 °C 0,2 °C 6,4 km/h (2 Bft)
04.12.2022 02:50 22,3 °C 0,2 °C 49 % 95 % 1019,5 hPa 0,0 l/m² 2,4 km/h (1 Bft) N-NO 26 ° 0 min 0 W/m² -0,5 °C 0,2 °C 8,0 km/h (2 Bft)
04.12.2022 02:52 22,3 °C 0,2 °C 49 % 95 % 1019,5 hPa 0,0 l/m² 0,9 km/h (0 Bft) N-NO 20 ° 0 min 0 W/m² -0,5 °C 0,2 °C 3,2 km/h (1 Bft)
04.12.2022 02:53 22,3 °C 0,2 °C 49 % 95 % 1019,5 hPa 0,0 l/m² 1,3 km/h (1 Bft) NO 43 ° 0 min 0 W/m² -0,5 °C 0,2 °C 4,8 km/h (1 Bft)
04.12.2022 02:54 22,3 °C 0,2 °C 49 % 95 % 1019,4 hPa 0,0 l/m² 5,8 km/h (2 Bft) N 360 ° 0 min 0 W/m² -0,5 °C 0,2 °C 9,7 km/h (2 Bft)
04.12.2022 02:56 22,3 °C 0,2 °C 49 % 95 % 1019,4 hPa 0,0 l/m² 1,5 km/h (1 Bft) O-NO 73 ° 0 min 0 W/m² -0,5 °C 0,2 °C 8,0 km/h (2 Bft)
04.12.2022 02:58 22,3 °C 0,2 °C 49 % 95 % 1019,5 hPa 0,0 l/m² 1,2 km/h (1 Bft) NO 40 ° 0 min 0 W/m² -0,5 °C 0,2 °C 6,4 km/h (2 Bft)
04.12.2022 03:00 22,3 °C 0,2 °C 49 % 95 % 1019,4 hPa 0,0 l/m² 5,5 km/h (2 Bft) NO 43 ° 0 min 0 W/m² -0,5 °C 0,2 °C 9,7 km/h (2 Bft)
04.12.2022 03:01 22,3 °C 0,2 °C 49 % 95 % 1019,4 hPa 0,0 l/m² 1,6 km/h (1 Bft) N 360 ° 0 min 0 W/m² -0,5 °C 0,2 °C 8,0 km/h (2 Bft)
04.12.2022 03:07 22,3 °C 0,2 °C 49 % 95 % 1019,4 hPa 0,0 l/m² 3,8 km/h (1 Bft) N-NO 33 ° 0 min 0 W/m² -0,5 °C 0,2 °C 8,0 km/h (2 Bft)
04.12.2022 03:09 22,3 °C 0,2 °C 49 % 95 % 1019,4 hPa 0,0 l/m² 3,6 km/h (1 Bft) O 84 ° 0 min 0 W/m² -0,5 °C 0,2 °C 6,4 km/h (2 Bft)
04.12.2022 03:10 22,3 °C 0,2 °C 49 % 95 % 1019,4 hPa 0,0 l/m² 2,8 km/h (1 Bft) NO 34 ° 0 min 0 W/m² -0,5 °C 0,2 °C 8,0 km/h (2 Bft)
04.12.2022 03:12 22,3 °C 0,2 °C 49 % 95 % 1019,4 hPa 0,0 l/m² 2,5 km/h (1 Bft) NO 50 ° 0 min 0 W/m² -0,5 °C 0,2 °C 6,4 km/h (2 Bft)
04.12.2022 03:13 22,3 °C 0,2 °C 49 % 95 % 1019,4 hPa 0,0 l/m² 2,9 km/h (1 Bft) NO 38 ° 0 min 0 W/m² -0,5 °C 0,2 °C 8,0 km/h (2 Bft)
04.12.2022 03:15 22,3 °C 0,2 °C 49 % 95 % 1019,4 hPa 0,0 l/m² 3,6 km/h (1 Bft) N-NO 30 ° 0 min 0 W/m² -0,5 °C 0,2 °C 9,7 km/h (2 Bft)
04.12.2022 03:17 22,3 °C 0,2 °C 49 % 95 % 1019,3 hPa 0,0 l/m² 2,7 km/h (1 Bft) NO 36 ° 0 min 0 W/m² -0,5 °C 0,2 °C 6,4 km/h (2 Bft)
04.12.2022 03:19 22,3 °C 0,2 °C 49 % 95 % 1019,4 hPa 0,0 l/m² 2,6 km/h (1 Bft) NO 47 ° 0 min 0 W/m² -0,5 °C 0,2 °C 8,0 km/h (2 Bft)
04.12.2022 03:20 22,3 °C 0,2 °C 49 % 95 % 1019,3 hPa 0,0 l/m² 4,6 km/h (1 Bft) NO 34 ° 0 min 0 W/m² -0,5 °C 0,2 °C 9,7 km/h (2 Bft)
04.12.2022 03:22 22,3 °C 0,2 °C 49 % 95 % 1019,3 hPa 0,0 l/m² 2,4 km/h (1 Bft) N-NO 17 ° 0 min 0 W/m² -0,5 °C 0,2 °C 8,0 km/h (2 Bft)
04.12.2022 03:23 22,3 °C 0,2 °C 49 % 95 % 1019,3 hPa 0,0 l/m² 1,5 km/h (1 Bft) NO 44 ° 0 min 0 W/m² -0,5 °C 0,2 °C 4,8 km/h (1 Bft)
04.12.2022 03:25 22,3 °C 0,2 °C 49 % 95 % 1019,4 hPa 0,0 l/m² 1,5 km/h (1 Bft) O-NO 67 ° 0 min 0 W/m² -0,5 °C 0,2 °C 6,4 km/h (2 Bft)
04.12.2022 03:27 22,3 °C 0,2 °C 49 % 95 % 1019,3 hPa 0,0 l/m² 3,0 km/h (1 Bft) N 5 ° 0 min 0 W/m² -0,5 °C 0,2 °C 9,7 km/h (2 Bft)
04.12.2022 03:29 22,3 °C 0,2 °C 49 % 95 % 1019,3 hPa 0,0 l/m² 3,5 km/h (1 Bft) NO 48 ° 0 min 0 W/m² -0,5 °C 0,2 °C 6,4 km/h (2 Bft)
04.12.2022 03:30 22,3 °C 0,2 °C 49 % 95 % 1019,3 hPa 0,0 l/m² 0,3 km/h (0 Bft) NO 45 ° 0 min 0 W/m² -0,5 °C 0,2 °C 1,6 km/h (1 Bft)
04.12.2022 03:32 22,3 °C 0,2 °C 49 % 95 % 1019,3 hPa 0,0 l/m² 1,3 km/h (1 Bft) O-NO 59 ° 0 min 0 W/m² -0,5 °C 0,2 °C 6,4 km/h (2 Bft)
04.12.2022 03:34 22,3 °C 0,2 °C 49 % 95 % 1019,3 hPa 0,0 l/m² 4,8 km/h (1 Bft) O-NO 65 ° 0 min 0 W/m² -0,5 °C 0,2 °C 12,9 km/h (3 Bft)
04.12.2022 03:36 22,3 °C 0,2 °C 49 % 95 % 1019,3 hPa 0,0 l/m² 3,7 km/h (1 Bft) NO 42 ° 0 min 0 W/m² -0,5 °C 0,2 °C 9,7 km/h (2 Bft)
04.12.2022 03:38 22,3 °C 0,3 °C 49 % 95 % 1019,3 hPa 0,0 l/m² 2,4 km/h (1 Bft) N-NO 13 ° 0 min 0 W/m² -0,4 °C 0,3 °C 6,4 km/h (2 Bft)
04.12.2022 03:40 22,3 °C 0,3 °C 49 % 95 % 1019,4 hPa 0,0 l/m² 2,1 km/h (1 Bft) NO 43 ° 0 min 0 W/m² -0,4 °C 0,3 °C 8,0 km/h (2 Bft)
04.12.2022 03:41 22,3 °C 0,3 °C 49 % 95 % 1019,3 hPa 0,0 l/m² 5,0 km/h (1 Bft) N-NO 28 ° 0 min 0 W/m² -0,4 °C 0,3 °C 8,0 km/h (2 Bft)
04.12.2022 03:42 22,3 °C 0,3 °C 49 % 95 % 1019,3 hPa 0,0 l/m² 0,7 km/h (0 Bft) N-NO 26 ° 0 min 0 W/m² -0,4 °C 0,3 °C 3,2 km/h (1 Bft)
04.12.2022 03:44 22,3 °C 0,2 °C 49 % 95 % 1019,1 hPa 0,0 l/m² 6,0 km/h (2 Bft) NO 36 ° 0 min 0 W/m² -0,5 °C 0,2 °C 14,5 km/h (3 Bft)
04.12.2022 03:46 22,3 °C 0,2 °C 49 % 95 % 1019,2 hPa 0,0 l/m² 3,4 km/h (1 Bft) N-NO 30 ° 0 min 0 W/m² -0,5 °C 0,2 °C 8,0 km/h (2 Bft)
04.12.2022 03:47 22,3 °C 0,3 °C 49 % 95 % 1019,2 hPa 0,0 l/m² 2,1 km/h (1 Bft) N-NO 30 ° 0 min 0 W/m² -0,4 °C 0,3 °C 4,8 km/h (1 Bft)
04.12.2022 03:49 22,3 °C 0,3 °C 49 % 95 % 1019,1 hPa 0,0 l/m² 3,0 km/h (1 Bft) NO 46 ° 0 min 0 W/m² -0,4 °C 0,3 °C 8,0 km/h (2 Bft)
04.12.2022 03:51 22,3 °C 0,2 °C 49 % 95 % 1019,1 hPa 0,0 l/m² 4,0 km/h (1 Bft) NO 48 ° 0 min 0 W/m² -0,5 °C 0,2 °C 8,0 km/h (2 Bft)
04.12.2022 03:52 22,3 °C 0,3 °C 49 % 95 % 1019,1 hPa 0,0 l/m² 6,8 km/h (2 Bft) N-NO 26 ° 0 min 0 W/m² -0,4 °C -0,1 °C 12,9 km/h (3 Bft)
04.12.2022 03:53 22,3 °C 0,3 °C 49 % 95 % 1019,1 hPa 0,0 l/m² 5,4 km/h (2 Bft) NO 44 ° 0 min 0 W/m² -0,4 °C 0,3 °C 8,0 km/h (2 Bft)
04.12.2022 03:55 22,3 °C 0,2 °C 49 % 95 % 1019,1 hPa 0,0 l/m² 3,4 km/h (1 Bft) NO 40 ° 0 min 0 W/m² -0,5 °C 0,2 °C 8,0 km/h (2 Bft)
04.12.2022 03:57 22,3 °C 0,3 °C 49 % 95 % 1019,2 hPa 0,0 l/m² 2,7 km/h (1 Bft) NO 40 ° 0 min 0 W/m² -0,4 °C 0,3 °C 8,0 km/h (2 Bft)
04.12.2022 03:59 22,3 °C 0,3 °C 49 % 95 % 1019,3 hPa 0,0 l/m² 1,2 km/h (1 Bft) O-NO 57 ° 0 min 0 W/m² -0,4 °C 0,3 °C 6,4 km/h (2 Bft)
04.12.2022 04:00 22,3 °C 0,3 °C 49 % 95 % 1019,2 hPa 0,0 l/m² 5,1 km/h (1 Bft) NO 41 ° 0 min 0 W/m² -0,4 °C 0,3 °C 9,7 km/h (2 Bft)
04.12.2022 04:02 22,3 °C 0,3 °C 49 % 95 % 1019,3 hPa 0,0 l/m² 3,8 km/h (1 Bft) NO 46 ° 0 min 0 W/m² -0,4 °C 0,3 °C 11,3 km/h (2 Bft)
04.12.2022 04:03 22,3 °C 0,3 °C 49 % 95 % 1019,3 hPa 0,0 l/m² 5,0 km/h (1 Bft) NO 37 ° 0 min 0 W/m² -0,4 °C 0,3 °C 8,0 km/h (2 Bft)
04.12.2022 04:05 22,3 °C 0,3 °C 49 % 95 % 1019,2 hPa 0,0 l/m² 6,7 km/h (2 Bft) NO 34 ° 0 min 0 W/m² -0,4 °C 0,0 °C 11,3 km/h (2 Bft)
04.12.2022 04:06 22,3 °C 0,3 °C 49 % 95 % 1019,3 hPa 0,0 l/m² 2,0 km/h (1 Bft) N-NO 30 ° 0 min 0 W/m² -0,4 °C 0,3 °C 8,0 km/h (2 Bft)
04.12.2022 04:08 22,3 °C 0,3 °C 49 % 95 % 1019,1 hPa 0,0 l/m² 4,5 km/h (1 Bft) NO 42 ° 0 min 0 W/m² -0,4 °C 0,3 °C 9,7 km/h (2 Bft)
04.12.2022 04:10 22,3 °C 0,3 °C 49 % 95 % 1019,2 hPa 0,0 l/m² 5,3 km/h (1 Bft) N-NO 30 ° 0 min 0 W/m² -0,4 °C 0,3 °C 11,3 km/h (2 Bft)
04.12.2022 04:11 22,3 °C 0,3 °C 49 % 95 % 1019,1 hPa 0,0 l/m² 6,2 km/h (2 Bft) N-NO 33 ° 0 min 0 W/m² -0,4 °C 0,3 °C 14,5 km/h (3 Bft)
04.12.2022 04:12 22,3 °C 0,3 °C 49 % 95 % 1019,1 hPa 0,0 l/m² 6,3 km/h (2 Bft) N-NO 31 ° 0 min 0 W/m² -0,4 °C 0,3 °C 12,9 km/h (3 Bft)
04.12.2022 04:14 22,3 °C 0,3 °C 49 % 95 % 1019,0 hPa 0,0 l/m² 3,1 km/h (1 Bft) O-NO 58 ° 0 min 0 W/m² -0,4 °C 0,3 °C 9,7 km/h (2 Bft)
04.12.2022 04:16 22,3 °C 0,3 °C 49 % 95 % 1019,0 hPa 0,0 l/m² 5,0 km/h (1 Bft) NO 35 ° 0 min 0 W/m² -0,4 °C 0,3 °C 11,3 km/h (2 Bft)
04.12.2022 04:18 22,3 °C 0,3 °C 49 % 95 % 1019,0 hPa 0,0 l/m² 3,8 km/h (1 Bft) NO 38 ° 0 min 0 W/m² -0,4 °C 0,3 °C 11,3 km/h (2 Bft)
04.12.2022 04:19 22,3 °C 0,3 °C 49 % 95 % 1019,0 hPa 0,0 l/m² 4,9 km/h (1 Bft) N-NO 22 ° 0 min 0 W/m² -0,4 °C 0,3 °C 8,0 km/h (2 Bft)
04.12.2022 04:20 22,3 °C 0,3 °C 49 % 95 % 1019,0 hPa 0,0 l/m² 4,7 km/h (1 Bft) N 5 ° 0 min 0 W/m² -0,4 °C 0,3 °C 9,7 km/h (2 Bft)
04.12.2022 04:22 22,3 °C 0,3 °C 49 % 95 % 1019,1 hPa 0,0 l/m² 2,6 km/h (1 Bft) N-NO 12 ° 0 min 0 W/m² -0,4 °C 0,3 °C 6,4 km/h (2 Bft)
04.12.2022 04:23 22,3 °C 0,3 °C 49 % 95 % 1019,1 hPa 0,0 l/m² 4,2 km/h (1 Bft) N 355 ° 0 min 0 W/m² -0,4 °C 0,3 °C 8,0 km/h (2 Bft)
04.12.2022 04:25 22,3 °C 0,3 °C 49 % 95 % 1019,1 hPa 0,0 l/m² 6,1 km/h (2 Bft) N-NO 24 ° 0 min 0 W/m² -0,4 °C 0,3 °C 12,9 km/h (3 Bft)
04.12.2022 04:27 22,3 °C 0,3 °C 49 % 95 % 1019,1 hPa 0,0 l/m² 2,3 km/h (1 Bft) NO 50 ° 0 min 0 W/m² -0,4 °C 0,3 °C 8,0 km/h (2 Bft)
04.12.2022 04:29 22,3 °C 0,3 °C 49 % 95 % 1019,1 hPa 0,0 l/m² 6,7 km/h (2 Bft) NO 48 ° 0 min 0 W/m² -0,4 °C 0,0 °C 11,3 km/h (2 Bft)
04.12.2022 04:31 22,3 °C 0,3 °C 49 % 95 % 1019,1 hPa 0,0 l/m² 3,4 km/h (1 Bft) N-NO 18 ° 0 min 0 W/m² -0,4 °C 0,3 °C 8,0 km/h (2 Bft)
04.12.2022 04:32 22,2 °C 0,3 °C 49 % 95 % 1019,2 hPa 0,0 l/m² 1,1 km/h (1 Bft) N-NO 28 ° 0 min 0 W/m² -0,4 °C 0,3 °C 4,8 km/h (1 Bft)
04.12.2022 04:33 22,2 °C 0,3 °C 49 % 95 % 1019,2 hPa 0,0 l/m² 3,8 km/h (1 Bft) N-NO 19 ° 0 min 0 W/m² -0,4 °C 0,3 °C 6,4 km/h (2 Bft)
04.12.2022 04:35 22,3 °C 0,3 °C 49 % 95 % 1019,3 hPa 0,0 l/m² 7,0 km/h (2 Bft) NO 46 ° 0 min 0 W/m² -0,4 °C -0,3 °C 16,1 km/h (3 Bft)
04.12.2022 04:37 22,3 °C 0,3 °C 49 % 95 % 1019,3 hPa 0,0 l/m² 4,6 km/h (1 Bft) NO 34 ° 0 min 0 W/m² -0,4 °C 0,3 °C 9,7 km/h (2 Bft)
04.12.2022 04:39 22,2 °C 0,3 °C 49 % 95 % 1019,3 hPa 0,0 l/m² 5,8 km/h (2 Bft) O-NO 57 ° 0 min 0 W/m² -0,4 °C 0,3 °C 11,3 km/h (2 Bft)
04.12.2022 04:40 22,3 °C 0,3 °C 49 % 95 % 1019,3 hPa 0,0 l/m² 5,7 km/h (2 Bft) O-NO 63 ° 0 min 0 W/m² -0,4 °C 0,3 °C 12,9 km/h (3 Bft)
04.12.2022 04:42 22,3 °C 0,3 °C 49 % 95 % 1019,3 hPa 0,0 l/m² 8,8 km/h (2 Bft) N-NO 28 ° 0 min 0 W/m² -0,4 °C -2,1 °C 16,1 km/h (3 Bft)
04.12.2022 04:43 22,3 °C 0,3 °C 49 % 95 % 1019,3 hPa 0,0 l/m² 7,7 km/h (2 Bft) O-NO 73 ° 0 min 0 W/m² -0,4 °C -1,0 °C 12,9 km/h (3 Bft)
04.12.2022 04:45 22,2 °C 0,3 °C 49 % 95 % 1019,3 hPa 0,0 l/m² 3,8 km/h (1 Bft) N-NO 22 ° 0 min 0 W/m² -0,4 °C 0,3 °C 14,5 km/h (3 Bft)
04.12.2022 04:47 22,2 °C 0,3 °C 49 % 95 % 1019,3 hPa 0,0 l/m² 4,2 km/h (1 Bft) NO 40 ° 0 min 0 W/m² -0,4 °C 0,3 °C 12,9 km/h (3 Bft)
04.12.2022 04:49 22,2 °C 0,3 °C 49 % 95 % 1019,3 hPa 0,0 l/m² 3,8 km/h (1 Bft) NO 44 ° 0 min 0 W/m² -0,4 °C 0,3 °C 8,0 km/h (2 Bft)
04.12.2022 04:50 22,3 °C 0,3 °C 49 % 95 % 1019,3 hPa 0,0 l/m² 4,2 km/h (1 Bft) N-NO 21 ° 0 min 0 W/m² -0,4 °C 0,3 °C 12,9 km/h (3 Bft)
04.12.2022 04:52 22,2 °C 0,3 °C 49 % 95 % 1019,2 hPa 0,0 l/m² 3,2 km/h (1 Bft) NO 43 ° 0 min 0 W/m² -0,4 °C 0,3 °C 11,3 km/h (2 Bft)
04.12.2022 04:53 22,2 °C 0,3 °C 49 % 95 % 1019,2 hPa 0,0 l/m² 4,6 km/h (1 Bft) NO 35 ° 0 min 0 W/m² -0,4 °C 0,3 °C 8,0 km/h (2 Bft)
04.12.2022 04:55 22,2 °C 0,3 °C 49 % 95 % 1019,3 hPa 0,0 l/m² 7,8 km/h (2 Bft) O 89 ° 0 min 0 W/m² -0,4 °C -1,1 °C 16,1 km/h (3 Bft)
04.12.2022 04:57 22,2 °C 0,3 °C 49 % 95 % 1019,3 hPa 0,0 l/m² 5,0 km/h (1 Bft) NO 51 ° 0 min 0 W/m² -0,4 °C 0,3 °C 14,5 km/h (3 Bft)
04.12.2022 04:59 22,3 °C 0,3 °C 49 % 95 % 1019,3 hPa 0,0 l/m² 5,2 km/h (1 Bft) N-NO 13 ° 0 min 0 W/m² -0,4 °C 0,3 °C 14,5 km/h (3 Bft)
04.12.2022 05:00 22,2 °C 0,3 °C 49 % 95 % 1019,2 hPa 0,0 l/m² 0,7 km/h (0 Bft) O-NO 62 ° 0 min 0 W/m² -0,4 °C 0,3 °C 3,2 km/h (1 Bft)
04.12.2022 05:02 22,2 °C 0,3 °C 49 % 95 % 1019,2 hPa 0,0 l/m² 2,0 km/h (1 Bft) N-NO 26 ° 0 min 0 W/m² -0,4 °C 0,3 °C 6,4 km/h (2 Bft)
04.12.2022 05:03 22,2 °C 0,3 °C 49 % 95 % 1019,2 hPa 0,0 l/m² 0,8 km/h (0 Bft) NO 43 ° 0 min 0 W/m² -0,4 °C 0,3 °C 3,2 km/h (1 Bft)
04.12.2022 05:05 22,2 °C 0,3 °C 49 % 95 % 1019,2 hPa 0,0 l/m² 3,4 km/h (1 Bft) N-NO 25 ° 0 min 0 W/m² -0,4 °C 0,3 °C 9,7 km/h (2 Bft)
04.12.2022 05:07 22,3 °C 0,3 °C 49 % 95 % 1019,2 hPa 0,0 l/m² 1,0 km/h (0 Bft) N-NO 22 ° 0 min 0 W/m² -0,4 °C 0,3 °C 6,4 km/h (2 Bft)
04.12.2022 05:09 22,2 °C 0,3 °C 49 % 95 % 1019,2 hPa 0,0 l/m² 5,5 km/h (2 Bft) O-NO 62 ° 0 min 0 W/m² -0,4 °C 0,3 °C 12,9 km/h (3 Bft)
04.12.2022 05:11 22,2 °C 0,3 °C 49 % 95 % 1019,1 hPa 0,0 l/m² 3,5 km/h (1 Bft) NO 41 ° 0 min 0 W/m² -0,4 °C 0,3 °C 6,4 km/h (2 Bft)
04.12.2022 05:12 22,2 °C 0,3 °C 49 % 95 % 1019,1 hPa 0,0 l/m² 2,0 km/h (1 Bft) NO 43 ° 0 min 0 W/m² -0,4 °C 0,3 °C 6,4 km/h (2 Bft)
04.12.2022 05:13 22,2 °C 0,3 °C 49 % 95 % 1019,1 hPa 0,0 l/m² 3,8 km/h (1 Bft) O-NO 67 ° 0 min 0 W/m² -0,4 °C 0,3 °C 12,9 km/h (3 Bft)
04.12.2022 05:15 22,2 °C 0,3 °C 49 % 95 % 1019,1 hPa 0,0 l/m² 5,6 km/h (2 Bft) N-NO 30 ° 0 min 0 W/m² -0,4 °C 0,3 °C 11,3 km/h (2 Bft)
04.12.2022 05:17 22,2 °C 0,3 °C 49 % 95 % 1019,1 hPa 0,0 l/m² 1,3 km/h (1 Bft) N-NO 28 ° 0 min 0 W/m² -0,4 °C 0,3 °C 4,8 km/h (1 Bft)
04.12.2022 05:19 22,2 °C 0,3 °C 49 % 95 % 1019,1 hPa 0,0 l/m² 5,1 km/h (1 Bft) N 5 ° 0 min 0 W/m² -0,4 °C 0,3 °C 14,5 km/h (3 Bft)
04.12.2022 05:21 22,2 °C 0,3 °C 49 % 95 % 1019,0 hPa 0,0 l/m² 7,2 km/h (2 Bft) O-NO 69 ° 0 min 0 W/m² -0,4 °C -0,5 °C 16,1 km/h (3 Bft)
04.12.2022 05:22 22,2 °C 0,3 °C 49 % 95 % 1019,1 hPa 0,0 l/m² 6,4 km/h (2 Bft) NO 36 ° 0 min 0 W/m² -0,4 °C 0,3 °C 9,7 km/h (2 Bft)
04.12.2022 05:23 22,2 °C 0,3 °C 49 % 95 % 1019,1 hPa 0,0 l/m² 4,2 km/h (1 Bft) NO 53 ° 0 min 0 W/m² -0,4 °C 0,3 °C 6,4 km/h (2 Bft)
04.12.2022 05:25 22,2 °C 0,3 °C 49 % 95 % 1019,1 hPa 0,0 l/m² 3,8 km/h (1 Bft) NO 46 ° 0 min 0 W/m² -0,4 °C 0,3 °C 14,5 km/h (3 Bft)
04.12.2022 05:27 22,2 °C 0,3 °C 49 % 95 % 1019,1 hPa 0,0 l/m² 4,8 km/h (1 Bft) O-NO 68 ° 0 min 0 W/m² -0,4 °C 0,3 °C 11,3 km/h (2 Bft)
04.12.2022 05:29 22,2 °C 0,3 °C 49 % 95 % 1019,1 hPa 0,0 l/m² 4,5 km/h (1 Bft) O-NO 59 ° 0 min 0 W/m² -0,4 °C 0,3 °C 16,1 km/h (3 Bft)
04.12.2022 05:31 22,2 °C 0,3 °C 49 % 95 % 1019,1 hPa 0,0 l/m² 5,4 km/h (2 Bft) NO 53 ° 0 min 0 W/m² -0,4 °C 0,3 °C 12,9 km/h (3 Bft)
04.12.2022 05:32 22,2 °C 0,3 °C 49 % 95 % 1019,0 hPa 0,0 l/m² 2,7 km/h (1 Bft) NO 42 ° 0 min 0 W/m² -0,4 °C 0,3 °C 8,0 km/h (2 Bft)
04.12.2022 05:33 22,2 °C 0,3 °C 49 % 95 % 1019,0 hPa 0,0 l/m² 6,7 km/h (2 Bft) NO 36 ° 0 min 0 W/m² -0,4 °C 0,0 °C 14,5 km/h (3 Bft)
04.12.2022 05:35 22,2 °C 0,3 °C 49 % 95 % 1019,0 hPa 0,0 l/m² 5,2 km/h (1 Bft) NO 46 ° 0 min 0 W/m² -0,4 °C 0,3 °C 9,7 km/h (2 Bft)
04.12.2022 05:37 22,3 °C 0,3 °C 49 % 95 % 1019,0 hPa 0,0 l/m² 2,9 km/h (1 Bft) O-NO 58 ° 0 min 0 W/m² -0,4 °C 0,3 °C 12,9 km/h (3 Bft)
04.12.2022 05:39 22,2 °C 0,3 °C 49 % 95 % 1019,0 hPa 0,0 l/m² 5,2 km/h (1 Bft) N-NO 27 ° 0 min 0 W/m² -0,4 °C 0,3 °C 11,3 km/h (2 Bft)
04.12.2022 05:41 22,2 °C 0,3 °C 49 % 95 % 1019,0 hPa 0,0 l/m² 5,1 km/h (1 Bft) N-NO 28 ° 0 min 0 W/m² -0,4 °C 0,3 °C 12,9 km/h (3 Bft)
04.12.2022 05:42 22,2 °C 0,3 °C 49 % 95 % 1019,0 hPa 0,0 l/m² 0,9 km/h (0 Bft) NO 44 ° 0 min 0 W/m² -0,4 °C 0,3 °C 3,2 km/h (1 Bft)
04.12.2022 05:43 22,2 °C 0,3 °C 49 % 95 % 1019,0 hPa 0,0 l/m² 3,6 km/h (1 Bft) N 11 ° 0 min 0 W/m² -0,4 °C 0,3 °C 6,4 km/h (2 Bft)
04.12.2022 05:45 22,3 °C 0,3 °C 49 % 95 % 1018,9 hPa 0,0 l/m² 5,7 km/h (2 Bft) NO 35 ° 0 min 0 W/m² -0,4 °C 0,3 °C 11,3 km/h (2 Bft)
04.12.2022 05:47 22,3 °C 0,3 °C 49 % 95 % 1019,0 hPa 0,0 l/m² 2,7 km/h (1 Bft) N-NO 33 ° 0 min 0 W/m² -0,4 °C 0,3 °C 11,3 km/h (2 Bft)
04.12.2022 05:49 22,3 °C 0,3 °C 49 % 95 % 1018,9 hPa 0,0 l/m² 2,4 km/h (1 Bft) NO 51 ° 0 min 0 W/m² -0,4 °C 0,3 °C 4,8 km/h (1 Bft)
04.12.2022 05:51 22,3 °C 0,3 °C 49 % 95 % 1019,0 hPa 0,0 l/m² 2,6 km/h (1 Bft) NO 41 ° 0 min 0 W/m² -0,4 °C 0,3 °C 8,0 km/h (2 Bft)
04.12.2022 05:52 22,3 °C 0,3 °C 49 % 95 % 1018,9 hPa 0,0 l/m² 3,2 km/h (1 Bft) O-NO 70 ° 0 min 0 W/m² -0,4 °C 0,3 °C 6,4 km/h (2 Bft)
04.12.2022 05:53 22,3 °C 0,3 °C 49 % 95 % 1018,9 hPa 0,0 l/m² 5,7 km/h (2 Bft) NO 47 ° 0 min 0 W/m² -0,4 °C 0,3 °C 8,0 km/h (2 Bft)
04.12.2022 05:55 22,3 °C 0,3 °C 49 % 95 % 1019,0 hPa 0,0 l/m² 4,9 km/h (1 Bft) O-NO 77 ° 0 min 0 W/m² -0,4 °C 0,3 °C 8,0 km/h (2 Bft)
04.12.2022 05:57 22,3 °C 0,3 °C 49 % 95 % 1019,0 hPa 0,0 l/m² 5,6 km/h (2 Bft) N-NO 33 ° 0 min 0 W/m² -0,4 °C 0,3 °C 12,9 km/h (3 Bft)
04.12.2022 05:59 22,3 °C 0,3 °C 49 % 95 % 1019,0 hPa 0,0 l/m² 4,6 km/h (1 Bft) NO 50 ° 0 min 0 W/m² -0,4 °C 0,3 °C 16,1 km/h (3 Bft)
04.12.2022 06:01 22,3 °C 0,3 °C 49 % 95 % 1019,0 hPa 0,0 l/m² 3,8 km/h (1 Bft) NO 51 ° 0 min 0 W/m² -0,4 °C 0,3 °C 8,0 km/h (2 Bft)
04.12.2022 06:02 22,3 °C 0,3 °C 49 % 95 % 1019,1 hPa 0,0 l/m² 6,6 km/h (2 Bft) NO 46 ° 0 min 0 W/m² -0,4 °C 0,1 °C 9,7 km/h (2 Bft)
04.12.2022 06:03 22,3 °C 0,3 °C 49 % 95 % 1019,1 hPa 0,0 l/m² 7,1 km/h (2 Bft) NO 46 ° 0 min 0 W/m² -0,4 °C -0,4 °C 9,7 km/h (2 Bft)
04.12.2022 06:05 22,3 °C 0,3 °C 49 % 95 % 1019,2 hPa 0,0 l/m² 6,4 km/h (2 Bft) NO 35 ° 0 min 0 W/m² -0,4 °C 0,3 °C 14,5 km/h (3 Bft)
04.12.2022 06:08 22,3 °C 0,3 °C 49 % 95 % 1019,1 hPa 0,0 l/m² 7,0 km/h (2 Bft) O-NO 68 ° 0 min 0 W/m² -0,4 °C -0,3 °C 12,9 km/h (3 Bft)
04.12.2022 06:10 22,3 °C 0,3 °C 49 % 95 % 1019,0 hPa 0,0 l/m² 7,3 km/h (2 Bft) NO 41 ° 0 min 0 W/m² -0,4 °C -0,6 °C 16,1 km/h (3 Bft)
04.12.2022 06:11 22,3 °C 0,3 °C 49 % 95 % 1019,1 hPa 0,0 l/m² 4,7 km/h (1 Bft) O-NO 77 ° 0 min 0 W/m² -0,4 °C 0,3 °C 14,5 km/h (3 Bft)
04.12.2022 06:12 22,3 °C 0,3 °C 49 % 95 % 1019,0 hPa 0,0 l/m² 5,5 km/h (2 Bft) NO 38 ° 0 min 0 W/m² -0,4 °C 0,3 °C 11,3 km/h (2 Bft)
04.12.2022 06:13 22,3 °C 0,3 °C 49 % 95 % 1019,0 hPa 0,0 l/m² 7,8 km/h (2 Bft) N-NO 27 ° 0 min 0 W/m² -0,4 °C -1,1 °C 12,9 km/h (3 Bft)
04.12.2022 06:15 22,3 °C 0,2 °C 49 % 95 % 1019,0 hPa 0,0 l/m² 4,7 km/h (1 Bft) O-NO 71 ° 0 min 0 W/m² -0,5 °C 0,2 °C 9,7 km/h (2 Bft)
04.12.2022 06:17 22,3 °C 0,3 °C 49 % 95 % 1019,1 hPa 0,0 l/m² 4,7 km/h (1 Bft) NO 36 ° 0 min 0 W/m² -0,4 °C 0,3 °C 8,0 km/h (2 Bft)
04.12.2022 06:19 22,3 °C 0,3 °C 49 % 95 % 1018,9 hPa 0,0 l/m² 2,1 km/h (1 Bft) N-NO 29 ° 0 min 0 W/m² -0,4 °C 0,3 °C 8,0 km/h (2 Bft)
04.12.2022 06:20 22,3 °C 0,3 °C 49 % 95 % 1019,0 hPa 0,0 l/m² 3,0 km/h (1 Bft) NO 40 ° 0 min 0 W/m² -0,4 °C 0,3 °C 8,0 km/h (2 Bft)
04.12.2022 06:22 22,3 °C 0,3 °C 49 % 95 % 1019,0 hPa 0,0 l/m² 3,4 km/h (1 Bft) O-NO 76 ° 0 min 0 W/m² -0,4 °C 0,3 °C 6,4 km/h (2 Bft)
04.12.2022 06:23 22,3 °C 0,3 °C 49 % 95 % 1019,0 hPa 0,0 l/m² 4,2 km/h (1 Bft) N-NO 26 ° 0 min 0 W/m² -0,4 °C 0,3 °C 9,7 km/h (2 Bft)
04.12.2022 06:25 22,3 °C 0,2 °C 49 % 95 % 1019,0 hPa 0,0 l/m² 1,6 km/h (1 Bft) N-NO 29 ° 0 min 0 W/m² -0,5 °C 0,2 °C 6,4 km/h (2 Bft)
04.12.2022 06:27 22,3 °C 0,3 °C 49 % 95 % 1019,0 hPa 0,0 l/m² 2,3 km/h (1 Bft) N-NO 22 ° 0 min 0 W/m² -0,4 °C 0,3 °C 8,0 km/h (2 Bft)
04.12.2022 06:29 22,3 °C 0,2 °C 49 % 95 % 1019,0 hPa 0,0 l/m² 1,8 km/h (1 Bft) N-NO 28 ° 0 min 0 W/m² -0,5 °C 0,2 °C 4,8 km/h (1 Bft)
04.12.2022 06:31 22,3 °C 0,2 °C 49 % 95 % 1019,0 hPa 0,0 l/m² 1,6 km/h (1 Bft) NO 35 ° 0 min 0 W/m² -0,5 °C 0,2 °C 8,0 km/h (2 Bft)
04.12.2022 06:32 22,3 °C 0,3 °C 49 % 95 % 1019,0 hPa 0,0 l/m² 3,7 km/h (1 Bft) O-NO 71 ° 0 min 0 W/m² -0,4 °C 0,3 °C 8,0 km/h (2 Bft)
04.12.2022 06:33 22,3 °C 0,2 °C 49 % 95 % 1018,9 hPa 0,0 l/m² 5,2 km/h (1 Bft) O-NO 65 ° 0 min 0 W/m² -0,5 °C 0,2 °C 8,0 km/h (2 Bft)
04.12.2022 06:35 22,3 °C 0,2 °C 49 % 95 % 1019,0 hPa 0,0 l/m² 4,6 km/h (1 Bft) O-NO 61 ° 0 min 0 W/m² -0,5 °C 0,2 °C 8,0 km/h (2 Bft)
04.12.2022 06:37 22,3 °C 0,3 °C 49 % 95 % 1019,0 hPa 0,0 l/m² 1,3 km/h (1 Bft) N-NO 14 ° 0 min 0 W/m² -0,4 °C 0,3 °C 4,8 km/h (1 Bft)
04.12.2022 06:39 22,3 °C 0,2 °C 49 % 95 % 1018,9 hPa 0,0 l/m² 5,0 km/h (1 Bft) NO 46 ° 0 min 0 W/m² -0,5 °C 0,2 °C 12,9 km/h (3 Bft)
04.12.2022 06:41 22,3 °C 0,2 °C 49 % 95 % 1018,9 hPa 0,0 l/m² 4,4 km/h (1 Bft) N-NO 24 ° 0 min 0 W/m² -0,5 °C 0,2 °C 14,5 km/h (3 Bft)
04.12.2022 06:42 22,3 °C 0,2 °C 49 % 95 % 1018,9 hPa 0,0 l/m² 4,2 km/h (1 Bft) NO 36 ° 0 min 0 W/m² -0,5 °C 0,2 °C 8,0 km/h (2 Bft)
04.12.2022 06:43 22,3 °C 0,2 °C 49 % 95 % 1018,9 hPa 0,0 l/m² 3,4 km/h (1 Bft) O-NO 65 ° 0 min 0 W/m² -0,5 °C 0,2 °C 6,4 km/h (2 Bft)
04.12.2022 06:45 22,3 °C 0,2 °C 49 % 95 % 1018,9 hPa 0,0 l/m² 2,6 km/h (1 Bft) NO 42 ° 0 min 0 W/m² -0,5 °C 0,2 °C 6,4 km/h (2 Bft)
04.12.2022 06:47 22,3 °C 0,2 °C 49 % 95 % 1018,8 hPa 0,0 l/m² 4,6 km/h (1 Bft) N-NO 16 ° 0 min 0 W/m² -0,5 °C 0,2 °C 8,0 km/h (2 Bft)
04.12.2022 06:48 22,3 °C 0,2 °C 49 % 95 % 1018,8 hPa 0,0 l/m² 0,9 km/h (0 Bft) NO 52 ° 0 min 0 W/m² -0,5 °C 0,2 °C 3,2 km/h (1 Bft)
04.12.2022 06:50 22,3 °C 0,2 °C 49 % 95 % 1018,7 hPa 0,0 l/m² 1,9 km/h (1 Bft) NO 51 ° 0 min 0 W/m² -0,5 °C 0,2 °C 6,4 km/h (2 Bft)
04.12.2022 06:51 22,3 °C 0,2 °C 49 % 95 % 1018,8 hPa 0,0 l/m² 3,5 km/h (1 Bft) NO 39 ° 0 min 0 W/m² -0,5 °C 0,2 °C 4,8 km/h (1 Bft)
04.12.2022 06:52 22,3 °C 0,3 °C 49 % 95 % 1018,8 hPa 0,0 l/m² 6,6 km/h (2 Bft) O-NO 60 ° 0 min 0 W/m² -0,4 °C 0,1 °C 11,3 km/h (2 Bft)
04.12.2022 06:53 22,3 °C 0,2 °C 49 % 95 % 1018,8 hPa 0,0 l/m² 6,1 km/h (2 Bft) NO 46 ° 0 min 0 W/m² -0,5 °C 0,2 °C 8,0 km/h (2 Bft)
04.12.2022 06:54 22,3 °C 0,2 °C 49 % 95 % 1018,8 hPa 0,0 l/m² 8,0 km/h (2 Bft) O-NO 69 ° 0 min 0 W/m² -0,5 °C -1,4 °C 14,5 km/h (3 Bft)
04.12.2022 06:55 22,3 °C 0,2 °C 49 % 95 % 1018,8 hPa 0,0 l/m² 1,7 km/h (1 Bft) N-NO 17 ° 0 min 0 W/m² -0,5 °C 0,2 °C 4,8 km/h (1 Bft)
04.12.2022 06:57 22,3 °C 0,2 °C 49 % 95 % 1018,8 hPa 0,0 l/m² 1,5 km/h (1 Bft) O-NO 76 ° 0 min 0 W/m² -0,5 °C 0,2 °C 4,8 km/h (1 Bft)
04.12.2022 06:59 22,3 °C 0,2 °C 49 % 95 % 1018,9 hPa 0,0 l/m² 3,5 km/h (1 Bft) O-NO 57 ° 0 min 0 W/m² -0,5 °C 0,2 °C 14,5 km/h (3 Bft)
04.12.2022 07:01 22,3 °C 0,3 °C 49 % 95 % 1018,9 hPa 0,0 l/m² 6,1 km/h (2 Bft) N-NW 331 ° 0 min 0 W/m² -0,4 °C 0,3 °C 12,9 km/h (3 Bft)
04.12.2022 07:02 22,3 °C 0,2 °C 49 % 95 % 1018,9 hPa 0,0 l/m² 2,0 km/h (1 Bft) O-NO 61 ° 0 min 0 W/m² -0,5 °C 0,2 °C 4,8 km/h (1 Bft)
04.12.2022 07:03 22,3 °C 0,3 °C 49 % 95 % 1018,9 hPa 0,0 l/m² 3,5 km/h (1 Bft) N-NO 26 ° 0 min 0 W/m² -0,4 °C 0,3 °C 6,4 km/h (2 Bft)
04.12.2022 07:05 22,3 °C 0,3 °C 49 % 95 % 1018,9 hPa 0,0 l/m² 4,8 km/h (1 Bft) N 5 ° 0 min 0 W/m² -0,4 °C 0,3 °C 8,0 km/h (2 Bft)
04.12.2022 07:07 22,3 °C 0,2 °C 49 % 95 % 1018,8 hPa 0,0 l/m² 4,9 km/h (1 Bft) N-NO 30 ° 0 min 0 W/m² -0,5 °C 0,2 °C 9,7 km/h (2 Bft)
04.12.2022 07:09 22,3 °C 0,2 °C 49 % 95 % 1018,9 hPa 0,0 l/m² 2,4 km/h (1 Bft) NO 51 ° 0 min 0 W/m² -0,5 °C 0,2 °C 6,4 km/h (2 Bft)
04.12.2022 07:11 22,3 °C 0,2 °C 49 % 95 % 1018,9 hPa 0,0 l/m² 4,7 km/h (1 Bft) NO 42 ° 0 min 0 W/m² -0,5 °C 0,2 °C 11,3 km/h (2 Bft)
04.12.2022 07:12 22,3 °C 0,2 °C 49 % 95 % 1018,8 hPa 0,0 l/m² 6,8 km/h (2 Bft) N-NO 27 ° 0 min 0 W/m² -0,5 °C -0,2 °C 12,9 km/h (3 Bft)
04.12.2022 07:13 22,3 °C 0,2 °C 49 % 95 % 1018,8 hPa 0,0 l/m² 5,7 km/h (2 Bft) N-NO 16 ° 0 min 0 W/m² -0,5 °C 0,2 °C 8,0 km/h (2 Bft)
04.12.2022 07:15 22,3 °C 0,3 °C 49 % 95 % 1018,8 hPa 0,0 l/m² 5,6 km/h (2 Bft) N-NO 22 ° 0 min 0 W/m² -0,4 °C 0,3 °C 9,7 km/h (2 Bft)
04.12.2022 07:17 22,3 °C 0,3 °C 49 % 95 % 1018,9 hPa 0,0 l/m² 0,9 km/h (0 Bft) NO 42 ° 0 min 0 W/m² -0,4 °C 0,3 °C 6,4 km/h (2 Bft)
04.12.2022 07:19 22,3 °C 0,3 °C 49 % 95 % 1018,8 hPa 0,0 l/m² 1,8 km/h (1 Bft) NO 34 ° 0 min 0 W/m² -0,4 °C 0,3 °C 4,8 km/h (1 Bft)
04.12.2022 07:21 22,3 °C 0,3 °C 49 % 95 % 1018,9 hPa 0,0 l/m² 0,6 km/h (0 Bft) NO 34 ° 0 min 0 W/m² -0,4 °C 0,3 °C 3,2 km/h (1 Bft)
04.12.2022 07:22 22,3 °C 0,2 °C 49 % 95 % 1018,9 hPa 0,0 l/m² 2,5 km/h (1 Bft) NO 43 ° 0 min 0 W/m² -0,5 °C 0,2 °C 6,4 km/h (2 Bft)
04.12.2022 07:23 22,3 °C 0,3 °C 49 % 95 % 1018,9 hPa 0,0 l/m² 5,6 km/h (2 Bft) NO 38 ° 0 min 0 W/m² -0,4 °C 0,3 °C 9,7 km/h (2 Bft)
04.12.2022 07:25 22,3 °C 0,2 °C 49 % 95 % 1018,9 hPa 0,0 l/m² 1,7 km/h (1 Bft) NO 36 ° 0 min 0 W/m² -0,5 °C 0,2 °C 6,4 km/h (2 Bft)
04.12.2022 07:27 22,3 °C 0,2 °C 49 % 95 % 1018,9 hPa 0,0 l/m² 2,0 km/h (1 Bft) N 11 ° 0 min 0 W/m² -0,5 °C 0,2 °C 6,4 km/h (2 Bft)
04.12.2022 07:29 22,3 °C 0,3 °C 49 % 95 % 1018,8 hPa 0,0 l/m² 3,3 km/h (1 Bft) N 5 ° 0 min 0 W/m² -0,4 °C 0,3 °C 8,0 km/h (2 Bft)
04.12.2022 07:31 22,3 °C 0,2 °C 49 % 95 % 1018,8 hPa 0,0 l/m² 2,6 km/h (1 Bft) NO 55 ° 0 min 0 W/m² -0,5 °C 0,2 °C 6,4 km/h (2 Bft)
04.12.2022 07:32 22,3 °C 0,3 °C 49 % 95 % 1018,8 hPa 0,0 l/m² 3,9 km/h (1 Bft) N 5 ° 0 min 0 W/m² -0,4 °C 0,3 °C 8,0 km/h (2 Bft)
04.12.2022 07:33 22,3 °C 0,3 °C 49 % 95 % 1018,8 hPa 0,0 l/m² 5,8 km/h (2 Bft) N-NO 14 ° 0 min 0 W/m² -0,4 °C 0,3 °C 8,0 km/h (2 Bft)
04.12.2022 07:35 22,3 °C 0,3 °C 49 % 95 % 1018,8 hPa 0,0 l/m² 5,0 km/h (1 Bft) NO 46 ° 0 min 0 W/m² -0,4 °C 0,3 °C 9,7 km/h (2 Bft)
04.12.2022 07:37 22,3 °C 0,3 °C 49 % 95 % 1018,9 hPa 0,0 l/m² 5,4 km/h (2 Bft) N-NO 19 ° 0 min 0 W/m² -0,4 °C 0,3 °C 17,7 km/h (3 Bft)
04.12.2022 07:39 22,2 °C 0,3 °C 49 % 95 % 1018,8 hPa 0,0 l/m² 6,4 km/h (2 Bft) NO 52 ° 0 min 0 W/m² -0,4 °C 0,3 °C 14,5 km/h (3 Bft)
04.12.2022 07:41 22,3 °C 0,3 °C 49 % 95 % 1018,9 hPa 0,0 l/m² 5,6 km/h (2 Bft) N-NO 15 ° 0 min 0 W/m² -0,4 °C 0,3 °C 11,3 km/h (2 Bft)
04.12.2022 07:42 22,3 °C 0,3 °C 49 % 95 % 1019,0 hPa 0,0 l/m² 3,9 km/h (1 Bft) NO 36 ° 0 min 0 W/m² -0,4 °C 0,3 °C 9,7 km/h (2 Bft)
04.12.2022 07:43 22,3 °C 0,3 °C 49 % 95 % 1019,0 hPa 0,0 l/m² 2,3 km/h (1 Bft) O-NO 61 ° 0 min 0 W/m² -0,4 °C 0,3 °C 8,0 km/h (2 Bft)
04.12.2022 07:45 22,2 °C 0,3 °C 49 % 95 % 1019,0 hPa 0,0 l/m² 4,7 km/h (1 Bft) NO 42 ° 0 min 0 W/m² -0,4 °C 0,3 °C 9,7 km/h (2 Bft)
04.12.2022 07:47 22,2 °C 0,3 °C 49 % 95 % 1019,0 hPa 0,0 l/m² 4,9 km/h (1 Bft) NO 39 ° 0 min 0 W/m² -0,4 °C 0,3 °C 11,3 km/h (2 Bft)
04.12.2022 07:49 22,3 °C 0,3 °C 49 % 95 % 1018,9 hPa 0,0 l/m² 5,7 km/h (2 Bft) NO 34 ° 0 min 0 W/m² -0,4 °C 0,3 °C 11,3 km/h (2 Bft)
04.12.2022 07:51 22,2 °C 0,3 °C 49 % 95 % 1019,1 hPa 0,0 l/m² 4,4 km/h (1 Bft) N-NO 18 ° 0 min 0 W/m² -0,4 °C 0,3 °C 9,7 km/h (2 Bft)
04.12.2022 07:52 22,2 °C 0,3 °C 49 % 95 % 1019,0 hPa 0,0 l/m² 4,0 km/h (1 Bft) NO 42 ° 0 min 0 W/m² -0,4 °C 0,3 °C 9,7 km/h (2 Bft)
04.12.2022 07:53 22,3 °C 0,3 °C 49 % 95 % 1019,2 hPa 0,0 l/m² 2,3 km/h (1 Bft) NO 34 ° 0 min 0 W/m² -0,4 °C 0,3 °C 3,2 km/h (1 Bft)
04.12.2022 07:55 22,2 °C 0,3 °C 49 % 95 % 1019,1 hPa 0,0 l/m² 7,4 km/h (2 Bft) O-NO 71 ° 0 min 0 W/m² -0,4 °C -0,7 °C 12,9 km/h (3 Bft)
04.12.2022 07:57 22,2 °C 0,3 °C 49 % 95 % 1019,1 hPa 0,0 l/m² 4,7 km/h (1 Bft) N-NO 31 ° 0 min 0 W/m² -0,4 °C 0,3 °C 9,7 km/h (2 Bft)
04.12.2022 07:59 22,2 °C 0,3 °C 49 % 95 % 1019,2 hPa 0,0 l/m² 5,6 km/h (2 Bft) N 5 ° 0 min 0 W/m² -0,4 °C 0,3 °C 11,3 km/h (2 Bft)
04.12.2022 08:01 22,2 °C 0,3 °C 49 % 95 % 1019,1 hPa 0,0 l/m² 2,1 km/h (1 Bft) NO 40 ° 0 min 0 W/m² -0,4 °C 0,3 °C 8,0 km/h (2 Bft)
04.12.2022 08:02 22,2 °C 0,3 °C 49 % 95 % 1019,1 hPa 0,0 l/m² 5,5 km/h (2 Bft) N-NO 28 ° 0 min 0 W/m² -0,4 °C 0,3 °C 9,7 km/h (2 Bft)
04.12.2022 08:03 22,2 °C 0,3 °C 49 % 95 % 1019,2 hPa 0,0 l/m² 3,9 km/h (1 Bft) N-NO 19 ° 0 min 0 W/m² -0,4 °C 0,3 °C 8,0 km/h (2 Bft)
04.12.2022 08:05 22,2 °C 0,3 °C 49 % 95 % 1019,2 hPa 0,0 l/m² 2,7 km/h (1 Bft) NO 46 ° 0 min 0 W/m² -0,4 °C 0,3 °C 8,0 km/h (2 Bft)
04.12.2022 08:07 22,3 °C 0,3 °C 49 % 95 % 1019,2 hPa 0,0 l/m² 6,4 km/h (2 Bft) N-NO 24 ° 0 min 0 W/m² -0,4 °C 0,3 °C 14,5 km/h (3 Bft)
04.12.2022 08:09 22,2 °C 0,3 °C 49 % 95 % 1019,3 hPa 0,0 l/m² 5,4 km/h (2 Bft) NO 46 ° 0 min 0 W/m² -0,4 °C 0,3 °C 12,9 km/h (3 Bft)
04.12.2022 08:11 22,3 °C 0,3 °C 49 % 95 % 1019,2 hPa 0,0 l/m² 2,7 km/h (1 Bft) N-NO 21 ° 0 min 0 W/m² -0,4 °C 0,3 °C 11,3 km/h (2 Bft)
04.12.2022 08:12 22,2 °C 0,3 °C 49 % 95 % 1019,3 hPa 0,0 l/m² 6,0 km/h (2 Bft) NO 35 ° 0 min 0 W/m² -0,4 °C 0,3 °C 12,9 km/h (3 Bft)
04.12.2022 08:13 22,2 °C 0,3 °C 49 % 95 % 1019,3 hPa 0,0 l/m² 6,4 km/h (2 Bft) N-NO 22 ° 0 min 0 W/m² -0,4 °C 0,3 °C 9,7 km/h (2 Bft)
04.12.2022 08:16 22,2 °C 0,3 °C 49 % 95 % 1019,2 hPa 0,0 l/m² 5,4 km/h (2 Bft) N 5 ° 0 min 0 W/m² -0,4 °C 0,3 °C 12,9 km/h (3 Bft)
04.12.2022 08:18 22,2 °C 0,3 °C 49 % 95 % 1019,3 hPa 0,0 l/m² 2,4 km/h (1 Bft) NO 51 ° 0 min 0 W/m² -0,4 °C 0,3 °C 6,4 km/h (2 Bft)
04.12.2022 08:20 22,2 °C 0,3 °C 49 % 95 % 1019,3 hPa 0,0 l/m² 1,8 km/h (1 Bft) N-NO 32 ° 0 min 0 W/m² -0,4 °C 0,3 °C 6,4 km/h (2 Bft)
04.12.2022 08:21 22,2 °C 0,3 °C 49 % 95 % 1019,4 hPa 0,0 l/m² 3,4 km/h (1 Bft) N-NO 17 ° 0 min 0 W/m² -0,4 °C 0,3 °C 6,4 km/h (2 Bft)
04.12.2022 08:22 22,2 °C 0,3 °C 49 % 95 % 1019,4 hPa 0,0 l/m² 4,2 km/h (1 Bft) NO 42 ° 0 min 0 W/m² -0,4 °C 0,3 °C 6,4 km/h (2 Bft)
04.12.2022 08:23 22,2 °C 0,3 °C 49 % 95 % 1019,4 hPa 0,0 l/m² 5,7 km/h (2 Bft) NO 41 ° 0 min 0 W/m² -0,4 °C 0,3 °C 8,0 km/h (2 Bft)
04.12.2022 08:25 22,2 °C 0,3 °C 49 % 95 % 1019,4 hPa 0,0 l/m² 3,8 km/h (1 Bft) N-NO 28 ° 0 min 0 W/m² -0,4 °C 0,3 °C 9,7 km/h (2 Bft)
04.12.2022 08:27 22,2 °C 0,3 °C 49 % 95 % 1019,3 hPa 0,0 l/m² 3,3 km/h (1 Bft) N-NO 32 ° 0 min 0 W/m² -0,4 °C 0,3 °C 8,0 km/h (2 Bft)
04.12.2022 08:29 22,3 °C 0,3 °C 49 % 95 % 1019,3 hPa 0,0 l/m² 3,4 km/h (1 Bft) NO 37 ° 0 min 0 W/m² -0,4 °C 0,3 °C 6,4 km/h (2 Bft)
04.12.2022 08:31 22,2 °C 0,3 °C 49 % 95 % 1019,3 hPa 0,0 l/m² 4,0 km/h (1 Bft) NO 45 ° 0 min 5 W/m² -0,4 °C 0,3 °C 14,5 km/h (3 Bft)
04.12.2022 08:32 22,2 °C 0,3 °C 49 % 95 % 1019,3 hPa 0,0 l/m² 6,9 km/h (2 Bft) N 9 ° 0 min 5 W/m² -0,4 °C -0,2 °C 11,3 km/h (2 Bft)
04.12.2022 08:33 22,2 °C 0,3 °C 49 % 95 % 1019,3 hPa 0,0 l/m² 5,2 km/h (1 Bft) NO 47 ° 0 min 5 W/m² -0,4 °C 0,3 °C 8,0 km/h (2 Bft)
04.12.2022 08:36 22,3 °C 0,3 °C 49 % 95 % 1019,3 hPa 0,0 l/m² 4,0 km/h (1 Bft) N-NO 24 ° 0 min 5 W/m² -0,4 °C 0,3 °C 11,3 km/h (2 Bft)
04.12.2022 08:38 22,3 °C 0,3 °C 49 % 95 % 1019,4 hPa 0,0 l/m² 4,3 km/h (1 Bft) NO 38 ° 0 min 5 W/m² -0,4 °C 0,3 °C 8,0 km/h (2 Bft)
04.12.2022 08:40 22,3 °C 0,3 °C 49 % 95 % 1019,3 hPa 0,0 l/m² 3,8 km/h (1 Bft) O-NO 73 ° 0 min 7 W/m² -0,4 °C 0,3 °C 9,7 km/h (2 Bft)
04.12.2022 08:41 22,3 °C 0,4 °C 49 % 95 % 1019,3 hPa 0,0 l/m² 3,5 km/h (1 Bft) N-NO 32 ° 0 min 7 W/m² -0,3 °C 0,4 °C 9,7 km/h (2 Bft)
04.12.2022 08:42 22,3 °C 0,4 °C 49 % 95 % 1019,3 hPa 0,0 l/m² 3,4 km/h (1 Bft) NO 38 ° 0 min 7 W/m² -0,3 °C 0,4 °C 6,4 km/h (2 Bft)
04.12.2022 08:43 22,3 °C 0,3 °C 49 % 95 % 1019,3 hPa 0,0 l/m² 3,5 km/h (1 Bft) NO 44 ° 0 min 7 W/m² -0,4 °C 0,3 °C 14,5 km/h (3 Bft)
04.12.2022 08:45 22,3 °C 0,4 °C 49 % 95 % 1019,3 hPa 0,0 l/m² 8,3 km/h (2 Bft) NO 53 ° 0 min 9 W/m² -0,3 °C -1,5 °C 12,9 km/h (3 Bft)
04.12.2022 08:47 22,3 °C 0,4 °C 49 % 95 % 1019,3 hPa 0,0 l/m² 4,9 km/h (1 Bft) NO 49 ° 0 min 9 W/m² -0,3 °C 0,4 °C 12,9 km/h (3 Bft)
04.12.2022 08:49 22,3 °C 0,4 °C 49 % 95 % 1019,2 hPa 0,0 l/m² 3,6 km/h (1 Bft) NO 52 ° 0 min 9 W/m² -0,3 °C 0,4 °C 8,0 km/h (2 Bft)
04.12.2022 08:50 22,3 °C 0,4 °C 49 % 95 % 1019,3 hPa 0,0 l/m² 5,0 km/h (1 Bft) NO 34 ° 0 min 9 W/m² -0,3 °C 0,4 °C 9,7 km/h (2 Bft)
04.12.2022 08:52 22,3 °C 0,4 °C 49 % 95 % 1019,3 hPa 0,0 l/m² 4,3 km/h (1 Bft) NO 46 ° 0 min 9 W/m² -0,3 °C 0,4 °C 8,0 km/h (2 Bft)
04.12.2022 08:54 22,3 °C 0,4 °C 50 % 95 % 1019,4 hPa 0,0 l/m² 5,3 km/h (1 Bft) NO 36 ° 0 min 11 W/m² -0,3 °C 0,4 °C 14,5 km/h (3 Bft)
04.12.2022 08:56 22,3 °C 0,4 °C 50 % 95 % 1019,3 hPa 0,0 l/m² 6,4 km/h (2 Bft) N-NO 30 ° 0 min 11 W/m² -0,3 °C 0,4 °C 12,9 km/h (3 Bft)
04.12.2022 08:58 22,3 °C 0,4 °C 50 % 95 % 1019,4 hPa 0,0 l/m² 8,1 km/h (2 Bft) N-NO 24 ° 0 min 11 W/m² -0,3 °C -1,3 °C 14,5 km/h (3 Bft)
04.12.2022 09:00 22,3 °C 0,4 °C 50 % 95 % 1019,4 hPa 0,0 l/m² 4,4 km/h (1 Bft) NO 53 ° 0 min 12 W/m² -0,3 °C 0,4 °C 9,7 km/h (2 Bft)
04.12.2022 09:01 22,3 °C 0,4 °C 50 % 95 % 1019,4 hPa 0,0 l/m² 5,4 km/h (2 Bft) N-NO 19 ° 0 min 12 W/m² -0,3 °C 0,4 °C 9,7 km/h (2 Bft)
04.12.2022 09:02 22,3 °C 0,4 °C 50 % 95 % 1019,4 hPa 0,0 l/m² 7,9 km/h (2 Bft) N-NO 19 ° 0 min 12 W/m² -0,3 °C -1,1 °C 14,5 km/h (3 Bft)
04.12.2022 09:03 22,3 °C 0,4 °C 50 % 95 % 1019,4 hPa 0,0 l/m² 6,9 km/h (2 Bft) O-NO 76 ° 0 min 14 W/m² -0,3 °C -0,1 °C 11,3 km/h (2 Bft)
04.12.2022 09:04 22,3 °C 0,4 °C 50 % 95 % 1019,2 hPa 0,0 l/m² 4,4 km/h (1 Bft) N-NW 343 ° 0 min 14 W/m² -0,3 °C 0,4 °C 8,0 km/h (2 Bft)
04.12.2022 09:06 22,3 °C 0,4 °C 50 % 95 % 1019,3 hPa 0,0 l/m² 7,5 km/h (2 Bft) O-NO 64 ° 0 min 14 W/m² -0,3 °C -0,7 °C 17,7 km/h (3 Bft)
04.12.2022 09:08 22,3 °C 0,4 °C 50 % 95 % 1019,4 hPa 0,0 l/m² 6,3 km/h (2 Bft) O 81 ° 0 min 14 W/m² -0,3 °C 0,4 °C 11,3 km/h (2 Bft)
04.12.2022 09:10 22,3 °C 0,4 °C 50 % 95 % 1019,4 hPa 0,0 l/m² 5,7 km/h (2 Bft) N-NO 26 ° 0 min 16 W/m² -0,3 °C 0,4 °C 12,9 km/h (3 Bft)
04.12.2022 09:11 22,3 °C 0,4 °C 50 % 95 % 1019,4 hPa 0,0 l/m² 4,0 km/h (1 Bft) NO 49 ° 0 min 16 W/m² -0,3 °C 0,4 °C 8,0 km/h (2 Bft)
04.12.2022 09:12 22,3 °C 0,4 °C 50 % 95 % 1019,4 hPa 0,0 l/m² 3,1 km/h (1 Bft) NO 40 ° 0 min 16 W/m² -0,3 °C 0,4 °C 8,0 km/h (2 Bft)
04.12.2022 09:13 22,3 °C 0,4 °C 50 % 95 % 1019,4 hPa 0,0 l/m² 2,2 km/h (1 Bft) NO 36 ° 0 min 16 W/m² -0,3 °C 0,4 °C 4,8 km/h (1 Bft)
04.12.2022 09:14 22,3 °C 0,4 °C 50 % 95 % 1019,4 hPa 0,0 l/m² 5,1 km/h (1 Bft) N-NO 30 ° 0 min 16 W/m² -0,3 °C 0,4 °C 9,7 km/h (2 Bft)
04.12.2022 09:16 22,4 °C 0,4 °C 50 % 95 % 1019,5 hPa 0,0 l/m² 4,7 km/h (1 Bft) NO 42 ° 0 min 16 W/m² -0,3 °C 0,4 °C 11,3 km/h (2 Bft)
04.12.2022 09:18 22,3 °C 0,4 °C 50 % 95 % 1019,4 hPa 0,0 l/m² 4,9 km/h (1 Bft) NO 43 ° 0 min 16 W/m² -0,3 °C 0,4 °C 11,3 km/h (2 Bft)
04.12.2022 09:20 22,4 °C 0,4 °C 50 % 95 % 1019,4 hPa 0,0 l/m² 2,2 km/h (1 Bft) NO 42 ° 0 min 18 W/m² -0,3 °C 0,4 °C 6,4 km/h (2 Bft)
04.12.2022 09:21 22,3 °C 0,4 °C 50 % 95 % 1019,4 hPa 0,0 l/m² 1,0 km/h (0 Bft) NO 35 ° 0 min 18 W/m² -0,3 °C 0,4 °C 4,8 km/h (1 Bft)
04.12.2022 09:22 22,3 °C 0,5 °C 50 % 95 % 1019,4 hPa 0,0 l/m² 0,3 km/h (0 Bft) NO 37 ° 0 min 18 W/m² -0,2 °C 0,5 °C 1,6 km/h (1 Bft)
04.12.2022 09:23 22,4 °C 0,5 °C 50 % 95 % 1019,4 hPa 0,0 l/m² 4,8 km/h (1 Bft) NO 36 ° 0 min 18 W/m² -0,2 °C 0,5 °C 9,7 km/h (2 Bft)
04.12.2022 09:24 22,4 °C 0,4 °C 50 % 95 % 1019,4 hPa 0,0 l/m² 5,0 km/h (1 Bft) NO 34 ° 0 min 19 W/m² -0,3 °C 0,4 °C 11,3 km/h (2 Bft)
04.12.2022 09:26 22,4 °C 0,5 °C 50 % 95 % 1019,4 hPa 0,0 l/m² 2,6 km/h (1 Bft) NO 46 ° 0 min 19 W/m² -0,2 °C 0,5 °C 8,0 km/h (2 Bft)
04.12.2022 09:28 22,4 °C 0,5 °C 50 % 95 % 1019,4 hPa 0,0 l/m² 2,0 km/h (1 Bft) O-NO 66 ° 0 min 19 W/m² -0,2 °C 0,5 °C 8,0 km/h (2 Bft)
04.12.2022 09:30 22,4 °C 0,5 °C 50 % 95 % 1019,5 hPa 0,0 l/m² 3,7 km/h (1 Bft) N-NO 33 ° 0 min 19 W/m² -0,2 °C 0,5 °C 8,0 km/h (2 Bft)
04.12.2022 09:31 22,4 °C 0,5 °C 50 % 95 % 1019,4 hPa 0,0 l/m² 1,9 km/h (1 Bft) N-NO 26 ° 0 min 19 W/m² -0,2 °C 0,5 °C 6,4 km/h (2 Bft)
04.12.2022 09:32 22,4 °C 0,5 °C 50 % 95 % 1019,4 hPa 0,0 l/m² 2,7 km/h (1 Bft) N-NO 13 ° 0 min 21 W/m² -0,2 °C 0,5 °C 6,4 km/h (2 Bft)
04.12.2022 09:33 22,4 °C 0,5 °C 50 % 95 % 1019,4 hPa 0,0 l/m² 2,2 km/h (1 Bft) N-NO 21 ° 0 min 21 W/m² -0,2 °C 0,5 °C 6,4 km/h (2 Bft)
04.12.2022 09:34 22,4 °C 0,5 °C 50 % 95 % 1019,3 hPa 0,0 l/m² 5,8 km/h (2 Bft) NO 48 ° 0 min 23 W/m² -0,2 °C 0,5 °C 9,7 km/h (2 Bft)
04.12.2022 09:36 22,4 °C 0,5 °C 50 % 95 % 1019,4 hPa 0,0 l/m² 3,3 km/h (1 Bft) NO 54 ° 0 min 23 W/m² -0,2 °C 0,5 °C 9,7 km/h (2 Bft)
04.12.2022 09:38 22,4 °C 0,5 °C 50 % 95 % 1019,3 hPa 0,0 l/m² 6,0 km/h (2 Bft) NO 40 ° 0 min 25 W/m² -0,2 °C 0,5 °C 12,9 km/h (3 Bft)
04.12.2022 09:40 22,4 °C 0,5 °C 50 % 95 % 1019,3 hPa 0,0 l/m² 6,0 km/h (2 Bft) NO 50 ° 0 min 25 W/m² -0,2 °C 0,5 °C 9,7 km/h (2 Bft)
04.12.2022 09:41 22,4 °C 0,6 °C 50 % 95 % 1019,3 hPa 0,0 l/m² 5,5 km/h (2 Bft) NO 38 ° 0 min 25 W/m² -0,1 °C 0,6 °C 8,0 km/h (2 Bft)
04.12.2022 09:42 22,4 °C 0,6 °C 50 % 95 % 1019,3 hPa 0,0 l/m² 4,1 km/h (1 Bft) NO 38 ° 0 min 25 W/m² -0,1 °C 0,6 °C 6,4 km/h (2 Bft)
04.12.2022 09:43 22,4 °C 0,6 °C 50 % 95 % 1019,2 hPa 0,0 l/m² 3,0 km/h (1 Bft) NO 43 ° 0 min 25 W/m² -0,1 °C 0,6 °C 6,4 km/h (2 Bft)
04.12.2022 09:44 22,4 °C 0,5 °C 50 % 95 % 1019,3 hPa 0,0 l/m² 4,6 km/h (1 Bft) NO 49 ° 0 min 25 W/m² -0,2 °C 0,5 °C 8,0 km/h (2 Bft)
04.12.2022 09:46 22,4 °C 0,6 °C 50 % 95 % 1019,3 hPa 0,0 l/m² 3,9 km/h (1 Bft) N-NO 29 ° 0 min 26 W/m² -0,1 °C 0,6 °C 8,0 km/h (2 Bft)
04.12.2022 09:47 22,4 °C 0,6 °C 50 % 95 % 1019,3 hPa 0,0 l/m² 6,4 km/h (2 Bft) N 360 ° 0 min 26 W/m² -0,1 °C 0,6 °C 9,7 km/h (2 Bft)
04.12.2022 09:49 22,4 °C 0,6 °C 50 % 95 % 1019,2 hPa 0,0 l/m² 3,4 km/h (1 Bft) NO 49 ° 0 min 30 W/m² -0,1 °C 0,6 °C 9,7 km/h (2 Bft)
04.12.2022 09:50 22,4 °C 0,6 °C 50 % 95 % 1019,3 hPa 0,0 l/m² 3,7 km/h (1 Bft) N-NO 19 ° 0 min 30 W/m² -0,1 °C 0,6 °C 8,0 km/h (2 Bft)
04.12.2022 09:52 22,4 °C 0,6 °C 49 % 95 % 1019,3 hPa 0,0 l/m² 4,9 km/h (1 Bft) N-NO 13 ° 0 min 32 W/m² -0,1 °C 0,6 °C 11,3 km/h (2 Bft)
04.12.2022 09:54 22,4 °C 0,6 °C 49 % 95 % 1019,2 hPa 0,0 l/m² 7,2 km/h (2 Bft) NO 37 ° 0 min 35 W/m² -0,1 °C -0,2 °C 14,5 km/h (3 Bft)
04.12.2022 09:56 22,4 °C 0,6 °C 49 % 95 % 1019,1 hPa 0,0 l/m² 5,1 km/h (1 Bft) NO 41 ° 0 min 35 W/m² -0,1 °C 0,6 °C 9,7 km/h (2 Bft)
04.12.2022 09:58 22,4 °C 0,7 °C 49 % 95 % 1019,2 hPa 0,0 l/m² 4,2 km/h (1 Bft) O-NO 59 ° 0 min 33 W/m² -0,0 °C 0,7 °C 9,7 km/h (2 Bft)
04.12.2022 10:00 22,4 °C 0,7 °C 49 % 95 % 1019,3 hPa 0,0 l/m² 5,4 km/h (2 Bft) NO 42 ° 0 min 33 W/m² -0,0 °C 0,7 °C 8,0 km/h (2 Bft)
04.12.2022 10:01 22,4 °C 0,7 °C 49 % 95 % 1019,3 hPa 0,0 l/m² 3,2 km/h (1 Bft) NO 39 ° 0 min 35 W/m² -0,0 °C 0,7 °C 11,3 km/h (2 Bft)
04.12.2022 10:02 22,4 °C 0,7 °C 49 % 95 % 1019,3 hPa 0,0 l/m² 5,6 km/h (2 Bft) N-NO 22 ° 0 min 35 W/m² -0,0 °C 0,7 °C 12,9 km/h (3 Bft)
04.12.2022 10:03 22,4 °C 0,7 °C 49 % 95 % 1019,3 hPa 0,0 l/m² 5,1 km/h (1 Bft) NO 34 ° 0 min 37 W/m² -0,0 °C 0,7 °C 9,7 km/h (2 Bft)
04.12.2022 10:04 22,4 °C 0,7 °C 49 % 95 % 1019,2 hPa 0,0 l/m² 4,7 km/h (1 Bft) N-NO 16 ° 0 min 37 W/m² -0,0 °C 0,7 °C 8,0 km/h (2 Bft)
04.12.2022 10:06 22,4 °C 0,7 °C 49 % 95 % 1019,2 hPa 0,0 l/m² 6,5 km/h (2 Bft) NO 43 ° 0 min 35 W/m² -0,0 °C 0,6 °C 14,5 km/h (3 Bft)
04.12.2022 10:08 22,4 °C 0,7 °C 49 % 95 % 1019,3 hPa 0,0 l/m² 3,0 km/h (1 Bft) NO 38 ° 0 min 32 W/m² -0,0 °C 0,7 °C 9,7 km/h (2 Bft)
04.12.2022 10:10 22,4 °C 0,7 °C 49 % 95 % 1019,3 hPa 0,0 l/m² 3,6 km/h (1 Bft) NO 37 ° 0 min 28 W/m² -0,0 °C 0,7 °C 8,0 km/h (2 Bft)
04.12.2022 10:11 22,4 °C 0,7 °C 49 % 95 % 1019,3 hPa 0,0 l/m² 4,3 km/h (1 Bft) NO 46 ° 0 min 30 W/m² -0,0 °C 0,7 °C 8,0 km/h (2 Bft)
04.12.2022 10:12 22,4 °C 0,7 °C 49 % 95 % 1019,3 hPa 0,0 l/m² 6,1 km/h (2 Bft) NO 46 ° 0 min 30 W/m² -0,0 °C 0,7 °C 8,0 km/h (2 Bft)
04.12.2022 10:13 22,4 °C 0,7 °C 49 % 95 % 1019,3 hPa 0,0 l/m² 4,7 km/h (1 Bft) O-NO 63 ° 0 min 30 W/m² -0,0 °C 0,7 °C 9,7 km/h (2 Bft)
04.12.2022 10:14 22,3 °C 0,7 °C 49 % 95 % 1019,3 hPa 0,0 l/m² 0,2 km/h (0 Bft) NO 55 ° 0 min 30 W/m² -0,0 °C 0,7 °C 1,6 km/h (1 Bft)
04.12.2022 10:16 22,3 °C 0,7 °C 49 % 95 % 1019,2 hPa 0,0 l/m² 3,8 km/h (1 Bft) N 9 ° 0 min 32 W/m² -0,0 °C 0,7 °C 8,0 km/h (2 Bft)
04.12.2022 10:18 22,4 °C 0,7 °C 49 % 95 % 1019,2 hPa 0,0 l/m² 2,5 km/h (1 Bft) O-NO 57 ° 0 min 33 W/m² -0,0 °C 0,7 °C 6,4 km/h (2 Bft)
04.12.2022 10:20 22,4 °C 0,7 °C 49 % 95 % 1019,2 hPa 0,0 l/m² 3,4 km/h (1 Bft) N-NO 27 ° 0 min 33 W/m² -0,0 °C 0,7 °C 8,0 km/h (2 Bft)
04.12.2022 10:21 22,4 °C 0,7 °C 49 % 95 % 1019,1 hPa 0,0 l/m² 1,7 km/h (1 Bft) N-NO 28 ° 0 min 33 W/m² -0,0 °C 0,7 °C 4,8 km/h (1 Bft)
04.12.2022 10:22 22,4 °C 0,7 °C 49 % 95 % 1019,1 hPa 0,0 l/m² 2,9 km/h (1 Bft) NO 37 ° 0 min 33 W/m² -0,0 °C 0,7 °C 6,4 km/h (2 Bft)
04.12.2022 10:23 22,4 °C 0,8 °C 49 % 95 % 1019,1 hPa 0,0 l/m² 3,8 km/h (1 Bft) NO 42 ° 0 min 35 W/m² 0,1 °C 0,8 °C 8,0 km/h (2 Bft)
04.12.2022 10:24 22,3 °C 0,7 °C 49 % 95 % 1019,2 hPa 0,0 l/m² 1,7 km/h (1 Bft) NO 45 ° 0 min 33 W/m² -0,0 °C 0,7 °C 4,8 km/h (1 Bft)
04.12.2022 10:26 22,4 °C 0,8 °C 49 % 95 % 1019,2 hPa 0,0 l/m² 1,8 km/h (1 Bft) O-NO 59 ° 0 min 33 W/m² 0,1 °C 0,8 °C 8,0 km/h (2 Bft)
04.12.2022 10:28 22,3 °C 0,8 °C 49 % 95 % 1019,2 hPa 0,0 l/m² 2,4 km/h (1 Bft) N-NO 33 ° 0 min 33 W/m² 0,1 °C 0,8 °C 6,4 km/h (2 Bft)
04.12.2022 10:30 22,3 °C 0,8 °C 49 % 95 % 1019,3 hPa 0,0 l/m² 3,8 km/h (1 Bft) O-NO 63 ° 0 min 33 W/m² 0,1 °C 0,8 °C 8,0 km/h (2 Bft)
04.12.2022 10:31 22,3 °C 0,8 °C 49 % 95 % 1019,3 hPa 0,0 l/m² 3,0 km/h (1 Bft) O-NO 76 ° 0 min 32 W/m² 0,1 °C 0,8 °C 6,4 km/h (2 Bft)
04.12.2022 10:32 22,3 °C 0,8 °C 49 % 95 % 1019,3 hPa 0,0 l/m² 1,7 km/h (1 Bft) NO 53 ° 0 min 33 W/m² 0,1 °C 0,8 °C 4,8 km/h (1 Bft)
04.12.2022 10:33 22,3 °C 0,8 °C 49 % 95 % 1019,3 hPa 0,0 l/m² 2,1 km/h (1 Bft) N-NO 32 ° 0 min 35 W/m² 0,1 °C 0,8 °C 6,4 km/h (2 Bft)
04.12.2022 10:34 22,3 °C 0,8 °C 49 % 95 % 1019,2 hPa 0,2 l/m² 3,8 km/h (1 Bft) N-NO 14 ° 0 min 35 W/m² 0,1 °C 0,8 °C 8,0 km/h (2 Bft)
04.12.2022 10:36 22,3 °C 0,8 °C 49 % 95 % 1019,3 hPa 0,0 l/m² 2,0 km/h (1 Bft) O-NO 58 ° 0 min 39 W/m² 0,1 °C 0,8 °C 4,8 km/h (1 Bft)
04.12.2022 10:38 22,3 °C 0,8 °C 49 % 95 % 1019,3 hPa 0,0 l/m² 1,2 km/h (1 Bft) N-NO 19 ° 0 min 39 W/m² 0,1 °C 0,8 °C 4,8 km/h (1 Bft)
04.12.2022 10:40 22,3 °C 0,8 °C 49 % 95 % 1019,3 hPa 0,0 l/m² 1,0 km/h (0 Bft) NO 44 ° 0 min 37 W/m² 0,1 °C 0,8 °C 8,0 km/h (2 Bft)
04.12.2022 10:41 22,3 °C 0,8 °C 49 % 95 % 1019,2 hPa 0,0 l/m² 0,5 km/h (0 Bft) NO 34 ° 0 min 37 W/m² 0,1 °C 0,8 °C 3,2 km/h (1 Bft)
04.12.2022 10:42 22,3 °C 0,8 °C 49 % 95 % 1019,2 hPa 0,0 l/m² 0,0 km/h (0 Bft) NO 34 ° 0 min 35 W/m² 0,1 °C 0,8 °C 0,0 km/h (0 Bft)
04.12.2022 10:43 22,3 °C 0,8 °C 49 % 95 % 1019,4 hPa 0,0 l/m² 0,0 km/h (0 Bft) NO 34 ° 0 min 37 W/m² 0,1 °C 0,8 °C 0,0 km/h (0 Bft)
04.12.2022 10:44 22,3 °C 0,8 °C 49 % 95 % 1019,3 hPa 0,0 l/m² 1,2 km/h (1 Bft) N-NO 26 ° 0 min 37 W/m² 0,1 °C 0,8 °C 6,4 km/h (2 Bft)
04.12.2022 10:46 22,3 °C 0,8 °C 49 % 95 % 1019,3 hPa 0,0 l/m² 2,4 km/h (1 Bft) N-NO 32 ° 0 min 37 W/m² 0,1 °C 0,8 °C 8,0 km/h (2 Bft)
04.12.2022 10:48 22,4 °C 0,8 °C 49 % 95 % 1019,3 hPa 0,0 l/m² 1,2 km/h (1 Bft) NO 38 ° 0 min 39 W/m² 0,1 °C 0,8 °C 4,8 km/h (1 Bft)
04.12.2022 10:50 22,4 °C 0,8 °C 49 % 95 % 1019,2 hPa 0,0 l/m² 1,1 km/h (1 Bft) N 5 ° 0 min 40 W/m² 0,1 °C 0,8 °C 6,4 km/h (2 Bft)
04.12.2022 10:51 22,3 °C 0,9 °C 49 % 95 % 1019,1 hPa 0,0 l/m² 2,6 km/h (1 Bft) N 351 ° 0 min 39 W/m² 0,2 °C 0,9 °C 6,4 km/h (2 Bft)
04.12.2022 10:52 22,3 °C 0,8 °C 49 % 95 % 1019,1 hPa 0,0 l/m² 1,8 km/h (1 Bft) N 355 ° 0 min 39 W/m² 0,1 °C 0,8 °C 3,2 km/h (1 Bft)
04.12.2022 10:53 22,3 °C 0,8 °C 49 % 95 % 1019,2 hPa 0,0 l/m² 3,4 km/h (1 Bft) N-NO 32 ° 0 min 39 W/m² 0,1 °C 0,8 °C 8,0 km/h (2 Bft)
04.12.2022 10:54 22,4 °C 0,8 °C 49 % 95 % 1019,2 hPa 0,0 l/m² 1,9 km/h (1 Bft) NO 47 ° 0 min 39 W/m² 0,1 °C 0,8 °C 6,4 km/h (2 Bft)
04.12.2022 10:56 22,4 °C 0,8 °C 49 % 95 % 1018,9 hPa 0,0 l/m² 0,9 km/h (0 Bft) N 355 ° 0 min 40 W/m² 0,1 °C 0,8 °C 6,4 km/h (2 Bft)
04.12.2022 10:58 22,4 °C 0,8 °C 49 % 95 % 1019,0 hPa 0,0 l/m² 3,7 km/h (1 Bft) N-NO 31 ° 0 min 39 W/m² 0,1 °C 0,8 °C 11,3 km/h (2 Bft)
04.12.2022 11:00 22,4 °C 0,8 °C 49 % 95 % 1019,0 hPa 0,0 l/m² 4,2 km/h (1 Bft) N-NO 19 ° 0 min 40 W/m² 0,1 °C 0,8 °C 11,3 km/h (2 Bft)
04.12.2022 11:01 22,4 °C 0,9 °C 49 % 95 % 1018,9 hPa 0,0 l/m² 1,2 km/h (1 Bft) N-NW 344 ° 0 min 42 W/m² 0,2 °C 0,9 °C 4,8 km/h (1 Bft)
04.12.2022 11:02 22,4 °C 0,9 °C 49 % 95 % 1018,9 hPa 0,0 l/m² 3,1 km/h (1 Bft) NO 41 ° 0 min 42 W/m² 0,2 °C 0,9 °C 8,0 km/h (2 Bft)
04.12.2022 11:04 22,4 °C 0,9 °C 49 % 95 % 1018,9 hPa 0,0 l/m² 1,2 km/h (1 Bft) NO 40 ° 0 min 40 W/m² 0,2 °C 0,9 °C 4,8 km/h (1 Bft)
04.12.2022 11:05 22,4 °C 0,9 °C 49 % 95 % 1018,9 hPa 0,0 l/m² 0,0 km/h (0 Bft) NO 40 ° 0 min 39 W/m² 0,2 °C 0,9 °C 0,0 km/h (0 Bft)
04.12.2022 11:07 22,4 °C 0,9 °C 49 % 95 % 1018,9 hPa 0,0 l/m² 0,4 km/h (0 Bft) N 5 ° 0 min 39 W/m² 0,2 °C 0,9 °C 3,2 km/h (1 Bft)
04.12.2022 11:09 22,4 °C 0,9 °C 50 % 95 % 1018,8 hPa 0,0 l/m² 0,8 km/h (0 Bft) N 5 ° 0 min 37 W/m² 0,2 °C 0,9 °C 4,8 km/h (1 Bft)
04.12.2022 11:10 22,4 °C 0,9 °C 50 % 95 % 1018,9 hPa 0,0 l/m² 1,0 km/h (0 Bft) O-NO 63 ° 0 min 35 W/m² 0,2 °C 0,9 °C 4,8 km/h (1 Bft)
04.12.2022 11:12 22,4 °C 0,9 °C 50 % 95 % 1018,9 hPa 0,0 l/m² 0,0 km/h (0 Bft) O-NO 59 ° 0 min 37 W/m² 0,2 °C 0,9 °C 1,6 km/h (1 Bft)
04.12.2022 11:14 22,4 °C 0,9 °C 50 % 95 % 1018,8 hPa 0,0 l/m² 2,4 km/h (1 Bft) N-NO 19 ° 0 min 39 W/m² 0,2 °C 0,9 °C 6,4 km/h (2 Bft)
04.12.2022 11:16 22,4 °C 0,9 °C 50 % 95 % 1018,8 hPa 0,0 l/m² 2,5 km/h (1 Bft) N-NO 26 ° 0 min 37 W/m² 0,2 °C 0,9 °C 8,0 km/h (2 Bft)
04.12.2022 11:18 22,4 °C 0,9 °C 50 % 95 % 1018,8 hPa 0,0 l/m² 2,6 km/h (1 Bft) N-NO 13 ° 0 min 37 W/m² 0,2 °C 0,9 °C 6,4 km/h (2 Bft)
04.12.2022 11:20 22,4 °C 0,9 °C 50 % 95 % 1018,8 hPa 0,0 l/m² 4,1 km/h (1 Bft) NO 34 ° 0 min 37 W/m² 0,2 °C 0,9 °C 8,0 km/h (2 Bft)
04.12.2022 11:21 22,4 °C 0,9 °C 50 % 95 % 1018,8 hPa 0,0 l/m² 0,5 km/h (0 Bft) N-NO 24 ° 0 min 37 W/m² 0,2 °C 0,9 °C 3,2 km/h (1 Bft)
04.12.2022 11:22 22,4 °C 0,9 °C 50 % 95 % 1018,8 hPa 0,0 l/m² 1,3 km/h (1 Bft) N-NW 344 ° 0 min 37 W/m² 0,2 °C 0,9 °C 3,2 km/h (1 Bft)
04.12.2022 11:23 22,4 °C 0,9 °C 50 % 95 % 1018,8 hPa 0,0 l/m² 3,0 km/h (1 Bft) NO 37 ° 0 min 37 W/m² 0,2 °C 0,9 °C 9,7 km/h (2 Bft)
04.12.2022 11:24 22,4 °C 0,9 °C 50 % 95 % 1018,7 hPa 0,0 l/m² 3,9 km/h (1 Bft) O-NO 61 ° 0 min 37 W/m² 0,2 °C 0,9 °C 9,7 km/h (2 Bft)
04.12.2022 11:26 22,4 °C 0,9 °C 49 % 95 % 1018,8 hPa 0,0 l/m² 2,7 km/h (1 Bft) N-NO 28 ° 0 min 37 W/m² 0,2 °C 0,9 °C 8,0 km/h (2 Bft)
04.12.2022 11:28 22,3 °C 0,9 °C 49 % 95 % 1018,8 hPa 0,0 l/m² 0,0 km/h (0 Bft) N-NO 28 ° 0 min 35 W/m² 0,2 °C 0,9 °C 0,0 km/h (0 Bft)
04.12.2022 11:30 22,3 °C 0,9 °C 48 % 95 % 1018,7 hPa 0,0 l/m² 0,0 km/h (0 Bft) N-NO 32 ° 0 min 32 W/m² 0,2 °C 0,9 °C 1,6 km/h (1 Bft)
04.12.2022 11:31 22,3 °C 0,9 °C 48 % 95 % 1018,8 hPa 0,0 l/m² 0,2 km/h (0 Bft) O-NO 57 ° 0 min 30 W/m² 0,2 °C 0,9 °C 1,6 km/h (1 Bft)
04.12.2022 11:32 22,3 °C 0,9 °C 48 % 95 % 1018,8 hPa 0,0 l/m² 3,1 km/h (1 Bft) N-NO 19 ° 0 min 30 W/m² 0,2 °C 0,9 °C 6,4 km/h (2 Bft)
04.12.2022 11:33 22,3 °C 0,9 °C 48 % 95 % 1018,7 hPa 0,0 l/m² 2,3 km/h (1 Bft) O-SO 118 ° 0 min 28 W/m² 0,2 °C 0,9 °C 4,8 km/h (1 Bft)
04.12.2022 11:34 22,3 °C 0,9 °C 49 % 95 % 1018,7 hPa 0,0 l/m² 1,5 km/h (1 Bft) NO 49 ° 0 min 28 W/m² 0,2 °C 0,9 °C 4,8 km/h (1 Bft)
04.12.2022 11:36 22,3 °C 0,9 °C 49 % 95 % 1018,7 hPa 0,0 l/m² 0,3 km/h (0 Bft) NO 40 ° 0 min 25 W/m² 0,2 °C 0,9 °C 3,2 km/h (1 Bft)
04.12.2022 11:38 22,3 °C 0,9 °C 49 % 95 % 1018,7 hPa 0,0 l/m² 1,1 km/h (1 Bft) NO 44 ° 0 min 25 W/m² 0,2 °C 0,9 °C 4,8 km/h (1 Bft)
04.12.2022 11:40 22,3 °C 0,9 °C 49 % 95 % 1018,7 hPa 0,0 l/m² 0,3 km/h (0 Bft) N-NO 17 ° 0 min 25 W/m² 0,2 °C 0,9 °C 3,2 km/h (1 Bft)
04.12.2022 11:41 22,3 °C 0,9 °C 49 % 95 % 1018,7 hPa 0,0 l/m² 1,0 km/h (0 Bft) N-NO 18 ° 0 min 25 W/m² 0,2 °C 0,9 °C 3,2 km/h (1 Bft)
04.12.2022 11:42 22,3 °C 0,9 °C 49 % 95 % 1018,7 hPa 0,0 l/m² 0,9 km/h (0 Bft) O-NO 69 ° 0 min 26 W/m² 0,2 °C 0,9 °C 3,2 km/h (1 Bft)
04.12.2022 11:44 22,3 °C 0,9 °C 49 % 95 % 1018,8 hPa 0,0 l/m² 1,9 km/h (1 Bft) NO 47 ° 0 min 26 W/m² 0,2 °C 0,9 °C 4,8 km/h (1 Bft)
04.12.2022 11:45 22,3 °C 0,9 °C 49 % 95 % 1018,7 hPa 0,0 l/m² 4,6 km/h (1 Bft) O 80 ° 0 min 26 W/m² 0,2 °C 0,9 °C 6,4 km/h (2 Bft)
04.12.2022 11:47 22,3 °C 0,9 °C 49 % 95 % 1018,7 hPa 0,0 l/m² 2,8 km/h (1 Bft) O-NO 69 ° 0 min 26 W/m² 0,2 °C 0,9 °C 9,7 km/h (2 Bft)
04.12.2022 11:49 22,3 °C 0,9 °C 49 % 95 % 1018,7 hPa 0,0 l/m² 2,7 km/h (1 Bft) O-NO 57 ° 0 min 26 W/m² 0,2 °C 0,9 °C 9,7 km/h (2 Bft)
04.12.2022 11:50 22,3 °C 0,9 °C 49 % 95 % 1018,6 hPa 0,0 l/m² 5,1 km/h (1 Bft) N-NO 19 ° 0 min 30 W/m² 0,2 °C 0,9 °C 11,3 km/h (2 Bft)
04.12.2022 11:51 22,3 °C 0,9 °C 49 % 95 % 1018,6 hPa 0,0 l/m² 1,6 km/h (1 Bft) O 80 ° 0 min 30 W/m² 0,2 °C 0,9 °C 3,2 km/h (1 Bft)
04.12.2022 11:52 22,3 °C 0,9 °C 49 % 95 % 1018,6 hPa 0,0 l/m² 0,2 km/h (0 Bft) N-NO 21 ° 0 min 30 W/m² 0,2 °C 0,9 °C 1,6 km/h (1 Bft)
04.12.2022 11:53 22,3 °C 0,9 °C 49 % 95 % 1018,6 hPa 0,0 l/m² 0,3 km/h (0 Bft) N-NO 22 ° 0 min 32 W/m² 0,2 °C 0,9 °C 1,6 km/h (1 Bft)
04.12.2022 11:54 22,3 °C 0,9 °C 49 % 95 % 1018,6 hPa 0,0 l/m² 1,1 km/h (1 Bft) N-NO 28 ° 0 min 33 W/m² 0,2 °C 0,9 °C 4,8 km/h (1 Bft)
04.12.2022 11:56 22,3 °C 0,9 °C 49 % 95 % 1018,7 hPa 0,0 l/m² 2,9 km/h (1 Bft) N-NO 28 ° 0 min 33 W/m² 0,2 °C 0,9 °C 9,7 km/h (2 Bft)
04.12.2022 11:58 22,3 °C 0,8 °C 49 % 95 % 1018,6 hPa 0,0 l/m² 4,3 km/h (1 Bft) O-NO 67 ° 0 min 35 W/m² 0,1 °C 0,8 °C 14,5 km/h (3 Bft)
04.12.2022 12:00 22,3 °C 0,9 °C 49 % 95 % 1018,7 hPa 0,0 l/m² 6,5 km/h (2 Bft) N-NO 29 ° 0 min 35 W/m² 0,2 °C 0,8 °C 14,5 km/h (3 Bft)
04.12.2022 12:01 22,3 °C 0,8 °C 49 % 95 % 1018,7 hPa 0,0 l/m² 6,1 km/h (2 Bft) O-NO 68 ° 0 min 39 W/m² 0,1 °C 0,8 °C 9,7 km/h (2 Bft)
04.12.2022 12:02 22,3 °C 0,9 °C 49 % 95 % 1018,7 hPa 0,0 l/m² 6,4 km/h (2 Bft) NO 36 ° 0 min 44 W/m² 0,2 °C 0,9 °C 9,7 km/h (2 Bft)
04.12.2022 12:04 22,2 °C 0,9 °C 49 % 95 % 1018,6 hPa 0,0 l/m² 5,5 km/h (2 Bft) NO 41 ° 0 min 51 W/m² 0,2 °C 0,9 °C 12,9 km/h (3 Bft)
04.12.2022 12:05 22,3 °C 0,9 °C 49 % 95 % 1018,6 hPa 0,0 l/m² 8,0 km/h (2 Bft) N-NO 32 ° 0 min 51 W/m² 0,2 °C -0,7 °C 12,9 km/h (3 Bft)
04.12.2022 12:07 22,2 °C 0,9 °C 49 % 95 % 1018,6 hPa 0,0 l/m² 1,8 km/h (1 Bft) NO 39 ° 2 min 53 W/m² 0,2 °C 0,9 °C 9,7 km/h (2 Bft)
04.12.2022 12:09 22,2 °C 0,9 °C 49 % 95 % 1018,7 hPa 0,0 l/m² 4,8 km/h (1 Bft) NO 44 ° 2 min 53 W/m² 0,2 °C 0,9 °C 11,3 km/h (2 Bft)
04.12.2022 12:10 22,2 °C 0,9 °C 49 % 95 % 1018,7 hPa 0,0 l/m² 7,2 km/h (2 Bft) O-NO 78 ° 0 min 51 W/m² 0,2 °C 0,1 °C 14,5 km/h (3 Bft)
04.12.2022 12:12 22,2 °C 0,9 °C 49 % 95 % 1018,7 hPa 0,0 l/m² 5,1 km/h (1 Bft) NO 46 ° 2 min 54 W/m² 0,2 °C 0,9 °C 9,7 km/h (2 Bft)
04.12.2022 12:13 22,2 °C 0,9 °C 49 % 95 % 1018,7 hPa 0,0 l/m² 6,0 km/h (2 Bft) N-NO 29 ° 1 min 54 W/m² 0,2 °C 0,9 °C 9,7 km/h (2 Bft)
04.12.2022 12:14 22,2 °C 0,9 °C 49 % 95 % 1018,7 hPa 0,0 l/m² 8,0 km/h (2 Bft) N-NO 30 ° 1 min 56 W/m² 0,2 °C -0,7 °C 14,5 km/h (3 Bft)
04.12.2022 12:16 22,2 °C 0,9 °C 49 % 95 % 1018,5 hPa 0,0 l/m² 5,9 km/h (2 Bft) NO 43 ° 2 min 53 W/m² 0,2 °C 0,9 °C 11,3 km/h (2 Bft)
04.12.2022 12:18 22,2 °C 0,9 °C 49 % 95 % 1018,5 hPa 0,0 l/m² 6,5 km/h (2 Bft) NO 44 ° 0 min 47 W/m² 0,2 °C 0,8 °C 12,9 km/h (3 Bft)
04.12.2022 12:20 22,2 °C 0,9 °C 49 % 95 % 1018,4 hPa 0,0 l/m² 7,9 km/h (2 Bft) NO 40 ° 0 min 42 W/m² 0,2 °C -0,6 °C 16,1 km/h (3 Bft)
04.12.2022 12:22 22,2 °C 0,9 °C 49 % 95 % 1018,5 hPa 0,0 l/m² 3,2 km/h (1 Bft) O-NO 58 ° 0 min 37 W/m² 0,2 °C 0,9 °C 12,9 km/h (3 Bft)
04.12.2022 12:23 22,2 °C 0,9 °C 49 % 95 % 1018,5 hPa 0,0 l/m² 3,7 km/h (1 Bft) NO 55 ° 0 min 35 W/m² 0,2 °C 0,9 °C 6,4 km/h (2 Bft)
04.12.2022 12:24 22,2 °C 0,9 °C 49 % 95 % 1018,6 hPa 0,0 l/m² 4,8 km/h (1 Bft) N-NO 26 ° 0 min 35 W/m² 0,2 °C 0,9 °C 16,1 km/h (3 Bft)
04.12.2022 12:26 22,2 °C 0,9 °C 49 % 95 % 1018,5 hPa 0,0 l/m² 4,7 km/h (1 Bft) O-NO 71 ° 0 min 37 W/m² 0,2 °C 0,9 °C 9,7 km/h (2 Bft)
04.12.2022 12:28 22,2 °C 0,9 °C 49 % 95 % 1018,5 hPa 0,0 l/m² 3,5 km/h (1 Bft) N 360 ° 0 min 40 W/m² 0,2 °C 0,9 °C 8,0 km/h (2 Bft)
04.12.2022 12:30 22,2 °C 0,9 °C 49 % 95 % 1018,5 hPa 0,0 l/m² 4,7 km/h (1 Bft) NO 36 ° 0 min 49 W/m² 0,2 °C 0,9 °C 16,1 km/h (3 Bft)
04.12.2022 12:32 22,2 °C 0,9 °C 49 % 95 % 1018,5 hPa 0,0 l/m² 3,2 km/h (1 Bft) NO 38 ° 0 min 49 W/m² 0,2 °C 0,9 °C 11,3 km/h (2 Bft)
04.12.2022 12:33 22,2 °C 0,9 °C 49 % 95 % 1018,5 hPa 0,0 l/m² 5,3 km/h (1 Bft) O-NO 65 ° 0 min 51 W/m² 0,2 °C 0,9 °C 11,3 km/h (2 Bft)
04.12.2022 12:34 22,2 °C 0,9 °C 49 % 95 % 1018,6 hPa 0,0 l/m² 5,6 km/h (2 Bft) O-NO 74 ° 0 min 49 W/m² 0,2 °C 0,9 °C 12,9 km/h (3 Bft)
04.12.2022 12:36 22,2 °C 0,9 °C 49 % 95 % 1018,6 hPa 0,0 l/m² 6,2 km/h (2 Bft) N-NO 15 ° 0 min 47 W/m² 0,2 °C 0,9 °C 16,1 km/h (3 Bft)
04.12.2022 12:38 22,2 °C 0,9 °C 49 % 95 % 1018,6 hPa 0,0 l/m² 6,4 km/h (2 Bft) O-NO 65 ° 2 min 58 W/m² 0,2 °C 0,9 °C 12,9 km/h (3 Bft)
04.12.2022 12:40 22,2 °C 0,9 °C 49 % 95 % 1018,6 hPa 0,0 l/m² 5,4 km/h (2 Bft) NO 36 ° 2 min 65 W/m² 0,2 °C 0,9 °C 9,7 km/h (2 Bft)
04.12.2022 12:42 22,1 °C 0,9 °C 49 % 95 % 1018,6 hPa 0,0 l/m² 7,0 km/h (2 Bft) NO 49 ° 2 min 62 W/m² 0,2 °C 0,3 °C 16,1 km/h (3 Bft)
04.12.2022 12:43 22,1 °C 1,0 °C 49 % 95 % 1018,6 hPa 0,0 l/m² 4,8 km/h (1 Bft) N-NO 30 ° 1 min 60 W/m² 0,3 °C 1,0 °C 11,3 km/h (2 Bft)
04.12.2022 12:44 22,1 °C 0,9 °C 49 % 95 % 1018,6 hPa 0,0 l/m² 5,0 km/h (1 Bft) NO 49 ° 1 min 60 W/m² 0,2 °C 0,9 °C 8,0 km/h (2 Bft)
04.12.2022 12:46 22,1 °C 0,9 °C 49 % 95 % 1018,6 hPa 0,0 l/m² 4,1 km/h (1 Bft) O-NO 78 ° 2 min 56 W/m² 0,2 °C 0,9 °C 11,3 km/h (2 Bft)
04.12.2022 12:47 22,1 °C 1,0 °C 49 % 95 % 1018,6 hPa 0,0 l/m² 4,3 km/h (1 Bft) N 11 ° 1 min 54 W/m² 0,3 °C 1,0 °C 9,7 km/h (2 Bft)
04.12.2022 12:48 22,1 °C 1,0 °C 49 % 95 % 1018,5 hPa 0,0 l/m² 5,4 km/h (2 Bft) O-NO 63 ° 1 min 56 W/m² 0,3 °C 1,0 °C 9,7 km/h (2 Bft)
04.12.2022 12:50 22,1 °C 1,0 °C 49 % 95 % 1018,5 hPa 0,0 l/m² 5,5 km/h (2 Bft) O-NO 74 ° 2 min 56 W/m² 0,3 °C 1,0 °C 12,9 km/h (3 Bft)
04.12.2022 12:52 22,2 °C 1,0 °C 49 % 95 % 1018,4 hPa 0,0 l/m² 2,8 km/h (1 Bft) O-NO 71 ° 2 min 54 W/m² 0,3 °C 1,0 °C 8,0 km/h (2 Bft)
04.12.2022 12:53 22,1 °C 1,0 °C 49 % 95 % 1018,4 hPa 0,0 l/m² 1,2 km/h (1 Bft) O-NO 62 ° 1 min 53 W/m² 0,3 °C 1,0 °C 4,8 km/h (1 Bft)
04.12.2022 12:54 22,1 °C 1,0 °C 49 % 95 % 1018,4 hPa 0,0 l/m² 3,2 km/h (1 Bft) NO 52 ° 0 min 51 W/m² 0,3 °C 1,0 °C 6,4 km/h (2 Bft)
04.12.2022 12:56 22,1 °C 1,0 °C 49 % 95 % 1018,4 hPa 0,0 l/m² 1,1 km/h (1 Bft) NO 55 ° 0 min 47 W/m² 0,3 °C 1,0 °C 4,8 km/h (1 Bft)
04.12.2022 12:58 22,1 °C 1,0 °C 49 % 95 % 1018,4 hPa 0,2 l/m² 3,2 km/h (1 Bft) N-NO 26 ° 0 min 46 W/m² 0,3 °C 1,0 °C 9,7 km/h (2 Bft)
04.12.2022 13:00 22,2 °C 1,1 °C 49 % 95 % 1018,3 hPa 0,0 l/m² 4,6 km/h (1 Bft) O-NO 71 ° 0 min 39 W/m² 0,4 °C 1,1 °C 9,7 km/h (2 Bft)
04.12.2022 13:02 22,2 °C 1,0 °C 49 % 95 % 1018,4 hPa 0,0 l/m² 5,4 km/h (2 Bft) NO 50 ° 0 min 37 W/m² 0,3 °C 1,0 °C 9,7 km/h (2 Bft)
04.12.2022 13:03 22,2 °C 1,0 °C 49 % 95 % 1018,4 hPa 0,0 l/m² 6,2 km/h (2 Bft) N 9 ° 0 min 37 W/m² 0,3 °C 1,0 °C 9,7 km/h (2 Bft)
04.12.2022 13:04 22,2 °C 1,0 °C 49 % 95 % 1018,4 hPa 0,0 l/m² 3,6 km/h (1 Bft) NO 46 ° 0 min 37 W/m² 0,3 °C 1,0 °C 6,4 km/h (2 Bft)
04.12.2022 13:06 22,2 °C 1,1 °C 50 % 95 % 1018,3 hPa 0,0 l/m² 0,1 km/h (0 Bft) NO 46 ° 0 min 39 W/m² 0,4 °C 1,1 °C 3,2 km/h (1 Bft)
04.12.2022 13:08 22,2 °C 1,0 °C 50 % 95 % 1018,3 hPa 0,0 l/m² 2,5 km/h (1 Bft) O-NO 57 ° 0 min 37 W/m² 0,3 °C 1,0 °C 6,4 km/h (2 Bft)
04.12.2022 13:10 22,2 °C 1,0 °C 50 % 95 % 1018,3 hPa 0,0 l/m² 4,0 km/h (1 Bft) O-NO 76 ° 0 min 37 W/m² 0,3 °C 1,0 °C 8,0 km/h (2 Bft)
04.12.2022 13:12 22,2 °C 1,0 °C 50 % 95 % 1018,2 hPa 0,0 l/m² 5,2 km/h (1 Bft) NO 46 ° 0 min 40 W/m² 0,3 °C 1,0 °C 8,0 km/h (2 Bft)
04.12.2022 13:13 22,2 °C 1,0 °C 50 % 95 % 1018,2 hPa 0,0 l/m² 2,4 km/h (1 Bft) NO 44 ° 0 min 42 W/m² 0,3 °C 1,0 °C 3,2 km/h (1 Bft)
04.12.2022 13:14 22,2 °C 1,0 °C 50 % 95 % 1018,1 hPa 0,0 l/m² 3,3 km/h (1 Bft) NO 37 ° 0 min 44 W/m² 0,3 °C 1,0 °C 8,0 km/h (2 Bft)
04.12.2022 13:16 22,2 °C 1,0 °C 50 % 95 % 1018,2 hPa 0,2 l/m² 1,3 km/h (1 Bft) NO 36 ° 0 min 47 W/m² 0,3 °C 1,0 °C 6,4 km/h (2 Bft)
04.12.2022 13:18 22,2 °C 1,1 °C 50 % 95 % 1018,2 hPa 0,0 l/m² 2,3 km/h (1 Bft) O-NO 61 ° 0 min 46 W/m² 0,4 °C 1,1 °C 6,4 km/h (2 Bft)
04.12.2022 13:20 22,2 °C 1,0 °C 50 % 95 % 1018,1 hPa 0,0 l/m² 5,9 km/h (2 Bft) N-NO 26 ° 0 min 42 W/m² 0,3 °C 1,0 °C 12,9 km/h (3 Bft)
04.12.2022 13:22 22,2 °C 1,0 °C 50 % 95 % 1018,1 hPa 0,0 l/m² 1,0 km/h (0 Bft) N-NO 32 ° 0 min 42 W/m² 0,3 °C 1,0 °C 4,8 km/h (1 Bft)
04.12.2022 13:23 22,2 °C 1,1 °C 50 % 95 % 1018,1 hPa 0,0 l/m² 1,6 km/h (1 Bft) N-NO 19 ° 0 min 44 W/m² 0,4 °C 1,1 °C 4,8 km/h (1 Bft)
04.12.2022 13:24 22,2 °C 1,1 °C 50 % 95 % 1018,1 hPa 0,0 l/m² 3,0 km/h (1 Bft) NO 34 ° 0 min 47 W/m² 0,4 °C 1,1 °C 4,8 km/h (1 Bft)
04.12.2022 13:26 22,2 °C 1,1 °C 50 % 95 % 1018,1 hPa 0,0 l/m² 2,6 km/h (1 Bft) N 360 ° 0 min 46 W/m² 0,4 °C 1,1 °C 6,4 km/h (2 Bft)
04.12.2022 13:28 22,2 °C 1,1 °C 50 % 95 % 1018,1 hPa 0,2 l/m² 4,4 km/h (1 Bft) N-NO 15 ° 0 min 44 W/m² 0,4 °C 1,1 °C 8,0 km/h (2 Bft)
04.12.2022 13:30 22,3 °C 1,0 °C 50 % 95 % 1018,1 hPa 0,0 l/m² 3,9 km/h (1 Bft) N-NO 15 ° 0 min 39 W/m² 0,3 °C 1,0 °C 12,9 km/h (3 Bft)
04.12.2022 13:32 22,2 °C 1,0 °C 51 % 95 % 1018,0 hPa 0,0 l/m² 1,3 km/h (1 Bft) N-NO 28 ° 0 min 39 W/m² 0,3 °C 1,0 °C 8,0 km/h (2 Bft)
04.12.2022 13:33 22,2 °C 1,0 °C 51 % 95 % 1018,0 hPa 0,0 l/m² 2,2 km/h (1 Bft) N-NO 24 ° 0 min 37 W/m² 0,3 °C 1,0 °C 4,8 km/h (1 Bft)
04.12.2022 13:34 22,2 °C 1,1 °C 51 % 95 % 1018,1 hPa 0,0 l/m² 0,0 km/h (0 Bft) N-NO 24 ° 0 min 33 W/m² 0,4 °C 1,1 °C 0,0 km/h (0 Bft)
04.12.2022 13:36 22,2 °C 1,1 °C 51 % 95 % 1018,1 hPa 0,0 l/m² 0,4 km/h (0 Bft) NO 49 ° 0 min 30 W/m² 0,4 °C 1,1 °C 1,6 km/h (1 Bft)
04.12.2022 13:38 22,3 °C 1,1 °C 51 % 95 % 1018,0 hPa 0,0 l/m² 0,6 km/h (0 Bft) N 11 ° 0 min 23 W/m² 0,4 °C 1,1 °C 3,2 km/h (1 Bft)
04.12.2022 13:40 22,2 °C 1,1 °C 51 % 95 % 1018,0 hPa 0,0 l/m² 0,9 km/h (0 Bft) N-NO 21 ° 0 min 19 W/m² 0,4 °C 1,1 °C 6,4 km/h (2 Bft)
04.12.2022 13:42 22,3 °C 1,1 °C 51 % 95 % 1018,0 hPa 0,0 l/m² 0,4 km/h (0 Bft) N-NO 24 ° 0 min 16 W/m² 0,4 °C 1,1 °C 6,4 km/h (2 Bft)
04.12.2022 13:43 22,3 °C 1,0 °C 51 % 95 % 1018,0 hPa 0,2 l/m² 3,3 km/h (1 Bft) NO 40 ° 0 min 16 W/m² 0,3 °C 1,0 °C 6,4 km/h (2 Bft)
04.12.2022 13:44 22,3 °C 1,1 °C 51 % 95 % 1018,0 hPa 0,0 l/m² 0,0 km/h (0 Bft) NO 41 ° 0 min 16 W/m² 0,4 °C 1,1 °C 0,0 km/h (0 Bft)
04.12.2022 13:46 22,3 °C 1,1 °C 51 % 95 % 1018,0 hPa 0,0 l/m² 0,0 km/h (0 Bft) NO 40 ° 0 min 16 W/m² 0,4 °C 1,1 °C 0,0 km/h (0 Bft)
04.12.2022 13:48 22,2 °C 1,1 °C 51 % 95 % 1018,0 hPa 0,0 l/m² 0,0 km/h (0 Bft) NO 38 ° 0 min 16 W/m² 0,4 °C 1,1 °C 1,6 km/h (1 Bft)
04.12.2022 13:50 22,2 °C 1,1 °C 51 % 95 % 1017,9 hPa 0,0 l/m² 2,2 km/h (1 Bft) NO 40 ° 0 min 16 W/m² 0,4 °C 1,1 °C 6,4 km/h (2 Bft)
04.12.2022 13:52 22,2 °C 1,1 °C 51 % 95 % 1018,0 hPa 0,0 l/m² 1,2 km/h (1 Bft) NO 49 ° 0 min 14 W/m² 0,4 °C 1,1 °C 6,4 km/h (2 Bft)
04.12.2022 13:53 22,2 °C 1,0 °C 51 % 95 % 1018,0 hPa 0,0 l/m² 0,5 km/h (0 Bft) NO 49 ° 0 min 14 W/m² 0,3 °C 1,0 °C 3,2 km/h (1 Bft)
04.12.2022 13:54 22,2 °C 1,0 °C 51 % 95 % 1018,0 hPa 0,0 l/m² 0,0 km/h (0 Bft) NO 49 ° 0 min 14 W/m² 0,3 °C 1,0 °C 0,0 km/h (0 Bft)
04.12.2022 13:56 22,3 °C 1,0 °C 51 % 95 % 1017,9 hPa 0,0 l/m² 4,0 km/h (1 Bft) N-NO 32 ° 0 min 16 W/m² 0,3 °C 1,0 °C 8,0 km/h (2 Bft)
04.12.2022 13:58 22,3 °C 1,0 °C 51 % 95 % 1017,9 hPa 0,0 l/m² 4,1 km/h (1 Bft) N 355 ° 0 min 16 W/m² 0,3 °C 1,0 °C 8,0 km/h (2 Bft)
04.12.2022 14:00 22,2 °C 1,0 °C 51 % 95 % 1017,8 hPa 0,2 l/m² 0,3 km/h (0 Bft) NO 34 ° 0 min 18 W/m² 0,3 °C 1,0 °C 3,2 km/h (1 Bft)
04.12.2022 14:02 22,2 °C 1,0 °C 51 % 95 % 1017,9 hPa 0,0 l/m² 1,6 km/h (1 Bft) N-NO 26 ° 0 min 18 W/m² 0,3 °C 1,0 °C 6,4 km/h (2 Bft)
04.12.2022 14:03 22,2 °C 1,0 °C 51 % 95 % 1017,9 hPa 0,0 l/m² 1,0 km/h (0 Bft) N-NO 29 ° 0 min 18 W/m² 0,3 °C 1,0 °C 3,2 km/h (1 Bft)
04.12.2022 14:04 22,3 °C 1,0 °C 51 % 95 % 1017,9 hPa 0,0 l/m² 0,1 km/h (0 Bft) N-NO 29 ° 0 min 19 W/m² 0,3 °C 1,0 °C 1,6 km/h (1 Bft)
04.12.2022 14:06 22,2 °C 1,0 °C 51 % 95 % 1017,8 hPa 0,0 l/m² 3,2 km/h (1 Bft) N-NO 17 ° 0 min 19 W/m² 0,3 °C 1,0 °C 9,7 km/h (2 Bft)
04.12.2022 14:08 22,2 °C 1,0 °C 51 % 95 % 1017,8 hPa 0,0 l/m² 0,7 km/h (0 Bft) NO 47 ° 0 min 19 W/m² 0,3 °C 1,0 °C 3,2 km/h (1 Bft)
04.12.2022 14:10 22,2 °C 1,0 °C 51 % 95 % 1017,7 hPa 0,0 l/m² 3,6 km/h (1 Bft) N 9 ° 0 min 21 W/m² 0,3 °C 1,0 °C 11,3 km/h (2 Bft)
04.12.2022 14:12 22,2 °C 1,0 °C 51 % 95 % 1017,7 hPa 0,0 l/m² 0,4 km/h (0 Bft) NO 40 ° 0 min 21 W/m² 0,3 °C 1,0 °C 3,2 km/h (1 Bft)
04.12.2022 14:13 22,2 °C 1,0 °C 51 % 95 % 1017,7 hPa 0,0 l/m² 0,0 km/h (0 Bft) NO 40 ° 0 min 21 W/m² 0,3 °C 1,0 °C 0,0 km/h (0 Bft)
04.12.2022 14:14 22,2 °C 1,0 °C 51 % 95 % 1017,8 hPa 0,0 l/m² 0,0 km/h (0 Bft) NO 40 ° 0 min 21 W/m² 0,3 °C 1,0 °C 0,0 km/h (0 Bft)
04.12.2022 14:16 22,3 °C 1,0 °C 51 % 95 % 1017,8 hPa 0,0 l/m² 0,2 km/h (0 Bft) N-NO 33 ° 0 min 21 W/m² 0,3 °C 1,0 °C 1,6 km/h (1 Bft)
04.12.2022 14:18 22,3 °C 1,0 °C 51 % 95 % 1017,8 hPa 0,2 l/m² 3,7 km/h (1 Bft) O-NO 69 ° 0 min 19 W/m² 0,3 °C 1,0 °C 6,4 km/h (2 Bft)
04.12.2022 14:20 22,2 °C 1,0 °C 51 % 95 % 1017,8 hPa 0,0 l/m² 0,1 km/h (0 Bft) O-NO 71 ° 0 min 21 W/m² 0,3 °C 1,0 °C 1,6 km/h (1 Bft)
04.12.2022 14:22 22,2 °C 1,0 °C 51 % 95 % 1017,7 hPa 0,0 l/m² 0,0 km/h (0 Bft) O-NO 71 ° 0 min 21 W/m² 0,3 °C 1,0 °C 0,0 km/h (0 Bft)
04.12.2022 14:23 22,2 °C 1,0 °C 51 % 95 % 1017,7 hPa 0,0 l/m² 0,0 km/h (0 Bft) O-NO 71 ° 0 min 23 W/m² 0,3 °C 1,0 °C 0,0 km/h (0 Bft)
04.12.2022 14:24 22,2 °C 1,0 °C 51 % 95 % 1017,8 hPa 0,0 l/m² 0,3 km/h (0 Bft) N-NO 30 ° 0 min 21 W/m² 0,3 °C 1,0 °C 1,6 km/h (1 Bft)
04.12.2022 14:26 22,2 °C 1,0 °C 51 % 95 % 1017,7 hPa 0,0 l/m² 0,6 km/h (0 Bft) N 360 ° 0 min 21 W/m² 0,3 °C 1,0 °C 3,2 km/h (1 Bft)
04.12.2022 14:28 22,2 °C 1,0 °C 51 % 95 % 1017,7 hPa 0,0 l/m² 2,0 km/h (1 Bft) N-NW 346 ° 0 min 21 W/m² 0,3 °C 1,0 °C 6,4 km/h (2 Bft)
04.12.2022 14:30 22,2 °C 1,0 °C 51 % 95 % 1017,6 hPa 0,0 l/m² 1,1 km/h (1 Bft) N 5 ° 0 min 21 W/m² 0,3 °C 1,0 °C 4,8 km/h (1 Bft)
04.12.2022 14:32 22,2 °C 1,0 °C 51 % 95 % 1017,6 hPa 0,0 l/m² 0,1 km/h (0 Bft) N 5 ° 0 min 19 W/m² 0,3 °C 1,0 °C 1,6 km/h (1 Bft)
04.12.2022 14:33 22,2 °C 1,0 °C 51 % 95 % 1017,6 hPa 0,0 l/m² 0,0 km/h (0 Bft) N 5 ° 0 min 19 W/m² 0,3 °C 1,0 °C 0,0 km/h (0 Bft)
04.12.2022 14:34 22,2 °C 1,0 °C 51 % 95 % 1017,6 hPa 0,0 l/m² 2,1 km/h (1 Bft) O-NO 59 ° 0 min 19 W/m² 0,3 °C 1,0 °C 6,4 km/h (2 Bft)
04.12.2022 14:36 22,2 °C 1,0 °C 51 % 95 % 1017,6 hPa 0,0 l/m² 0,2 km/h (0 Bft) N-NO 17 ° 0 min 18 W/m² 0,3 °C 1,0 °C 3,2 km/h (1 Bft)
04.12.2022 14:38 22,2 °C 1,0 °C 51 % 95 % 1017,6 hPa 0,2 l/m² 0,3 km/h (0 Bft) N-NO 22 ° 0 min 18 W/m² 0,3 °C 1,0 °C 1,6 km/h (1 Bft)
04.12.2022 14:40 22,2 °C 1,0 °C 51 % 95 % 1017,6 hPa 0,0 l/m² 2,0 km/h (1 Bft) N 355 ° 0 min 18 W/m² 0,3 °C 1,0 °C 6,4 km/h (2 Bft)
04.12.2022 14:42 22,2 °C 1,0 °C 51 % 95 % 1017,5 hPa 0,0 l/m² 0,7 km/h (0 Bft) N 355 ° 0 min 18 W/m² 0,3 °C 1,0 °C 3,2 km/h (1 Bft)
04.12.2022 14:43 22,2 °C 1,0 °C 51 % 95 % 1017,5 hPa 0,0 l/m² 1,4 km/h (1 Bft) N-NO 21 ° 0 min 18 W/m² 0,3 °C 1,0 °C 4,8 km/h (1 Bft)
04.12.2022 14:44 22,2 °C 1,0 °C 51 % 95 % 1017,5 hPa 0,0 l/m² 0,6 km/h (0 Bft) N-NO 17 ° 0 min 16 W/m² 0,3 °C 1,0 °C 3,2 km/h (1 Bft)
04.12.2022 14:46 22,2 °C 1,0 °C 51 % 95 % 1017,5 hPa 0,0 l/m² 2,3 km/h (1 Bft) N-NO 31 ° 0 min 18 W/m² 0,3 °C 1,0 °C 6,4 km/h (2 Bft)
04.12.2022 14:48 22,2 °C 1,0 °C 51 % 95 % 1017,4 hPa 0,0 l/m² 1,8 km/h (1 Bft) O-NO 57 ° 0 min 16 W/m² 0,3 °C 1,0 °C 6,4 km/h (2 Bft)
04.12.2022 14:50 22,2 °C 1,0 °C 51 % 95 % 1017,5 hPa 0,0 l/m² 0,9 km/h (0 Bft) NW 321 ° 0 min 14 W/m² 0,3 °C 1,0 °C 8,0 km/h (2 Bft)
04.12.2022 14:52 22,2 °C 1,0 °C 51 % 95 % 1017,6 hPa 0,0 l/m² 0,6 km/h (0 Bft) O-NO 78 ° 0 min 14 W/m² 0,3 °C 1,0 °C 3,2 km/h (1 Bft)
04.12.2022 14:53 22,2 °C 1,0 °C 51 % 95 % 1017,6 hPa 0,0 l/m² 3,0 km/h (1 Bft) NO 52 ° 0 min 14 W/m² 0,3 °C 1,0 °C 6,4 km/h (2 Bft)
04.12.2022 14:54 22,2 °C 0,9 °C 51 % 95 % 1017,5 hPa 0,0 l/m² 2,2 km/h (1 Bft) N-NO 27 ° 0 min 12 W/m² 0,2 °C 0,9 °C 4,8 km/h (1 Bft)
04.12.2022 14:56 22,2 °C 0,9 °C 51 % 95 % 1017,5 hPa 0,2 l/m² 2,7 km/h (1 Bft) N-NO 18 ° 0 min 12 W/m² 0,2 °C 0,9 °C 8,0 km/h (2 Bft)
04.12.2022 14:58 22,2 °C 0,9 °C 51 % 95 % 1017,5 hPa 0,0 l/m² 1,1 km/h (1 Bft) NO 50 ° 0 min 12 W/m² 0,2 °C 0,9 °C 6,4 km/h (2 Bft)
04.12.2022 15:00 22,2 °C 1,0 °C 51 % 95 % 1017,4 hPa 0,0 l/m² 5,0 km/h (1 Bft) N 11 ° 0 min 11 W/m² 0,3 °C 1,0 °C 12,9 km/h (3 Bft)
04.12.2022 15:02 22,2 °C 0,9 °C 51 % 95 % 1017,5 hPa 0,0 l/m² 0,4 km/h (0 Bft) N-NO 25 ° 0 min 11 W/m² 0,2 °C 0,9 °C 1,6 km/h (1 Bft)
04.12.2022 15:03 22,2 °C 0,9 °C 51 % 95 % 1017,5 hPa 0,0 l/m² 3,3 km/h (1 Bft) NO 34 ° 0 min 11 W/m² 0,2 °C 0,9 °C 6,4 km/h (2 Bft)
04.12.2022 15:04 22,2 °C 0,9 °C 51 % 95 % 1017,6 hPa 0,0 l/m² 1,3 km/h (1 Bft) N-NO 18 ° 0 min 11 W/m² 0,2 °C 0,9 °C 3,2 km/h (1 Bft)
04.12.2022 15:06 22,2 °C 0,9 °C 51 % 95 % 1017,6 hPa 0,0 l/m² 3,2 km/h (1 Bft) O-NO 74 ° 0 min 9 W/m² 0,2 °C 0,9 °C 8,0 km/h (2 Bft)
04.12.2022 15:08 22,2 °C 0,9 °C 51 % 95 % 1017,6 hPa 0,0 l/m² 2,9 km/h (1 Bft) N 355 ° 0 min 9 W/m² 0,2 °C 0,9 °C 8,0 km/h (2 Bft)
04.12.2022 15:10 22,2 °C 0,9 °C 51 % 95 % 1017,6 hPa 0,0 l/m² 0,9 km/h (0 Bft) N 355 ° 0 min 9 W/m² 0,2 °C 0,9 °C 4,8 km/h (1 Bft)
04.12.2022 15:11 22,3 °C 0,9 °C 51 % 95 % 1017,6 hPa 0,0 l/m² 0,0 km/h (0 Bft) N 0 ° 0 min 9 W/m² 0,2 °C 0,9 °C 0,0 km/h (0 Bft)
04.12.2022 15:12 22,3 °C 0,9 °C 51 % 95 % 1017,6 hPa 0,0 l/m² 0,0 km/h (0 Bft) N 0 ° 0 min 9 W/m² 0,2 °C 0,9 °C 0,0 km/h (0 Bft)
04.12.2022 15:18 22,3 °C 0,9 °C 51 % 95 % 1017,6 hPa 0,2 l/m² 0,0 km/h (0 Bft) O-NO 65 ° 0 min 11 W/m² 0,2 °C 0,9 °C 0,0 km/h (0 Bft)
04.12.2022 15:20 22,3 °C 0,9 °C 52 % 95 % 1017,7 hPa 0,0 l/m² 0,9 km/h (0 Bft) O-NO 67 ° 0 min 9 W/m² 0,2 °C 0,9 °C 3,2 km/h (1 Bft)
04.12.2022 15:22 22,4 °C 0,9 °C 52 % 95 % 1017,7 hPa 0,0 l/m² 0,3 km/h (0 Bft) NO 51 ° 0 min 9 W/m² 0,2 °C 0,9 °C 3,2 km/h (1 Bft)
04.12.2022 15:23 22,4 °C 0,9 °C 51 % 95 % 1017,7 hPa 0,0 l/m² 0,2 km/h (0 Bft) O-NO 62 ° 0 min 9 W/m² 0,2 °C 0,9 °C 1,6 km/h (1 Bft)
04.12.2022 15:24 22,4 °C 0,9 °C 51 % 95 % 1017,6 hPa 0,0 l/m² 1,4 km/h (1 Bft) NO 37 ° 0 min 9 W/m² 0,2 °C 0,9 °C 4,8 km/h (1 Bft)
04.12.2022 15:26 22,4 °C 0,9 °C 51 % 95 % 1017,6 hPa 0,0 l/m² 2,3 km/h (1 Bft) N-NO 17 ° 0 min 7 W/m² 0,2 °C 0,9 °C 6,4 km/h (2 Bft)
04.12.2022 15:28 22,4 °C 0,9 °C 51 % 95 % 1017,6 hPa 0,0 l/m² 1,8 km/h (1 Bft) O-NO 74 ° 0 min 5 W/m² 0,2 °C 0,9 °C 6,4 km/h (2 Bft)
04.12.2022 15:30 22,4 °C 0,9 °C 51 % 95 % 1017,6 hPa 0,0 l/m² 0,6 km/h (0 Bft) O-NO 61 ° 0 min 5 W/m² 0,2 °C 0,9 °C 3,2 km/h (1 Bft)
04.12.2022 15:31 22,4 °C 0,9 °C 51 % 95 % 1017,7 hPa 0,0 l/m² 0,0 km/h (0 Bft) O-NO 61 ° 0 min 5 W/m² 0,2 °C 0,9 °C 0,0 km/h (0 Bft)
04.12.2022 15:32 22,4 °C 0,9 °C 51 % 95 % 1017,6 hPa 0,0 l/m² 1,7 km/h (1 Bft) O 80 ° 0 min 5 W/m² 0,2 °C 0,9 °C 4,8 km/h (1 Bft)
04.12.2022 15:33 22,5 °C 0,9 °C 51 % 95 % 1017,7 hPa 0,0 l/m² 0,1 km/h (0 Bft) O 80 ° 0 min 5 W/m² 0,2 °C 0,9 °C 1,6 km/h (1 Bft)
04.12.2022 15:34 22,5 °C 0,9 °C 51 % 95 % 1017,7 hPa 0,0 l/m² 2,3 km/h (1 Bft) N-NO 33 ° 0 min 5 W/m² 0,2 °C 0,9 °C 6,4 km/h (2 Bft)
04.12.2022 15:36 22,5 °C 0,9 °C 52 % 95 % 1017,6 hPa 0,0 l/m² 0,3 km/h (0 Bft) NO 44 ° 0 min 0 W/m² 0,2 °C 0,9 °C 3,2 km/h (1 Bft)
04.12.2022 15:38 22,6 °C 0,9 °C 52 % 95 % 1017,6 hPa 0,2 l/m² 0,6 km/h (0 Bft) NO 53 ° 0 min 0 W/m² 0,2 °C 0,9 °C 3,2 km/h (1 Bft)
04.12.2022 15:40 22,6 °C 0,9 °C 52 % 95 % 1017,6 hPa 0,0 l/m² 2,2 km/h (1 Bft) NO 41 ° 0 min 0 W/m² 0,2 °C 0,9 °C 9,7 km/h (2 Bft)
04.12.2022 15:41 22,6 °C 0,9 °C 52 % 95 % 1017,7 hPa 0,0 l/m² 3,5 km/h (1 Bft) N-NO 28 ° 0 min 0 W/m² 0,2 °C 0,9 °C 8,0 km/h (2 Bft)
04.12.2022 15:42 22,6 °C 0,9 °C 52 % 95 % 1017,7 hPa 0,0 l/m² 0,0 km/h (0 Bft) N-NO 28 ° 0 min 0 W/m² 0,2 °C 0,9 °C 0,0 km/h (0 Bft)
04.12.2022 15:43 22,6 °C 0,9 °C 52 % 95 % 1017,6 hPa 0,0 l/m² 0,7 km/h (0 Bft) NO 42 ° 0 min 0 W/m² 0,2 °C 0,9 °C 3,2 km/h (1 Bft)
04.12.2022 15:45 22,6 °C 0,9 °C 52 % 95 % 1017,6 hPa 0,0 l/m² 0,3 km/h (0 Bft) NO 35 ° 0 min 0 W/m² 0,2 °C 0,9 °C 3,2 km/h (1 Bft)
04.12.2022 15:46 22,6 °C 0,9 °C 52 % 95 % 1017,6 hPa 0,0 l/m² 0,1 km/h (0 Bft) N-NO 23 ° 0 min 0 W/m² 0,2 °C 0,9 °C 1,6 km/h (1 Bft)
04.12.2022 15:48 22,6 °C 0,9 °C 52 % 95 % 1017,7 hPa 0,0 l/m² 2,4 km/h (1 Bft) O-NO 70 ° 0 min 0 W/m² 0,2 °C 0,9 °C 4,8 km/h (1 Bft)
04.12.2022 15:50 22,6 °C 0,9 °C 52 % 95 % 1017,8 hPa 0,0 l/m² 1,7 km/h (1 Bft) N-NO 30 ° 0 min 0 W/m² 0,2 °C 0,9 °C 4,8 km/h (1 Bft)
04.12.2022 15:51 22,6 °C 0,9 °C 52 % 95 % 1017,8 hPa 0,0 l/m² 0,4 km/h (0 Bft) N-NO 30 ° 0 min 0 W/m² 0,2 °C 0,9 °C 1,6 km/h (1 Bft)
04.12.2022 15:52 22,6 °C 0,9 °C 52 % 95 % 1017,8 hPa 0,0 l/m² 1,9 km/h (1 Bft) O-NO 72 ° 0 min 0 W/m² 0,2 °C 0,9 °C 4,8 km/h (1 Bft)
04.12.2022 15:53 22,7 °C 0,9 °C 52 % 95 % 1017,8 hPa 0,0 l/m² 0,1 km/h (0 Bft) O-NO 63 ° 0 min 0 W/m² 0,2 °C 0,9 °C 1,6 km/h (1 Bft)
04.12.2022 15:54 22,7 °C 0,9 °C 52 % 95 % 1017,7 hPa 0,0 l/m² 1,3 km/h (1 Bft) NO 36 ° 0 min 0 W/m² 0,2 °C 0,9 °C 3,2 km/h (1 Bft)
04.12.2022 15:56 22,7 °C 0,9 °C 52 % 95 % 1017,7 hPa 0,0 l/m² 3,6 km/h (1 Bft) N-NO 31 ° 0 min 0 W/m² 0,2 °C 0,9 °C 8,0 km/h (2 Bft)
04.12.2022 15:58 22,7 °C 0,9 °C 52 % 95 % 1017,8 hPa 0,0 l/m² 4,4 km/h (1 Bft) NO 51 ° 0 min 0 W/m² 0,2 °C 0,9 °C 9,7 km/h (2 Bft)
04.12.2022 16:00 22,7 °C 0,9 °C 52 % 95 % 1017,7 hPa 0,0 l/m² 1,5 km/h (1 Bft) N-NO 30 ° 0 min 0 W/m² 0,2 °C 0,9 °C 4,8 km/h (1 Bft)
04.12.2022 16:01 22,7 °C 0,9 °C 52 % 95 % 1017,8 hPa 0,0 l/m² 4,4 km/h (1 Bft) N-NO 25 ° 0 min 0 W/m² 0,2 °C 0,9 °C 6,4 km/h (2 Bft)
04.12.2022 16:02 22,7 °C 0,9 °C 52 % 95 % 1017,8 hPa 0,0 l/m² 1,6 km/h (1 Bft) N 5 ° 0 min 0 W/m² 0,2 °C 0,9 °C 4,8 km/h (1 Bft)
04.12.2022 16:03 22,7 °C 0,9 °C 52 % 95 % 1017,8 hPa 0,2 l/m² 0,5 km/h (0 Bft) N-NO 17 ° 0 min 0 W/m² 0,2 °C 0,9 °C 1,6 km/h (1 Bft)
04.12.2022 16:04 22,7 °C 1,0 °C 52 % 95 % 1017,8 hPa 0,0 l/m² 4,0 km/h (1 Bft) NO 34 ° 0 min 0 W/m² 0,3 °C 1,0 °C 8,0 km/h (2 Bft)
04.12.2022 16:06 22,7 °C 0,9 °C 52 % 95 % 1017,7 hPa 0,0 l/m² 2,7 km/h (1 Bft) NO 39 ° 0 min 0 W/m² 0,2 °C 0,9 °C 8,0 km/h (2 Bft)
04.12.2022 16:08 22,7 °C 0,9 °C 52 % 95 % 1017,7 hPa 0,0 l/m² 2,0 km/h (1 Bft) NO 50 ° 0 min 0 W/m² 0,2 °C 0,9 °C 4,8 km/h (1 Bft)
04.12.2022 16:10 22,7 °C 0,9 °C 52 % 95 % 1017,7 hPa 0,0 l/m² 1,8 km/h (1 Bft) O-NO 59 ° 0 min 0 W/m² 0,2 °C 0,9 °C 4,8 km/h (1 Bft)
04.12.2022 16:11 22,7 °C 0,9 °C 52 % 95 % 1017,7 hPa 0,0 l/m² 1,9 km/h (1 Bft) O-NO 62 ° 0 min 0 W/m² 0,2 °C 0,9 °C 6,4 km/h (2 Bft)
04.12.2022 16:12 22,7 °C 0,9 °C 52 % 95 % 1017,7 hPa 0,0 l/m² 4,9 km/h (1 Bft) O-NO 63 ° 0 min 0 W/m² 0,2 °C 0,9 °C 8,0 km/h (2 Bft)
04.12.2022 16:13 22,7 °C 0,9 °C 52 % 95 % 1017,6 hPa 0,0 l/m² 4,4 km/h (1 Bft) NO 56 ° 0 min 0 W/m² 0,2 °C 0,9 °C 8,0 km/h (2 Bft)
04.12.2022 16:14 22,7 °C 0,9 °C 52 % 95 % 1017,7 hPa 0,0 l/m² 0,6 km/h (0 Bft) NO 49 ° 0 min 0 W/m² 0,2 °C 0,9 °C 1,6 km/h (1 Bft)
04.12.2022 16:16 22,8 °C 0,9 °C 52 % 95 % 1017,7 hPa 0,0 l/m² 1,7 km/h (1 Bft) N-NO 20 ° 0 min 0 W/m² 0,2 °C 0,9 °C 6,4 km/h (2 Bft)
04.12.2022 16:18 22,7 °C 0,9 °C 52 % 95 % 1017,6 hPa 0,0 l/m² 2,6 km/h (1 Bft) NO 53 ° 0 min 0 W/m² 0,2 °C 0,9 °C 6,4 km/h (2 Bft)
04.12.2022 16:20 22,8 °C 0,9 °C 52 % 95 % 1017,6 hPa 0,0 l/m² 1,0 km/h (0 Bft) NO 34 ° 0 min 0 W/m² 0,2 °C 0,9 °C 4,8 km/h (1 Bft)
04.12.2022 16:21 22,8 °C 0,9 °C 52 % 95 % 1017,6 hPa 0,0 l/m² 0,3 km/h (0 Bft) N-NO 30 ° 0 min 0 W/m² 0,2 °C 0,9 °C 1,6 km/h (1 Bft)
04.12.2022 16:22 22,7 °C 0,9 °C 52 % 95 % 1017,6 hPa 0,0 l/m² 0,1 km/h (0 Bft) O-NO 61 ° 0 min 0 W/m² 0,2 °C 0,9 °C 1,6 km/h (1 Bft)
04.12.2022 16:23 22,8 °C 0,9 °C 52 % 95 % 1017,7 hPa 0,2 l/m² 2,6 km/h (1 Bft) O 79 ° 0 min 0 W/m² 0,2 °C 0,9 °C 8,0 km/h (2 Bft)
04.12.2022 16:24 22,8 °C 0,9 °C 52 % 95 % 1017,7 hPa 0,0 l/m² 4,3 km/h (1 Bft) O-NO 61 ° 0 min 0 W/m² 0,2 °C 0,9 °C 8,0 km/h (2 Bft)
04.12.2022 16:26 22,8 °C 0,9 °C 52 % 95 % 1017,6 hPa 0,0 l/m² 2,2 km/h (1 Bft) NO 38 ° 0 min 0 W/m² 0,2 °C 0,9 °C 6,4 km/h (2 Bft)
04.12.2022 16:28 22,8 °C 0,9 °C 52 % 95 % 1017,7 hPa 0,0 l/m² 0,9 km/h (0 Bft) O-NO 71 ° 0 min 0 W/m² 0,2 °C 0,9 °C 4,8 km/h (1 Bft)
04.12.2022 16:30 22,8 °C 0,9 °C 52 % 95 % 1017,6 hPa 0,0 l/m² 3,5 km/h (1 Bft) O-NO 67 ° 0 min 0 W/m² 0,2 °C 0,9 °C 8,0 km/h (2 Bft)
04.12.2022 16:31 22,8 °C 0,9 °C 52 % 95 % 1017,7 hPa 0,0 l/m² 3,1 km/h (1 Bft) NO 55 ° 0 min 0 W/m² 0,2 °C 0,9 °C 8,0 km/h (2 Bft)
04.12.2022 16:32 22,8 °C 0,9 °C 52 % 95 % 1017,6 hPa 0,0 l/m² 1,0 km/h (0 Bft) N 11 ° 0 min 0 W/m² 0,2 °C 0,9 °C 3,2 km/h (1 Bft)
04.12.2022 16:33 22,8 °C 0,9 °C 52 % 95 % 1017,6 hPa 0,0 l/m² 0,0 km/h (0 Bft) N 11 ° 0 min 0 W/m² 0,2 °C 0,9 °C 0,0 km/h (0 Bft)
04.12.2022 16:34 22,8 °C 0,9 °C 52 % 95 % 1017,7 hPa 0,0 l/m² 1,0 km/h (0 Bft) N 355 ° 0 min 0 W/m² 0,2 °C 0,9 °C 3,2 km/h (1 Bft)
04.12.2022 16:36 22,8 °C 0,9 °C 52 % 95 % 1017,7 hPa 0,0 l/m² 0,2 km/h (0 Bft) N-NO 19 ° 0 min 0 W/m² 0,2 °C 0,9 °C 1,6 km/h (1 Bft)
04.12.2022 16:38 22,8 °C 1,0 °C 52 % 95 % 1017,7 hPa 0,0 l/m² 0,2 km/h (0 Bft) N-NO 25 ° 0 min 0 W/m² 0,3 °C 1,0 °C 1,6 km/h (1 Bft)
04.12.2022 16:40 22,8 °C 1,0 °C 52 % 95 % 1017,6 hPa 0,0 l/m² 1,9 km/h (1 Bft) NO 54 ° 0 min 0 W/m² 0,3 °C 1,0 °C 6,4 km/h (2 Bft)
04.12.2022 16:41 22,8 °C 0,9 °C 52 % 95 % 1017,6 hPa 0,0 l/m² 3,6 km/h (1 Bft) N-NO 22 ° 0 min 0 W/m² 0,2 °C 0,9 °C 9,7 km/h (2 Bft)
04.12.2022 16:42 22,8 °C 0,9 °C 52 % 95 % 1017,6 hPa 0,0 l/m² 4,1 km/h (1 Bft) N-NO 19 ° 0 min 0 W/m² 0,2 °C 0,9 °C 6,4 km/h (2 Bft)
04.12.2022 16:43 22,8 °C 1,0 °C 52 % 95 % 1017,6 hPa 0,0 l/m² 2,3 km/h (1 Bft) N-NO 28 ° 0 min 0 W/m² 0,3 °C 1,0 °C 3,2 km/h (1 Bft)
04.12.2022 16:44 22,8 °C 0,9 °C 52 % 95 % 1017,6 hPa 0,0 l/m² 0,0 km/h (0 Bft) N-NO 28 ° 0 min 0 W/m² 0,2 °C 0,9 °C 0,0 km/h (0 Bft)
04.12.2022 16:46 22,8 °C 0,9 °C 52 % 95 % 1017,6 hPa 0,0 l/m² 1,0 km/h (0 Bft) N-NO 32 ° 0 min 0 W/m² 0,2 °C 0,9 °C 6,4 km/h (2 Bft)
04.12.2022 16:48 22,8 °C 1,0 °C 52 % 95 % 1017,5 hPa 0,2 l/m² 0,4 km/h (0 Bft) NO 50 ° 0 min 0 W/m² 0,3 °C 1,0 °C 4,8 km/h (1 Bft)
04.12.2022 16:50 22,8 °C 0,9 °C 52 % 95 % 1017,5 hPa 0,0 l/m² 3,6 km/h (1 Bft) NO 50 ° 0 min 0 W/m² 0,2 °C 0,9 °C 8,0 km/h (2 Bft)
04.12.2022 16:51 22,8 °C 0,9 °C 52 % 95 % 1017,6 hPa 0,0 l/m² 1,6 km/h (1 Bft) NO 51 ° 0 min 0 W/m² 0,2 °C 0,9 °C 4,8 km/h (1 Bft)
04.12.2022 16:52 22,8 °C 1,0 °C 52 % 95 % 1017,6 hPa 0,0 l/m² 0,7 km/h (0 Bft) N-NO 22 ° 0 min 0 W/m² 0,3 °C 1,0 °C 1,6 km/h (1 Bft)
04.12.2022 16:54 22,7 °C 0,9 °C 52 % 95 % 1017,5 hPa 0,0 l/m² 1,0 km/h (0 Bft) N-NO 27 ° 0 min 0 W/m² 0,2 °C 0,9 °C 4,8 km/h (1 Bft)
04.12.2022 16:55 22,8 °C 0,9 °C 52 % 95 % 1017,4 hPa 0,0 l/m² 5,4 km/h (2 Bft) N 9 ° 0 min 0 W/m² 0,2 °C 0,9 °C 12,9 km/h (3 Bft)
04.12.2022 16:57 22,8 °C 0,9 °C 52 % 95 % 1017,3 hPa 0,0 l/m² 1,9 km/h (1 Bft) NO 41 ° 0 min 0 W/m² 0,2 °C 0,9 °C 8,0 km/h (2 Bft)
04.12.2022 16:59 22,7 °C 0,9 °C 52 % 95 % 1017,3 hPa 0,0 l/m² 1,3 km/h (1 Bft) N-NO 17 ° 0 min 0 W/m² 0,2 °C 0,9 °C 4,8 km/h (1 Bft)
04.12.2022 17:00 22,7 °C 0,9 °C 52 % 95 % 1017,4 hPa 0,0 l/m² 1,5 km/h (1 Bft) NO 45 ° 0 min 0 W/m² 0,2 °C 0,9 °C 3,2 km/h (1 Bft)
04.12.2022 17:01 22,7 °C 1,0 °C 52 % 95 % 1017,4 hPa 0,0 l/m² 2,8 km/h (1 Bft) NO 37 ° 0 min 0 W/m² 0,3 °C 1,0 °C 8,0 km/h (2 Bft)
04.12.2022 17:02 22,7 °C 1,0 °C 52 % 95 % 1017,4 hPa 0,0 l/m² 2,1 km/h (1 Bft) NO 34 ° 0 min 0 W/m² 0,3 °C 1,0 °C 4,8 km/h (1 Bft)
04.12.2022 17:03 22,7 °C 1,0 °C 52 % 95 % 1017,4 hPa 0,0 l/m² 4,4 km/h (1 Bft) NO 34 ° 0 min 0 W/m² 0,3 °C 1,0 °C 6,4 km/h (2 Bft)
04.12.2022 17:04 22,7 °C 1,0 °C 52 % 95 % 1017,5 hPa 0,0 l/m² 3,1 km/h (1 Bft) NO 34 ° 0 min 0 W/m² 0,3 °C 1,0 °C 6,4 km/h (2 Bft)
04.12.2022 17:06 22,7 °C 1,0 °C 51 % 95 % 1017,5 hPa 0,0 l/m² 1,9 km/h (1 Bft) NO 49 ° 0 min 0 W/m² 0,3 °C 1,0 °C 6,4 km/h (2 Bft)
04.12.2022 17:08 22,7 °C 1,0 °C 47 % 95 % 1017,4 hPa 0,0 l/m² 0,6 km/h (0 Bft) N 355 ° 0 min 0 W/m² 0,3 °C 1,0 °C 3,2 km/h (1 Bft)
04.12.2022 17:10 22,6 °C 1,0 °C 47 % 95 % 1017,4 hPa 0,0 l/m² 0,1 km/h (0 Bft) N 360 ° 0 min 0 W/m² 0,3 °C 1,0 °C 1,6 km/h (1 Bft)
04.12.2022 17:11 22,5 °C 1,0 °C 47 % 95 % 1017,5 hPa 0,0 l/m² 0,0 km/h (0 Bft) N 11 ° 0 min 0 W/m² 0,3 °C 1,0 °C 0,0 km/h (0 Bft)
04.12.2022 17:12 22,6 °C 1,0 °C 47 % 95 % 1017,5 hPa 0,0 l/m² 0,8 km/h (0 Bft) N 360 ° 0 min 0 W/m² 0,3 °C 1,0 °C 3,2 km/h (1 Bft)
04.12.2022 17:13 22,6 °C 1,0 °C 47 % 95 % 1017,3 hPa 0,0 l/m² 2,1 km/h (1 Bft) N-NO 32 ° 0 min 0 W/m² 0,3 °C 1,0 °C 6,4 km/h (2 Bft)
04.12.2022 17:14 22,4 °C 0,9 °C 47 % 95 % 1017,3 hPa 0,0 l/m² 3,8 km/h (1 Bft) NO 38 ° 0 min 0 W/m² 0,2 °C 0,9 °C 9,7 km/h (2 Bft)
04.12.2022 17:16 22,4 °C 1,0 °C 48 % 95 % 1017,3 hPa 0,2 l/m² 2,3 km/h (1 Bft) NO 51 ° 0 min 0 W/m² 0,3 °C 1,0 °C 6,4 km/h (2 Bft)
04.12.2022 17:18 22,4 °C 1,0 °C 48 % 95 % 1017,4 hPa 0,0 l/m² 1,7 km/h (1 Bft) N-NW 339 ° 0 min 0 W/m² 0,3 °C 1,0 °C 6,4 km/h (2 Bft)
04.12.2022 17:20 22,4 °C 1,0 °C 48 % 95 % 1017,5 hPa 0,0 l/m² 1,7 km/h (1 Bft) NO 38 ° 0 min 0 W/m² 0,3 °C 1,0 °C 8,0 km/h (2 Bft)
04.12.2022 17:21 22,4 °C 1,0 °C 48 % 95 % 1017,4 hPa 0,0 l/m² 0,2 km/h (0 Bft) NO 38 ° 0 min 0 W/m² 0,3 °C 1,0 °C 1,6 km/h (1 Bft)
04.12.2022 17:22 22,4 °C 1,0 °C 49 % 95 % 1017,4 hPa 0,0 l/m² 0,1 km/h (0 Bft) NO 47 ° 0 min 0 W/m² 0,3 °C 1,0 °C 1,6 km/h (1 Bft)
04.12.2022 17:23 22,4 °C 1,0 °C 49 % 95 % 1017,4 hPa 0,0 l/m² 0,7 km/h (0 Bft) NO 55 ° 0 min 0 W/m² 0,3 °C 1,0 °C 3,2 km/h (1 Bft)
04.12.2022 17:24 22,4 °C 1,0 °C 49 % 95 % 1017,4 hPa 0,0 l/m² 2,7 km/h (1 Bft) N-NO 32 ° 0 min 0 W/m² 0,3 °C 1,0 °C 6,4 km/h (2 Bft)
04.12.2022 17:26 22,4 °C 1,0 °C 49 % 95 % 1017,4 hPa 0,0 l/m² 3,0 km/h (1 Bft) N-NW 338 ° 0 min 0 W/m² 0,3 °C 1,0 °C 6,4 km/h (2 Bft)
04.12.2022 17:28 22,3 °C 1,0 °C 46 % 95 % 1017,4 hPa 0,0 l/m² 0,8 km/h (0 Bft) N-NO 27 ° 0 min 0 W/m² 0,3 °C 1,0 °C 3,2 km/h (1 Bft)
04.12.2022 17:30 22,3 °C 1,0 °C 42 % 95 % 1017,4 hPa 0,0 l/m² 0,0 km/h (0 Bft) N-NO 27 ° 0 min 0 W/m² 0,3 °C 1,0 °C 0,0 km/h (0 Bft)
04.12.2022 17:31 22,2 °C 1,0 °C 40 % 95 % 1017,3 hPa 0,0 l/m² 0,6 km/h (0 Bft) O-NO 63 ° 0 min 0 W/m² 0,3 °C 1,0 °C 4,8 km/h (1 Bft)
04.12.2022 17:32 22,2 °C 1,0 °C 40 % 95 % 1017,3 hPa 0,0 l/m² 0,2 km/h (0 Bft) O-NO 59 ° 0 min 0 W/m² 0,3 °C 1,0 °C 1,6 km/h (1 Bft)
04.12.2022 17:33 22,1 °C 1,0 °C 40 % 95 % 1017,2 hPa 0,0 l/m² 2,7 km/h (1 Bft) NO 43 ° 0 min 0 W/m² 0,3 °C 1,0 °C 8,0 km/h (2 Bft)
04.12.2022 17:34 22,1 °C 1,0 °C 41 % 95 % 1017,3 hPa 0,0 l/m² 2,7 km/h (1 Bft) NO 55 ° 0 min 0 W/m² 0,3 °C 1,0 °C 4,8 km/h (1 Bft)
04.12.2022 17:36 22,0 °C 1,1 °C 42 % 95 % 1017,2 hPa 0,0 l/m² 1,0 km/h (0 Bft) NO 45 ° 0 min 0 W/m² 0,4 °C 1,1 °C 6,4 km/h (2 Bft)
04.12.2022 17:38 21,9 °C 1,1 °C 42 % 95 % 1017,2 hPa 0,2 l/m² 1,7 km/h (1 Bft) O-NO 57 ° 0 min 0 W/m² 0,4 °C 1,1 °C 8,0 km/h (2 Bft)
04.12.2022 17:40 21,9 °C 1,1 °C 43 % 95 % 1017,1 hPa 0,0 l/m² 0,4 km/h (0 Bft) NO 51 ° 0 min 0 W/m² 0,4 °C 1,1 °C 4,8 km/h (1 Bft)
04.12.2022 17:41 21,9 °C 1,1 °C 43 % 95 % 1017,1 hPa 0,0 l/m² 0,0 km/h (0 Bft) NO 50 ° 0 min 0 W/m² 0,4 °C 1,1 °C 0,0 km/h (0 Bft)
04.12.2022 17:42 21,9 °C 1,0 °C 44 % 95 % 1017,2 hPa 0,0 l/m² 0,1 km/h (0 Bft) NO 51 ° 0 min 0 W/m² 0,3 °C 1,0 °C 1,6 km/h (1 Bft)
04.12.2022 17:43 21,9 °C 1,0 °C 44 % 95 % 1017,1 hPa 0,0 l/m² 2,1 km/h (1 Bft) O-NO 66 ° 0 min 0 W/m² 0,3 °C 1,0 °C 4,8 km/h (1 Bft)
04.12.2022 17:44 21,9 °C 1,0 °C 44 % 95 % 1017,1 hPa 0,0 l/m² 0,6 km/h (0 Bft) N-NO 31 ° 0 min 0 W/m² 0,3 °C 1,0 °C 3,2 km/h (1 Bft)
04.12.2022 17:46 21,8 °C 1,0 °C 44 % 95 % 1017,2 hPa 0,0 l/m² 1,8 km/h (1 Bft) N-NW 343 ° 0 min 0 W/m² 0,3 °C 1,0 °C 6,4 km/h (2 Bft)
04.12.2022 17:48 21,9 °C 1,1 °C 45 % 95 % 1017,2 hPa 0,0 l/m² 0,6 km/h (0 Bft) N-NW 342 ° 0 min 0 W/m² 0,4 °C 1,1 °C 3,2 km/h (1 Bft)
04.12.2022 17:50 21,9 °C 1,1 °C 45 % 95 % 1017,3 hPa 0,0 l/m² 0,7 km/h (0 Bft) N-NW 327 ° 0 min 0 W/m² 0,4 °C 1,1 °C 3,2 km/h (1 Bft)
04.12.2022 17:51 21,9 °C 1,0 °C 45 % 95 % 1017,2 hPa 0,0 l/m² 2,9 km/h (1 Bft) N-NO 22 ° 0 min 0 W/m² 0,3 °C 1,0 °C 6,4 km/h (2 Bft)
04.12.2022 17:52 21,9 °C 1,1 °C 45 % 95 % 1017,1 hPa 0,0 l/m² 4,1 km/h (1 Bft) N-NO 18 ° 0 min 0 W/m² 0,4 °C 1,1 °C 6,4 km/h (2 Bft)
04.12.2022 17:53 21,9 °C 1,1 °C 46 % 95 % 1017,2 hPa 0,0 l/m² 1,9 km/h (1 Bft) N 5 ° 0 min 0 W/m² 0,4 °C 1,1 °C 4,8 km/h (1 Bft)
04.12.2022 17:54 21,9 °C 1,0 °C 46 % 95 % 1017,2 hPa 0,0 l/m² 0,5 km/h (0 Bft) N-NW 344 ° 0 min 0 W/m² 0,3 °C 1,0 °C 1,6 km/h (1 Bft)
04.12.2022 17:56 21,9 °C 1,0 °C 46 % 95 % 1017,3 hPa 0,2 l/m² 2,6 km/h (1 Bft) N-NW 335 ° 0 min 0 W/m² 0,3 °C 1,0 °C 8,0 km/h (2 Bft)
04.12.2022 17:58 21,9 °C 1,0 °C 46 % 95 % 1017,2 hPa 0,0 l/m² 3,1 km/h (1 Bft) N-NO 13 ° 0 min 0 W/m² 0,3 °C 1,0 °C 6,4 km/h (2 Bft)
04.12.2022 18:00 21,8 °C 1,0 °C 46 % 95 % 1017,2 hPa 0,0 l/m² 2,0 km/h (1 Bft) N 5 ° 0 min 0 W/m² 0,3 °C 1,0 °C 11,3 km/h (2 Bft)
04.12.2022 18:01 21,9 °C 1,1 °C 46 % 95 % 1017,1 hPa 0,0 l/m² 3,4 km/h (1 Bft) N 9 ° 0 min 0 W/m² 0,4 °C 1,1 °C 8,0 km/h (2 Bft)
04.12.2022 18:02 21,9 °C 1,0 °C 46 % 95 % 1017,1 hPa 0,0 l/m² 0,2 km/h (0 Bft) N 9 ° 0 min 0 W/m² 0,3 °C 1,0 °C 1,6 km/h (1 Bft)
04.12.2022 18:03 21,9 °C 1,1 °C 46 % 95 % 1017,2 hPa 0,0 l/m² 0,5 km/h (0 Bft) N 5 ° 0 min 0 W/m² 0,4 °C 1,1 °C 3,2 km/h (1 Bft)
04.12.2022 18:04 21,9 °C 1,0 °C 47 % 95 % 1017,2 hPa 0,0 l/m² 2,7 km/h (1 Bft) N-NO 20 ° 0 min 0 W/m² 0,3 °C 1,0 °C 6,4 km/h (2 Bft)
04.12.2022 18:06 21,9 °C 1,0 °C 47 % 95 % 1017,2 hPa 0,0 l/m² 2,9 km/h (1 Bft) N-NO 28 ° 0 min 0 W/m² 0,3 °C 1,0 °C 6,4 km/h (2 Bft)
04.12.2022 18:08 21,9 °C 1,1 °C 47 % 95 % 1017,2 hPa 0,0 l/m² 4,0 km/h (1 Bft) N-NW 346 ° 0 min 0 W/m² 0,4 °C 1,1 °C 11,3 km/h (2 Bft)
04.12.2022 18:10 21,9 °C 1,1 °C 47 % 95 % 1017,2 hPa 0,0 l/m² 1,5 km/h (1 Bft) N-NO 24 ° 0 min 0 W/m² 0,4 °C 1,1 °C 4,8 km/h (1 Bft)
04.12.2022 18:11 21,9 °C 1,1 °C 47 % 95 % 1017,2 hPa 0,0 l/m² 3,9 km/h (1 Bft) N 10 ° 0 min 0 W/m² 0,4 °C 1,1 °C 11,3 km/h (2 Bft)
04.12.2022 18:12 21,9 °C 1,1 °C 47 % 95 % 1017,2 hPa 0,0 l/m² 1,7 km/h (1 Bft) N-NO 14 ° 0 min 0 W/m² 0,4 °C 1,1 °C 3,2 km/h (1 Bft)
04.12.2022 18:14 21,9 °C 1,1 °C 47 % 95 % 1017,2 hPa 0,0 l/m² 1,3 km/h (1 Bft) N-NO 26 ° 0 min 0 W/m² 0,4 °C 1,1 °C 3,2 km/h (1 Bft)
04.12.2022 18:15 21,9 °C 1,1 °C 47 % 95 % 1017,2 hPa 0,0 l/m² 4,4 km/h (1 Bft) N-NO 22 ° 0 min 0 W/m² 0,4 °C 1,1 °C 6,4 km/h (2 Bft)
04.12.2022 18:17 21,9 °C 1,1 °C 47 % 95 % 1017,3 hPa 0,0 l/m² 2,9 km/h (1 Bft) N-NO 20 ° 0 min 0 W/m² 0,4 °C 1,1 °C 4,8 km/h (1 Bft)
04.12.2022 18:19 21,9 °C 1,1 °C 47 % 95 % 1017,3 hPa 0,0 l/m² 0,2 km/h (0 Bft) N-NO 20 ° 0 min 0 W/m² 0,4 °C 1,1 °C 3,2 km/h (1 Bft)
04.12.2022 18:20 21,9 °C 1,1 °C 47 % 95 % 1017,3 hPa 0,0 l/m² 0,0 km/h (0 Bft) N-NO 20 ° 0 min 0 W/m² 0,4 °C 1,1 °C 0,0 km/h (0 Bft)
04.12.2022 18:21 21,9 °C 1,1 °C 47 % 95 % 1017,3 hPa 0,2 l/m² 0,3 km/h (0 Bft) N-NO 25 ° 0 min 0 W/m² 0,4 °C 1,1 °C 1,6 km/h (1 Bft)
04.12.2022 18:22 21,9 °C 1,1 °C 47 % 95 % 1017,4 hPa 0,0 l/m² 0,0 km/h (0 Bft) N-NO 25 ° 0 min 0 W/m² 0,4 °C 1,1 °C 0,0 km/h (0 Bft)
04.12.2022 18:23 21,9 °C 1,0 °C 47 % 95 % 1017,3 hPa 0,0 l/m² 0,0 km/h (0 Bft) N-NO 25 ° 0 min 0 W/m² 0,3 °C 1,0 °C 0,0 km/h (0 Bft)
04.12.2022 18:24 21,9 °C 1,1 °C 47 % 95 % 1017,3 hPa 0,0 l/m² 0,4 km/h (0 Bft) N-NO 18 ° 0 min 0 W/m² 0,4 °C 1,1 °C 1,6 km/h (1 Bft)
04.12.2022 18:26 21,9 °C 1,1 °C 47 % 95 % 1017,3 hPa 0,0 l/m² 0,0 km/h (0 Bft) N-NO 19 ° 0 min 0 W/m² 0,4 °C 1,1 °C 1,6 km/h (1 Bft)
04.12.2022 18:28 21,9 °C 1,1 °C 48 % 95 % 1017,1 hPa 0,0 l/m² 0,6 km/h (0 Bft) N-NO 21 ° 0 min 0 W/m² 0,4 °C 1,1 °C 3,2 km/h (1 Bft)
04.12.2022 18:30 21,9 °C 1,1 °C 48 % 95 % 1017,2 hPa 0,0 l/m² 0,5 km/h (0 Bft) N 5 ° 0 min 0 W/m² 0,4 °C 1,1 °C 3,2 km/h (1 Bft)
04.12.2022 18:31 21,9 °C 1,1 °C 48 % 95 % 1017,1 hPa 0,0 l/m² 2,7 km/h (1 Bft) NO 39 ° 0 min 0 W/m² 0,4 °C 1,1 °C 4,8 km/h (1 Bft)
04.12.2022 18:32 21,9 °C 1,1 °C 48 % 95 % 1017,1 hPa 0,0 l/m² 0,3 km/h (0 Bft) NO 39 ° 0 min 0 W/m² 0,4 °C 1,1 °C 1,6 km/h (1 Bft)
04.12.2022 18:33 21,9 °C 1,1 °C 48 % 95 % 1017,1 hPa 0,0 l/m² 0,0 km/h (0 Bft) NO 39 ° 0 min 0 W/m² 0,4 °C 1,1 °C 0,0 km/h (0 Bft)
04.12.2022 18:34 21,9 °C 1,1 °C 48 % 95 % 1017,0 hPa 0,0 l/m² 0,0 km/h (0 Bft) NO 39 ° 0 min 0 W/m² 0,4 °C 1,1 °C 0,0 km/h (0 Bft)
04.12.2022 18:36 21,9 °C 1,1 °C 48 % 95 % 1017,3 hPa 0,0 l/m² 2,6 km/h (1 Bft) N-NW 331 ° 0 min 0 W/m² 0,4 °C 1,1 °C 6,4 km/h (2 Bft)
04.12.2022 18:38 21,9 °C 1,1 °C 48 % 95 % 1017,2 hPa 0,0 l/m² 2,8 km/h (1 Bft) N 355 ° 0 min 0 W/m² 0,4 °C 1,1 °C 9,7 km/h (2 Bft)
04.12.2022 18:40 21,9 °C 1,1 °C 48 % 95 % 1017,3 hPa 0,0 l/m² 2,7 km/h (1 Bft) N 9 ° 0 min 0 W/m² 0,4 °C 1,1 °C 4,8 km/h (1 Bft)
04.12.2022 18:41 21,9 °C 1,1 °C 48 % 95 % 1017,2 hPa 0,2 l/m² 1,7 km/h (1 Bft) N-NW 348 ° 0 min 0 W/m² 0,4 °C 1,1 °C 4,8 km/h (1 Bft)
04.12.2022 18:42 21,9 °C 1,1 °C 49 % 95 % 1017,2 hPa 0,0 l/m² 4,6 km/h (1 Bft) N-NO 26 ° 0 min 0 W/m² 0,4 °C 1,1 °C 6,4 km/h (2 Bft)
04.12.2022 18:43 21,9 °C 1,1 °C 49 % 95 % 1017,2 hPa 0,0 l/m² 0,9 km/h (0 Bft) N 351 ° 0 min 0 W/m² 0,4 °C 1,1 °C 3,2 km/h (1 Bft)
04.12.2022 18:45 21,9 °C 1,1 °C 49 % 95 % 1017,2 hPa 0,0 l/m² 0,7 km/h (0 Bft) N-NO 15 ° 0 min 0 W/m² 0,4 °C 1,1 °C 3,2 km/h (1 Bft)
04.12.2022 18:47 21,9 °C 1,1 °C 49 % 95 % 1017,2 hPa 0,0 l/m² 4,3 km/h (1 Bft) N 5 ° 0 min 0 W/m² 0,4 °C 1,1 °C 6,4 km/h (2 Bft)
04.12.2022 18:49 21,9 °C 1,1 °C 49 % 95 % 1017,2 hPa 0,0 l/m² 2,5 km/h (1 Bft) N 5 ° 0 min 0 W/m² 0,4 °C 1,1 °C 4,8 km/h (1 Bft)
04.12.2022 18:50 21,9 °C 1,1 °C 49 % 95 % 1017,2 hPa 0,0 l/m² 2,3 km/h (1 Bft) N-NW 342 ° 0 min 0 W/m² 0,4 °C 1,1 °C 6,4 km/h (2 Bft)
04.12.2022 18:51 21,9 °C 1,1 °C 49 % 95 % 1017,2 hPa 0,0 l/m² 1,8 km/h (1 Bft) N-NW 335 ° 0 min 0 W/m² 0,4 °C 1,1 °C 4,8 km/h (1 Bft)
04.12.2022 18:52 21,9 °C 1,1 °C 49 % 95 % 1017,2 hPa 0,0 l/m² 0,3 km/h (0 Bft) N-NW 335 ° 0 min 0 W/m² 0,4 °C 1,1 °C 1,6 km/h (1 Bft)
04.12.2022 18:53 21,9 °C 1,1 °C 49 % 95 % 1017,2 hPa 0,0 l/m² 0,5 km/h (0 Bft) N-NW 335 ° 0 min 0 W/m² 0,4 °C 1,1 °C 1,6 km/h (1 Bft)
04.12.2022 18:54 21,9 °C 1,1 °C 49 % 95 % 1017,3 hPa 0,0 l/m² 1,2 km/h (1 Bft) N-NW 335 ° 0 min 0 W/m² 0,4 °C 1,1 °C 3,2 km/h (1 Bft)
04.12.2022 18:56 21,9 °C 1,1 °C 49 % 95 % 1017,2 hPa 0,0 l/m² 2,6 km/h (1 Bft) N 355 ° 0 min 0 W/m² 0,4 °C 1,1 °C 4,8 km/h (1 Bft)
04.12.2022 18:58 21,9 °C 1,1 °C 49 % 95 % 1017,2 hPa 0,0 l/m² 5,3 km/h (1 Bft) N 355 ° 0 min 0 W/m² 0,4 °C 1,1 °C 8,0 km/h (2 Bft)
04.12.2022 19:00 21,9 °C 1,1 °C 50 % 95 % 1017,2 hPa 0,0 l/m² 1,8 km/h (1 Bft) N 355 ° 0 min 0 W/m² 0,4 °C 1,1 °C 6,4 km/h (2 Bft)
04.12.2022 19:01 21,9 °C 1,1 °C 50 % 95 % 1017,2 hPa 0,0 l/m² 1,7 km/h (1 Bft) N-NW 338 ° 0 min 0 W/m² 0,4 °C 1,1 °C 4,8 km/h (1 Bft)
04.12.2022 19:02 21,9 °C 1,1 °C 50 % 95 % 1017,2 hPa 0,0 l/m² 4,4 km/h (1 Bft) N-NW 333 ° 0 min 0 W/m² 0,4 °C 1,1 °C 8,0 km/h (2 Bft)
04.12.2022 19:03 21,9 °C 1,1 °C 50 % 95 % 1017,2 hPa 0,0 l/m² 1,8 km/h (1 Bft) N-NO 18 ° 0 min 0 W/m² 0,4 °C 1,1 °C 4,8 km/h (1 Bft)
04.12.2022 19:04 21,9 °C 1,1 °C 50 % 95 % 1017,2 hPa 0,0 l/m² 2,2 km/h (1 Bft) N-NW 345 ° 0 min 0 W/m² 0,4 °C 1,1 °C 6,4 km/h (2 Bft)
04.12.2022 19:06 21,9 °C 1,1 °C 50 % 95 % 1017,2 hPa 0,2 l/m² 5,3 km/h (1 Bft) N-NW 331 ° 0 min 0 W/m² 0,4 °C 1,1 °C 9,7 km/h (2 Bft)
04.12.2022 19:08 21,9 °C 1,1 °C 50 % 95 % 1017,2 hPa 0,0 l/m² 5,2 km/h (1 Bft) N-NW 342 ° 0 min 0 W/m² 0,4 °C 1,1 °C 8,0 km/h (2 Bft)
04.12.2022 19:10 21,9 °C 1,1 °C 50 % 95 % 1017,1 hPa 0,0 l/m² 4,1 km/h (1 Bft) N-NW 333 ° 0 min 0 W/m² 0,4 °C 1,1 °C 9,7 km/h (2 Bft)
04.12.2022 19:11 21,9 °C 1,1 °C 50 % 95 % 1017,1 hPa 0,0 l/m² 1,0 km/h (0 Bft) N-NW 342 ° 0 min 0 W/m² 0,4 °C 1,1 °C 3,2 km/h (1 Bft)
04.12.2022 19:12 21,9 °C 1,1 °C 50 % 95 % 1017,1 hPa 0,0 l/m² 4,7 km/h (1 Bft) N 355 ° 0 min 0 W/m² 0,4 °C 1,1 °C 6,4 km/h (2 Bft)
04.12.2022 19:13 21,9 °C 1,1 °C 50 % 95 % 1017,1 hPa 0,0 l/m² 4,3 km/h (1 Bft) N 355 ° 0 min 0 W/m² 0,4 °C 1,1 °C 6,4 km/h (2 Bft)
04.12.2022 19:14 21,9 °C 1,1 °C 50 % 95 % 1017,1 hPa 0,0 l/m² 4,8 km/h (1 Bft) N-NO 20 ° 0 min 0 W/m² 0,4 °C 1,1 °C 8,0 km/h (2 Bft)
04.12.2022 19:16 21,9 °C 1,1 °C 50 % 95 % 1017,0 hPa 0,0 l/m² 5,1 km/h (1 Bft) N-NW 337 ° 0 min 0 W/m² 0,4 °C 1,1 °C 8,0 km/h (2 Bft)
04.12.2022 19:18 21,9 °C 1,1 °C 50 % 95 % 1017,1 hPa 0,0 l/m² 7,0 km/h (2 Bft) N 9 ° 0 min 0 W/m² 0,4 °C 0,5 °C 14,5 km/h (3 Bft)
04.12.2022 19:20 21,9 °C 1,1 °C 50 % 95 % 1017,0 hPa 0,0 l/m² 4,0 km/h (1 Bft) N 360 ° 0 min 0 W/m² 0,4 °C 1,1 °C 8,0 km/h (2 Bft)
04.12.2022 19:21 21,9 °C 1,1 °C 50 % 95 % 1017,1 hPa 0,0 l/m² 6,4 km/h (2 Bft) N-NW 345 ° 0 min 0 W/m² 0,4 °C 1,1 °C 8,0 km/h (2 Bft)
04.12.2022 19:22 21,9 °C 1,1 °C 50 % 95 % 1017,1 hPa 0,0 l/m² 3,4 km/h (1 Bft) N-NW 340 ° 0 min 0 W/m² 0,4 °C 1,1 °C 6,4 km/h (2 Bft)
04.12.2022 19:23 21,9 °C 1,1 °C 51 % 95 % 1017,1 hPa 0,0 l/m² 5,2 km/h (1 Bft) N-NW 347 ° 0 min 0 W/m² 0,4 °C 1,1 °C 9,7 km/h (2 Bft)
04.12.2022 19:25 21,9 °C 1,1 °C 51 % 95 % 1017,1 hPa 0,0 l/m² 3,5 km/h (1 Bft) NO 36 ° 0 min 0 W/m² 0,4 °C 1,1 °C 8,0 km/h (2 Bft)
04.12.2022 19:26 21,9 °C 1,1 °C 51 % 95 % 1017,1 hPa 0,0 l/m² 3,4 km/h (1 Bft) NW 323 ° 0 min 0 W/m² 0,4 °C 1,1 °C 4,8 km/h (1 Bft)
04.12.2022 19:28 21,9 °C 1,1 °C 51 % 95 % 1017,1 hPa 0,2 l/m² 5,3 km/h (1 Bft) N-NW 342 ° 0 min 0 W/m² 0,4 °C 1,1 °C 9,7 km/h (2 Bft)
04.12.2022 19:30 21,9 °C 1,1 °C 51 % 95 % 1017,0 hPa 0,0 l/m² 6,6 km/h (2 Bft) NW 325 ° 0 min 0 W/m² 0,4 °C 0,9 °C 12,9 km/h (3 Bft)
04.12.2022 19:31 21,9 °C 1,1 °C 51 % 95 % 1017,1 hPa 0,0 l/m² 3,3 km/h (1 Bft) N-NW 337 ° 0 min 0 W/m² 0,4 °C 1,1 °C 6,4 km/h (2 Bft)
04.12.2022 19:32 22,0 °C 1,1 °C 51 % 95 % 1017,2 hPa 0,0 l/m² 4,6 km/h (1 Bft) N 5 ° 0 min 0 W/m² 0,4 °C 1,1 °C 6,4 km/h (2 Bft)
04.12.2022 19:34 21,9 °C 1,1 °C 51 % 95 % 1017,1 hPa 0,0 l/m² 2,9 km/h (1 Bft) NW 323 ° 0 min 0 W/m² 0,4 °C 1,1 °C 4,8 km/h (1 Bft)
04.12.2022 19:35 21,9 °C 1,1 °C 51 % 95 % 1017,1 hPa 0,0 l/m² 4,5 km/h (1 Bft) N-NW 347 ° 0 min 0 W/m² 0,4 °C 1,1 °C 6,4 km/h (2 Bft)
04.12.2022 19:37 21,9 °C 1,1 °C 50 % 95 % 1017,0 hPa 0,0 l/m² 2,8 km/h (1 Bft) N-NW 332 ° 0 min 0 W/m² 0,4 °C 1,1 °C 6,4 km/h (2 Bft)
04.12.2022 19:39 22,0 °C 1,1 °C 50 % 95 % 1017,1 hPa 0,0 l/m² 5,7 km/h (2 Bft) N-NW 340 ° 0 min 0 W/m² 0,4 °C 1,1 °C 9,7 km/h (2 Bft)
04.12.2022 19:41 21,9 °C 1,1 °C 50 % 95 % 1017,1 hPa 0,0 l/m² 3,7 km/h (1 Bft) N 10 ° 0 min 0 W/m² 0,4 °C 1,1 °C 6,4 km/h (2 Bft)
04.12.2022 19:43 21,9 °C 1,1 °C 50 % 95 % 1017,2 hPa 0,0 l/m² 5,0 km/h (1 Bft) N-NW 339 ° 0 min 0 W/m² 0,4 °C 1,1 °C 6,4 km/h (2 Bft)
04.12.2022 19:44 21,9 °C 1,1 °C 50 % 95 % 1017,2 hPa 0,0 l/m² 4,6 km/h (1 Bft) N 5 ° 0 min 0 W/m² 0,4 °C 1,1 °C 6,4 km/h (2 Bft)
04.12.2022 19:45 21,9 °C 1,1 °C 50 % 95 % 1017,1 hPa 0,0 l/m² 3,0 km/h (1 Bft) N-NW 339 ° 0 min 0 W/m² 0,4 °C 1,1 °C 6,4 km/h (2 Bft)
04.12.2022 19:47 21,9 °C 1,1 °C 50 % 95 % 1017,1 hPa 0,0 l/m² 4,2 km/h (1 Bft) N-NW 331 ° 0 min 0 W/m² 0,4 °C 1,1 °C 6,4 km/h (2 Bft)
04.12.2022 19:49 21,9 °C 1,1 °C 50 % 95 % 1017,1 hPa 0,2 l/m² 4,5 km/h (1 Bft) N 355 ° 0 min 0 W/m² 0,4 °C 1,1 °C 8,0 km/h (2 Bft)
04.12.2022 19:50 21,9 °C 1,1 °C 50 % 95 % 1017,1 hPa 0,0 l/m² 2,5 km/h (1 Bft) N 351 ° 0 min 0 W/m² 0,4 °C 1,1 °C 6,4 km/h (2 Bft)
04.12.2022 19:51 22,0 °C 1,1 °C 50 % 95 % 1017,0 hPa 0,0 l/m² 2,3 km/h (1 Bft) N-NW 338 ° 0 min 0 W/m² 0,4 °C 1,1 °C 6,4 km/h (2 Bft)
04.12.2022 19:52 22,0 °C 1,1 °C 50 % 95 % 1017,0 hPa 0,0 l/m² 3,5 km/h (1 Bft) N-NW 342 ° 0 min 0 W/m² 0,4 °C 1,1 °C 8,0 km/h (2 Bft)
04.12.2022 19:53 21,9 °C 1,1 °C 50 % 95 % 1017,1 hPa 0,0 l/m² 4,0 km/h (1 Bft) NW 322 ° 0 min 0 W/m² 0,4 °C 1,1 °C 8,0 km/h (2 Bft)
04.12.2022 19:54 21,9 °C 1,1 °C 50 % 95 % 1017,1 hPa 0,0 l/m² 1,3 km/h (1 Bft) N-NW 343 ° 0 min 0 W/m² 0,4 °C 1,1 °C 4,8 km/h (1 Bft)
04.12.2022 19:56 21,9 °C 1,1 °C 50 % 95 % 1017,0 hPa 0,0 l/m² 5,0 km/h (1 Bft) N-NW 332 ° 0 min 0 W/m² 0,4 °C 1,1 °C 9,7 km/h (2 Bft)
04.12.2022 19:58 21,9 °C 1,1 °C 50 % 95 % 1017,1 hPa 0,0 l/m² 3,7 km/h (1 Bft) N-NW 330 ° 0 min 0 W/m² 0,4 °C 1,1 °C 8,0 km/h (2 Bft)
04.12.2022 20:00 21,9 °C 1,1 °C 51 % 95 % 1017,1 hPa 0,0 l/m² 3,7 km/h (1 Bft) N-NW 342 ° 0 min 0 W/m² 0,4 °C 1,1 °C 6,4 km/h (2 Bft)
04.12.2022 20:01 22,0 °C 1,1 °C 51 % 95 % 1017,1 hPa 0,0 l/m² 3,9 km/h (1 Bft) N-NW 340 ° 0 min 0 W/m² 0,4 °C 1,1 °C 6,4 km/h (2 Bft)
04.12.2022 20:02 22,0 °C 1,1 °C 51 % 95 % 1017,1 hPa 0,0 l/m² 4,3 km/h (1 Bft) N-NW 328 ° 0 min 0 W/m² 0,4 °C 1,1 °C 6,4 km/h (2 Bft)
04.12.2022 20:04 22,0 °C 1,1 °C 51 % 95 % 1017,1 hPa 0,0 l/m² 3,4 km/h (1 Bft) N-NW 333 ° 0 min 0 W/m² 0,4 °C 1,1 °C 8,0 km/h (2 Bft)
04.12.2022 20:05 22,1 °C 1,1 °C 51 % 95 % 1017,1 hPa 0,0 l/m² 4,4 km/h (1 Bft) N-NW 329 ° 0 min 0 W/m² 0,4 °C 1,1 °C 6,4 km/h (2 Bft)
04.12.2022 20:07 22,0 °C 1,1 °C 51 % 95 % 1017,2 hPa 0,0 l/m² 3,9 km/h (1 Bft) N-NW 337 ° 0 min 0 W/m² 0,4 °C 1,1 °C 6,4 km/h (2 Bft)
04.12.2022 20:09 22,1 °C 1,1 °C 51 % 95 % 1017,2 hPa 0,2 l/m² 5,7 km/h (2 Bft) NW 326 ° 0 min 0 W/m² 0,4 °C 1,1 °C 8,0 km/h (2 Bft)
04.12.2022 20:11 22,1 °C 1,1 °C 51 % 95 % 1017,2 hPa 0,0 l/m² 3,5 km/h (1 Bft) N-NW 329 ° 0 min 0 W/m² 0,4 °C 1,1 °C 6,4 km/h (2 Bft)
04.12.2022 20:12 22,1 °C 1,1 °C 51 % 95 % 1017,3 hPa 0,0 l/m² 4,7 km/h (1 Bft) N-NW 347 ° 0 min 0 W/m² 0,4 °C 1,1 °C 6,4 km/h (2 Bft)
04.12.2022 20:13 22,1 °C 1,1 °C 51 % 95 % 1017,3 hPa 0,0 l/m² 4,4 km/h (1 Bft) N-NW 343 ° 0 min 0 W/m² 0,4 °C 1,1 °C 6,4 km/h (2 Bft)
04.12.2022 20:15 22,2 °C 1,1 °C 51 % 95 % 1017,3 hPa 0,0 l/m² 5,5 km/h (2 Bft) NW 311 ° 0 min 0 W/m² 0,4 °C 1,1 °C 12,9 km/h (3 Bft)
04.12.2022 20:16 22,2 °C 1,1 °C 51 % 95 % 1017,3 hPa 0,0 l/m² 4,9 km/h (1 Bft) N-NW 342 ° 0 min 0 W/m² 0,4 °C 1,1 °C 8,0 km/h (2 Bft)
04.12.2022 20:18 22,2 °C 1,1 °C 51 % 95 % 1017,3 hPa 0,0 l/m² 5,6 km/h (2 Bft) N-NW 342 ° 0 min 0 W/m² 0,4 °C 1,1 °C 8,0 km/h (2 Bft)
04.12.2022 20:20 22,2 °C 1,1 °C 51 % 95 % 1017,2 hPa 0,0 l/m² 5,8 km/h (2 Bft) N-NW 329 ° 0 min 0 W/m² 0,4 °C 1,1 °C 9,7 km/h (2 Bft)
04.12.2022 20:21 22,3 °C 1,1 °C 51 % 95 % 1017,2 hPa 0,0 l/m² 5,7 km/h (2 Bft) N-NW 347 ° 0 min 0 W/m² 0,4 °C 1,1 °C 9,7 km/h (2 Bft)
04.12.2022 20:22 22,3 °C 1,1 °C 51 % 95 % 1017,2 hPa 0,0 l/m² 5,7 km/h (2 Bft) N 11 ° 0 min 0 W/m² 0,4 °C 1,1 °C 8,0 km/h (2 Bft)
04.12.2022 20:23 22,3 °C 1,1 °C 51 % 95 % 1017,2 hPa 0,0 l/m² 4,2 km/h (1 Bft) N-NW 339 ° 0 min 0 W/m² 0,4 °C 1,1 °C 8,0 km/h (2 Bft)
04.12.2022 20:25 22,3 °C 1,1 °C 51 % 95 % 1017,3 hPa 0,0 l/m² 5,5 km/h (2 Bft) NW 315 ° 0 min 0 W/m² 0,4 °C 1,1 °C 8,0 km/h (2 Bft)
04.12.2022 20:26 22,3 °C 1,1 °C 51 % 95 % 1017,2 hPa 0,0 l/m² 5,5 km/h (2 Bft) W-NW 302 ° 0 min 0 W/m² 0,4 °C 1,1 °C 8,0 km/h (2 Bft)
04.12.2022 20:28 22,3 °C 1,1 °C 51 % 95 % 1017,3 hPa 0,2 l/m² 5,3 km/h (1 Bft) N-NW 331 ° 0 min 0 W/m² 0,4 °C 1,1 °C 8,0 km/h (2 Bft)
04.12.2022 20:30 22,3 °C 1,1 °C 51 % 95 % 1017,3 hPa 0,0 l/m² 4,2 km/h (1 Bft) N 355 ° 0 min 0 W/m² 0,4 °C 1,1 °C 6,4 km/h (2 Bft)
04.12.2022 20:31 22,3 °C 1,1 °C 51 % 95 % 1017,3 hPa 0,0 l/m² 3,7 km/h (1 Bft) NW 324 ° 0 min 0 W/m² 0,4 °C 1,1 °C 6,4 km/h (2 Bft)
04.12.2022 20:32 22,3 °C 1,1 °C 51 % 95 % 1017,3 hPa 0,0 l/m² 6,0 km/h (2 Bft) N-NW 329 ° 0 min 0 W/m² 0,4 °C 1,1 °C 9,7 km/h (2 Bft)
04.12.2022 20:33 22,3 °C 1,1 °C 51 % 95 % 1017,3 hPa 0,0 l/m² 6,4 km/h (2 Bft) N-NW 342 ° 0 min 0 W/m² 0,4 °C 1,1 °C 8,0 km/h (2 Bft)
04.12.2022 20:35 22,4 °C 1,1 °C 51 % 95 % 1017,4 hPa 0,0 l/m² 4,9 km/h (1 Bft) N-NW 333 ° 0 min 0 W/m² 0,4 °C 1,1 °C 8,0 km/h (2 Bft)
04.12.2022 20:36 22,4 °C 1,1 °C 51 % 95 % 1017,3 hPa 0,0 l/m² 4,0 km/h (1 Bft) NW 310 ° 0 min 0 W/m² 0,4 °C 1,1 °C 6,4 km/h (2 Bft)
04.12.2022 20:38 22,4 °C 1,1 °C 51 % 95 % 1017,4 hPa 0,0 l/m² 5,4 km/h (2 Bft) N 5 ° 0 min 0 W/m² 0,4 °C 1,1 °C 8,0 km/h (2 Bft)
04.12.2022 20:40 22,4 °C 1,1 °C 51 % 95 % 1017,4 hPa 0,0 l/m² 3,9 km/h (1 Bft) N-NW 327 ° 0 min 0 W/m² 0,4 °C 1,1 °C 9,7 km/h (2 Bft)
04.12.2022 20:41 22,4 °C 1,1 °C 51 % 95 % 1017,4 hPa 0,0 l/m² 5,2 km/h (1 Bft) N-NW 338 ° 0 min 0 W/m² 0,4 °C 1,1 °C 9,7 km/h (2 Bft)
04.12.2022 20:42 22,4 °C 1,1 °C 51 % 95 % 1017,4 hPa 0,0 l/m² 5,8 km/h (2 Bft) N-NW 347 ° 0 min 0 W/m² 0,4 °C 1,1 °C 9,7 km/h (2 Bft)
04.12.2022 20:43 22,4 °C 1,1 °C 51 % 95 % 1017,4 hPa 0,0 l/m² 2,6 km/h (1 Bft) N 355 ° 0 min 0 W/m² 0,4 °C 1,1 °C 4,8 km/h (1 Bft)
04.12.2022 20:45 22,4 °C 1,1 °C 51 % 95 % 1017,4 hPa 0,0 l/m² 4,8 km/h (1 Bft) N-NW 337 ° 0 min 0 W/m² 0,4 °C 1,1 °C 8,0 km/h (2 Bft)
04.12.2022 20:46 22,5 °C 1,1 °C 51 % 95 % 1017,4 hPa 0,2 l/m² 4,2 km/h (1 Bft) N-NW 328 ° 0 min 0 W/m² 0,4 °C 1,1 °C 6,4 km/h (2 Bft)
04.12.2022 20:48 22,5 °C 1,2 °C 51 % 95 % 1017,4 hPa 0,0 l/m² 4,2 km/h (1 Bft) NW 325 ° 0 min 0 W/m² 0,5 °C 1,2 °C 6,4 km/h (2 Bft)
04.12.2022 20:50 22,5 °C 1,2 °C 51 % 95 % 1017,4 hPa 0,0 l/m² 8,1 km/h (2 Bft) N 355 ° 0 min 0 W/m² 0,5 °C -0,5 °C 12,9 km/h (3 Bft)
04.12.2022 20:51 22,5 °C 1,2 °C 51 % 95 % 1017,4 hPa 0,0 l/m² 4,3 km/h (1 Bft) N-NW 329 ° 0 min 0 W/m² 0,5 °C 1,2 °C 8,0 km/h (2 Bft)
04.12.2022 20:52 22,5 °C 1,2 °C 51 % 95 % 1017,4 hPa 0,0 l/m² 5,0 km/h (1 Bft) N-NW 341 ° 0 min 0 W/m² 0,5 °C 1,2 °C 6,4 km/h (2 Bft)
04.12.2022 20:53 22,6 °C 1,2 °C 51 % 95 % 1017,5 hPa 0,0 l/m² 8,2 km/h (2 Bft) N-NW 335 ° 0 min 0 W/m² 0,5 °C -0,6 °C 12,9 km/h (3 Bft)
04.12.2022 20:55 22,6 °C 1,2 °C 51 % 95 % 1017,4 hPa 0,0 l/m² 5,2 km/h (1 Bft) N-NW 343 ° 0 min 0 W/m² 0,5 °C 1,2 °C 8,0 km/h (2 Bft)
04.12.2022 20:56 22,6 °C 1,2 °C 51 % 95 % 1017,4 hPa 0,0 l/m² 6,6 km/h (2 Bft) N-NW 342 ° 0 min 0 W/m² 0,5 °C 1,0 °C 8,0 km/h (2 Bft)
04.12.2022 20:58 22,6 °C 1,2 °C 51 % 95 % 1017,4 hPa 0,0 l/m² 8,0 km/h (2 Bft) N-NW 344 ° 0 min 0 W/m² 0,5 °C -0,4 °C 12,9 km/h (3 Bft)
04.12.2022 21:00 22,6 °C 1,2 °C 51 % 95 % 1017,4 hPa 0,0 l/m² 6,2 km/h (2 Bft) N-NW 344 ° 0 min 0 W/m² 0,5 °C 1,2 °C 9,7 km/h (2 Bft)
04.12.2022 21:01 22,6 °C 1,2 °C 51 % 95 % 1017,5 hPa 0,0 l/m² 4,8 km/h (1 Bft) N-NW 340 ° 0 min 0 W/m² 0,5 °C 1,2 °C 8,0 km/h (2 Bft)
04.12.2022 21:02 22,6 °C 1,2 °C 51 % 95 % 1017,5 hPa 0,0 l/m² 6,1 km/h (2 Bft) N-NW 344 ° 0 min 0 W/m² 0,5 °C 1,2 °C 8,0 km/h (2 Bft)
04.12.2022 21:03 22,6 °C 1,2 °C 51 % 95 % 1017,5 hPa 0,0 l/m² 4,8 km/h (1 Bft) N-NW 342 ° 0 min 0 W/m² 0,5 °C 1,2 °C 6,4 km/h (2 Bft)
04.12.2022 21:05 22,6 °C 1,2 °C 51 % 95 % 1017,5 hPa 0,2 l/m² 4,8 km/h (1 Bft) N-NW 331 ° 0 min 0 W/m² 0,5 °C 1,2 °C 8,0 km/h (2 Bft)
04.12.2022 21:06 22,6 °C 1,2 °C 51 % 95 % 1017,5 hPa 0,0 l/m² 3,1 km/h (1 Bft) N-NW 342 ° 0 min 0 W/m² 0,5 °C 1,2 °C 4,8 km/h (1 Bft)
04.12.2022 21:07 22,6 °C 1,2 °C 51 % 95 % 1017,5 hPa 0,0 l/m² 5,6 km/h (2 Bft) N-NW 346 ° 0 min 0 W/m² 0,5 °C 1,2 °C 8,0 km/h (2 Bft)
04.12.2022 21:08 22,6 °C 1,2 °C 51 % 95 % 1017,5 hPa 0,0 l/m² 7,8 km/h (2 Bft) N 350 ° 0 min 0 W/m² 0,5 °C -0,2 °C 12,9 km/h (3 Bft)
04.12.2022 21:09 22,6 °C 1,2 °C 51 % 95 % 1017,5 hPa 0,0 l/m² 4,6 km/h (1 Bft) N-NW 340 ° 0 min 0 W/m² 0,5 °C 1,2 °C 8,0 km/h (2 Bft)
04.12.2022 21:10 22,6 °C 1,2 °C 51 % 95 % 1017,5 hPa 0,0 l/m² 5,3 km/h (1 Bft) N-NW 346 ° 0 min 0 W/m² 0,5 °C 1,2 °C 9,7 km/h (2 Bft)
04.12.2022 21:11 22,6 °C 1,2 °C 51 % 95 % 1017,4 hPa 0,0 l/m² 7,1 km/h (2 Bft) NW 306 ° 0 min 0 W/m² 0,5 °C 0,5 °C 9,7 km/h (2 Bft)
04.12.2022 21:12 22,6 °C 1,2 °C 51 % 95 % 1017,5 hPa 0,0 l/m² 7,2 km/h (2 Bft) N-NW 347 ° 0 min 0 W/m² 0,5 °C 0,4 °C 9,7 km/h (2 Bft)
04.12.2022 21:13 22,6 °C 1,2 °C 51 % 95 % 1017,5 hPa 0,0 l/m² 6,9 km/h (2 Bft) N 350 ° 0 min 0 W/m² 0,5 °C 0,7 °C 12,9 km/h (3 Bft)
04.12.2022 21:14 22,7 °C 1,2 °C 51 % 95 % 1017,5 hPa 0,0 l/m² 6,4 km/h (2 Bft) N 355 ° 0 min 0 W/m² 0,5 °C 1,2 °C 14,5 km/h (3 Bft)
04.12.2022 21:15 22,7 °C 1,2 °C 51 % 95 % 1017,5 hPa 0,0 l/m² 7,6 km/h (2 Bft) N-NW 344 ° 0 min 0 W/m² 0,5 °C -0,0 °C 9,7 km/h (2 Bft)
04.12.2022 21:16 22,6 °C 1,2 °C 51 % 95 % 1017,5 hPa 0,0 l/m² 6,5 km/h (2 Bft) N-NW 327 ° 0 min 0 W/m² 0,5 °C 1,1 °C 8,0 km/h (2 Bft)
04.12.2022 21:17 22,7 °C 1,2 °C 51 % 95 % 1017,5 hPa 0,0 l/m² 6,0 km/h (2 Bft) N-NW 343 ° 0 min 0 W/m² 0,5 °C 1,2 °C 8,0 km/h (2 Bft)
04.12.2022 21:18 22,7 °C 1,2 °C 51 % 95 % 1017,5 hPa 0,0 l/m² 4,7 km/h (1 Bft) N 355 ° 0 min 0 W/m² 0,5 °C 1,2 °C 6,4 km/h (2 Bft)
04.12.2022 21:19 22,6 °C 1,2 °C 51 % 95 % 1017,5 hPa 0,2 l/m² 2,4 km/h (1 Bft) N 360 ° 0 min 0 W/m² 0,5 °C 1,2 °C 4,8 km/h (1 Bft)
04.12.2022 21:21 22,7 °C 1,2 °C 51 % 95 % 1017,5 hPa 0,0 l/m² 4,3 km/h (1 Bft) N 355 ° 0 min 0 W/m² 0,5 °C 1,2 °C 6,4 km/h (2 Bft)
04.12.2022 21:23 22,7 °C 1,2 °C 51 % 95 % 1017,5 hPa 0,0 l/m² 3,1 km/h (1 Bft) N 355 ° 0 min 0 W/m² 0,5 °C 1,2 °C 6,4 km/h (2 Bft)
04.12.2022 21:24 22,7 °C 1,2 °C 51 % 95 % 1017,5 hPa 0,0 l/m² 2,8 km/h (1 Bft) N 349 ° 0 min 0 W/m² 0,5 °C 1,2 °C 6,4 km/h (2 Bft)
04.12.2022 21:25 22,7 °C 1,2 °C 51 % 95 % 1017,5 hPa 0,0 l/m² 3,9 km/h (1 Bft) N-NW 332 ° 0 min 0 W/m² 0,5 °C 1,2 °C 6,4 km/h (2 Bft)
04.12.2022 21:26 22,6 °C 1,2 °C 51 % 95 % 1017,5 hPa 0,0 l/m² 5,2 km/h (1 Bft) N-NW 330 ° 0 min 0 W/m² 0,5 °C 1,2 °C 8,0 km/h (2 Bft)
04.12.2022 21:27 22,7 °C 1,2 °C 51 % 95 % 1017,5 hPa 0,0 l/m² 7,5 km/h (2 Bft) NW 326 ° 0 min 0 W/m² 0,5 °C 0,1 °C 9,7 km/h (2 Bft)
04.12.2022 21:28 22,7 °C 1,2 °C 51 % 95 % 1017,4 hPa 0,0 l/m² 6,2 km/h (2 Bft) N-NW 334 ° 0 min 0 W/m² 0,5 °C 1,2 °C 8,0 km/h (2 Bft)
04.12.2022 21:29 22,7 °C 1,2 °C 51 % 95 % 1017,4 hPa 0,0 l/m² 6,9 km/h (2 Bft) N-NW 331 ° 0 min 0 W/m² 0,5 °C 0,7 °C 9,7 km/h (2 Bft)
04.12.2022 21:31 22,7 °C 1,2 °C 51 % 95 % 1017,4 hPa 0,0 l/m² 6,3 km/h (2 Bft) N-NW 340 ° 0 min 0 W/m² 0,5 °C 1,2 °C 8,0 km/h (2 Bft)
04.12.2022 21:33 22,7 °C 1,2 °C 51 % 96 % 1017,3 hPa 0,0 l/m² 4,0 km/h (1 Bft) N-NW 336 ° 0 min 0 W/m² 0,6 °C 1,2 °C 8,0 km/h (2 Bft)
04.12.2022 21:34 22,7 °C 1,2 °C 51 % 95 % 1017,3 hPa 0,0 l/m² 6,6 km/h (2 Bft) N 9 ° 0 min 0 W/m² 0,5 °C 1,0 °C 9,7 km/h (2 Bft)
04.12.2022 21:35 22,7 °C 1,2 °C 51 % 95 % 1017,4 hPa 0,2 l/m² 5,2 km/h (1 Bft) N-NW 330 ° 0 min 0 W/m² 0,5 °C 1,2 °C 8,0 km/h (2 Bft)
04.12.2022 21:36 22,7 °C 1,2 °C 51 % 95 % 1017,3 hPa 0,0 l/m² 5,4 km/h (2 Bft) N-NW 331 ° 0 min 0 W/m² 0,5 °C 1,2 °C 8,0 km/h (2 Bft)
04.12.2022 21:37 22,7 °C 1,2 °C 51 % 95 % 1017,4 hPa 0,0 l/m² 5,0 km/h (1 Bft) N-NW 333 ° 0 min 0 W/m² 0,5 °C 1,2 °C 8,0 km/h (2 Bft)
04.12.2022 21:38 22,7 °C 1,2 °C 51 % 95 % 1017,3 hPa 0,0 l/m² 5,1 km/h (1 Bft) N-NW 346 ° 0 min 0 W/m² 0,5 °C 1,2 °C 8,0 km/h (2 Bft)
04.12.2022 21:39 22,7 °C 1,2 °C 51 % 95 % 1017,3 hPa 0,0 l/m² 5,0 km/h (1 Bft) N 350 ° 0 min 0 W/m² 0,5 °C 1,2 °C 6,4 km/h (2 Bft)
04.12.2022 21:41 22,7 °C 1,2 °C 51 % 96 % 1017,3 hPa 0,0 l/m² 6,6 km/h (2 Bft) N-NW 346 ° 0 min 0 W/m² 0,6 °C 1,0 °C 12,9 km/h (3 Bft)
04.12.2022 21:43 22,7 °C 1,3 °C 51 % 96 % 1017,2 hPa 0,0 l/m² 5,8 km/h (2 Bft) N-NW 348 ° 0 min 0 W/m² 0,7 °C 1,3 °C 8,0 km/h (2 Bft)
04.12.2022 21:44 22,7 °C 1,2 °C 51 % 96 % 1017,2 hPa 0,0 l/m² 6,4 km/h (2 Bft) N 355 ° 0 min 0 W/m² 0,6 °C 1,2 °C 9,7 km/h (2 Bft)
04.12.2022 21:46 22,7 °C 1,3 °C 51 % 96 % 1017,3 hPa 0,0 l/m² 5,7 km/h (2 Bft) N-NW 339 ° 0 min 0 W/m² 0,7 °C 1,3 °C 9,7 km/h (2 Bft)
04.12.2022 21:47 22,7 °C 1,2 °C 51 % 96 % 1017,3 hPa 0,0 l/m² 5,8 km/h (2 Bft) N 5 ° 0 min 0 W/m² 0,6 °C 1,2 °C 8,0 km/h (2 Bft)
04.12.2022 21:48 22,7 °C 1,3 °C 51 % 96 % 1017,3 hPa 0,0 l/m² 8,0 km/h (2 Bft) N 355 ° 0 min 0 W/m² 0,7 °C -0,3 °C 12,9 km/h (3 Bft)
04.12.2022 21:49 22,7 °C 1,2 °C 51 % 96 % 1017,3 hPa 0,0 l/m² 7,6 km/h (2 Bft) N 351 ° 0 min 0 W/m² 0,6 °C -0,0 °C 9,7 km/h (2 Bft)
04.12.2022 21:51 22,7 °C 1,3 °C 51 % 96 % 1017,2 hPa 0,0 l/m² 6,8 km/h (2 Bft) N-NW 343 ° 0 min 0 W/m² 0,7 °C 0,9 °C 12,9 km/h (3 Bft)
04.12.2022 21:53 22,7 °C 1,3 °C 51 % 96 % 1017,2 hPa 0,0 l/m² 7,6 km/h (2 Bft) N-NW 336 ° 0 min 0 W/m² 0,7 °C 0,1 °C 14,5 km/h (3 Bft)
04.12.2022 21:54 22,7 °C 1,3 °C 51 % 96 % 1017,2 hPa 0,2 l/m² 4,1 km/h (1 Bft) N-NW 335 ° 0 min 0 W/m² 0,7 °C 1,3 °C 4,8 km/h (1 Bft)
04.12.2022 21:55 22,7 °C 1,3 °C 51 % 96 % 1017,1 hPa 0,0 l/m² 6,2 km/h (2 Bft) N 355 ° 0 min 0 W/m² 0,7 °C 1,3 °C 9,7 km/h (2 Bft)
04.12.2022 21:56 22,7 °C 1,3 °C 51 % 96 % 1017,1 hPa 0,0 l/m² 6,7 km/h (2 Bft) N-NW 331 ° 0 min 0 W/m² 0,7 °C 1,0 °C 9,7 km/h (2 Bft)
04.12.2022 21:57 22,7 °C 1,3 °C 51 % 96 % 1017,1 hPa 0,0 l/m² 6,2 km/h (2 Bft) N-NW 341 ° 0 min 0 W/m² 0,7 °C 1,3 °C 8,0 km/h (2 Bft)
04.12.2022 21:58 22,7 °C 1,3 °C 51 % 96 % 1017,1 hPa 0,0 l/m² 5,4 km/h (2 Bft) N 355 ° 0 min 0 W/m² 0,7 °C 1,3 °C 8,0 km/h (2 Bft)
04.12.2022 21:59 22,7 °C 1,3 °C 51 % 96 % 1017,1 hPa 0,0 l/m² 2,7 km/h (1 Bft) N 355 ° 0 min 0 W/m² 0,7 °C 1,3 °C 6,4 km/h (2 Bft)
04.12.2022 22:01 22,7 °C 1,3 °C 51 % 96 % 1017,1 hPa 0,0 l/m² 5,7 km/h (2 Bft) N 350 ° 0 min 0 W/m² 0,7 °C 1,3 °C 9,7 km/h (2 Bft)
04.12.2022 22:03 22,7 °C 1,3 °C 51 % 96 % 1017,1 hPa 0,0 l/m² 5,8 km/h (2 Bft) N-NW 329 ° 0 min 0 W/m² 0,7 °C 1,3 °C 8,0 km/h (2 Bft)
04.12.2022 22:04 22,7 °C 1,3 °C 51 % 96 % 1017,1 hPa 0,0 l/m² 5,7 km/h (2 Bft) N-NW 334 ° 0 min 0 W/m² 0,7 °C 1,3 °C 8,0 km/h (2 Bft)
04.12.2022 22:05 22,7 °C 1,3 °C 51 % 96 % 1017,0 hPa 0,0 l/m² 2,7 km/h (1 Bft) N-NW 343 ° 0 min 0 W/m² 0,7 °C 1,3 °C 4,8 km/h (1 Bft)
04.12.2022 22:06 22,7 °C 1,3 °C 51 % 96 % 1017,0 hPa 0,0 l/m² 5,2 km/h (1 Bft) N-NW 329 ° 0 min 0 W/m² 0,7 °C 1,3 °C 8,0 km/h (2 Bft)
04.12.2022 22:07 22,7 °C 1,3 °C 51 % 96 % 1017,1 hPa 0,2 l/m² 3,6 km/h (1 Bft) NW 325 ° 0 min 0 W/m² 0,7 °C 1,3 °C 8,0 km/h (2 Bft)
04.12.2022 22:08 22,7 °C 1,3 °C 51 % 96 % 1017,1 hPa 0,0 l/m² 3,5 km/h (1 Bft) N-NW 348 ° 0 min 0 W/m² 0,7 °C 1,3 °C 6,4 km/h (2 Bft)
04.12.2022 22:09 22,7 °C 1,3 °C 51 % 96 % 1017,2 hPa 0,0 l/m² 3,8 km/h (1 Bft) N-NW 344 ° 0 min 0 W/m² 0,7 °C 1,3 °C 4,8 km/h (1 Bft)
04.12.2022 22:11 22,7 °C 1,3 °C 51 % 96 % 1017,1 hPa 0,0 l/m² 2,9 km/h (1 Bft) N 355 ° 0 min 0 W/m² 0,7 °C 1,3 °C 8,0 km/h (2 Bft)
04.12.2022 22:13 22,7 °C 1,3 °C 51 % 96 % 1017,0 hPa 0,0 l/m² 3,3 km/h (1 Bft) N-NW 328 ° 0 min 0 W/m² 0,7 °C 1,3 °C 6,4 km/h (2 Bft)
04.12.2022 22:14 22,7 °C 1,3 °C 51 % 96 % 1017,1 hPa 0,0 l/m² 3,3 km/h (1 Bft) N-NW 340 ° 0 min 0 W/m² 0,7 °C 1,3 °C 4,8 km/h (1 Bft)
04.12.2022 22:15 22,7 °C 1,3 °C 51 % 96 % 1017,1 hPa 0,0 l/m² 3,1 km/h (1 Bft) NW 316 ° 0 min 0 W/m² 0,7 °C 1,3 °C 4,8 km/h (1 Bft)
04.12.2022 22:16 22,7 °C 1,3 °C 51 % 96 % 1017,1 hPa 0,0 l/m² 3,1 km/h (1 Bft) N-NW 343 ° 0 min 0 W/m² 0,7 °C 1,3 °C 6,4 km/h (2 Bft)
04.12.2022 22:17 22,7 °C 1,3 °C 51 % 96 % 1017,1 hPa 0,0 l/m² 3,2 km/h (1 Bft) NW 320 ° 0 min 0 W/m² 0,7 °C 1,3 °C 6,4 km/h (2 Bft)
04.12.2022 22:18 22,7 °C 1,3 °C 51 % 96 % 1017,0 hPa 0,0 l/m² 2,0 km/h (1 Bft) N-NW 332 ° 0 min 0 W/m² 0,7 °C 1,3 °C 4,8 km/h (1 Bft)
04.12.2022 22:19 22,7 °C 1,3 °C 51 % 96 % 1017,1 hPa 0,0 l/m² 5,6 km/h (2 Bft) N-NW 331 ° 0 min 0 W/m² 0,7 °C 1,3 °C 8,0 km/h (2 Bft)
04.12.2022 22:22 22,7 °C 1,3 °C 51 % 96 % 1017,0 hPa 0,0 l/m² 3,7 km/h (1 Bft) N-NW 344 ° 0 min 0 W/m² 0,7 °C 1,3 °C 8,0 km/h (2 Bft)
04.12.2022 22:23 22,7 °C 1,3 °C 51 % 96 % 1017,1 hPa 0,0 l/m² 1,9 km/h (1 Bft) N-NW 340 ° 0 min 0 W/m² 0,7 °C 1,3 °C 4,8 km/h (1 Bft)
04.12.2022 22:24 22,7 °C 1,3 °C 51 % 96 % 1017,0 hPa 0,2 l/m² 5,6 km/h (2 Bft) N 351 ° 0 min 0 W/m² 0,7 °C 1,3 °C 8,0 km/h (2 Bft)
04.12.2022 22:25 22,7 °C 1,3 °C 51 % 96 % 1017,0 hPa 0,0 l/m² 3,1 km/h (1 Bft) NW 317 ° 0 min 0 W/m² 0,7 °C 1,3 °C 6,4 km/h (2 Bft)
04.12.2022 22:26 22,7 °C 1,3 °C 51 % 96 % 1017,1 hPa 0,0 l/m² 3,1 km/h (1 Bft) N-NW 329 ° 0 min 0 W/m² 0,7 °C 1,3 °C 6,4 km/h (2 Bft)
04.12.2022 22:27 22,7 °C 1,3 °C 51 % 96 % 1017,1 hPa 0,0 l/m² 2,6 km/h (1 Bft) N 355 ° 0 min 0 W/m² 0,7 °C 1,3 °C 4,8 km/h (1 Bft)
04.12.2022 22:28 22,7 °C 1,3 °C 51 % 96 % 1017,0 hPa 0,0 l/m² 4,3 km/h (1 Bft) N-NW 333 ° 0 min 0 W/m² 0,7 °C 1,3 °C 4,8 km/h (1 Bft)
04.12.2022 22:29 22,7 °C 1,3 °C 51 % 96 % 1017,1 hPa 0,0 l/m² 3,4 km/h (1 Bft) N-NO 15 ° 0 min 0 W/m² 0,7 °C 1,3 °C 6,4 km/h (2 Bft)
04.12.2022 22:31 22,7 °C 1,3 °C 51 % 96 % 1017,0 hPa 0,0 l/m² 4,1 km/h (1 Bft) N-NW 328 ° 0 min 0 W/m² 0,7 °C 1,3 °C 9,7 km/h (2 Bft)
04.12.2022 22:33 22,7 °C 1,3 °C 51 % 95 % 1017,0 hPa 0,0 l/m² 4,5 km/h (1 Bft) NW 313 ° 0 min 0 W/m² 0,6 °C 1,3 °C 9,7 km/h (2 Bft)
04.12.2022 22:34 22,6 °C 1,3 °C 51 % 96 % 1017,0 hPa 0,0 l/m² 3,1 km/h (1 Bft) N-NW 342 ° 0 min 0 W/m² 0,7 °C 1,3 °C 4,8 km/h (1 Bft)
04.12.2022 22:35 22,6 °C 1,3 °C 51 % 96 % 1017,0 hPa 0,0 l/m² 2,9 km/h (1 Bft) N 350 ° 0 min 0 W/m² 0,7 °C 1,3 °C 8,0 km/h (2 Bft)
04.12.2022 22:36 22,6 °C 1,3 °C 51 % 96 % 1017,0 hPa 0,0 l/m² 5,2 km/h (1 Bft) N-NW 340 ° 0 min 0 W/m² 0,7 °C 1,3 °C 8,0 km/h (2 Bft)
04.12.2022 22:37 22,6 °C 1,3 °C 51 % 96 % 1017,0 hPa 0,0 l/m² 5,9 km/h (2 Bft) N-NW 331 ° 0 min 0 W/m² 0,7 °C 1,3 °C 8,0 km/h (2 Bft)
04.12.2022 22:38 22,6 °C 1,3 °C 51 % 96 % 1017,0 hPa 0,0 l/m² 6,6 km/h (2 Bft) N 360 ° 0 min 0 W/m² 0,7 °C 1,1 °C 9,7 km/h (2 Bft)
04.12.2022 22:39 22,6 °C 1,3 °C 51 % 96 % 1017,0 hPa 0,0 l/m² 4,1 km/h (1 Bft) N 355 ° 0 min 0 W/m² 0,7 °C 1,3 °C 4,8 km/h (1 Bft)
04.12.2022 22:42 22,6 °C 1,3 °C 51 % 96 % 1017,0 hPa 0,0 l/m² 2,8 km/h (1 Bft) NW 326 ° 0 min 0 W/m² 0,7 °C 1,3 °C 6,4 km/h (2 Bft)
04.12.2022 22:43 22,5 °C 1,3 °C 51 % 96 % 1016,9 hPa 0,0 l/m² 2,6 km/h (1 Bft) NW 319 ° 0 min 0 W/m² 0,7 °C 1,3 °C 6,4 km/h (2 Bft)
04.12.2022 22:44 22,5 °C 1,3 °C 51 % 95 % 1016,9 hPa 0,0 l/m² 2,4 km/h (1 Bft) N-NW 344 ° 0 min 0 W/m² 0,6 °C 1,3 °C 8,0 km/h (2 Bft)
04.12.2022 22:45 22,5 °C 1,3 °C 51 % 96 % 1016,9 hPa 0,0 l/m² 0,3 km/h (0 Bft) N-NW 342 ° 0 min 0 W/m² 0,7 °C 1,3 °C 1,6 km/h (1 Bft)
04.12.2022 22:47 22,4 °C 1,3 °C 51 % 96 % 1016,9 hPa 0,2 l/m² 2,3 km/h (1 Bft) N 5 ° 0 min 0 W/m² 0,7 °C 1,3 °C 6,4 km/h (2 Bft)
04.12.2022 22:48 22,4 °C 1,3 °C 51 % 95 % 1016,9 hPa 0,0 l/m² 1,5 km/h (1 Bft) N 350 ° 0 min 0 W/m² 0,6 °C 1,3 °C 8,0 km/h (2 Bft)
04.12.2022 22:49 22,4 °C 1,3 °C 51 % 96 % 1016,9 hPa 0,0 l/m² 6,2 km/h (2 Bft) N-NW 338 ° 0 min 0 W/m² 0,7 °C 1,3 °C 9,7 km/h (2 Bft)
04.12.2022 22:51 22,4 °C 1,3 °C 51 % 96 % 1017,0 hPa 0,0 l/m² 3,6 km/h (1 Bft) N-NW 332 ° 0 min 0 W/m² 0,7 °C 1,3 °C 6,4 km/h (2 Bft)
04.12.2022 22:53 22,4 °C 1,3 °C 51 % 95 % 1016,9 hPa 0,0 l/m² 3,5 km/h (1 Bft) N 355 ° 0 min 0 W/m² 0,6 °C 1,3 °C 6,4 km/h (2 Bft)
04.12.2022 22:54 22,4 °C 1,3 °C 51 % 95 % 1016,9 hPa 0,0 l/m² 2,4 km/h (1 Bft) NW 326 ° 0 min 0 W/m² 0,6 °C 1,3 °C 8,0 km/h (2 Bft)
04.12.2022 22:55 22,4 °C 1,3 °C 51 % 96 % 1016,9 hPa 0,0 l/m² 0,2 km/h (0 Bft) NW 325 ° 0 min 0 W/m² 0,7 °C 1,3 °C 1,6 km/h (1 Bft)
04.12.2022 22:56 22,3 °C 1,3 °C 51 % 95 % 1016,9 hPa 0,0 l/m² 3,0 km/h (1 Bft) NW 316 ° 0 min 0 W/m² 0,6 °C 1,3 °C 6,4 km/h (2 Bft)
04.12.2022 22:57 22,4 °C 1,3 °C 51 % 96 % 1016,9 hPa 0,0 l/m² 4,0 km/h (1 Bft) NW 325 ° 0 min 0 W/m² 0,7 °C 1,3 °C 4,8 km/h (1 Bft)
04.12.2022 22:58 22,4 °C 1,3 °C 51 % 96 % 1017,0 hPa 0,0 l/m² 0,7 km/h (0 Bft) NW 320 ° 0 min 0 W/m² 0,7 °C 1,3 °C 3,2 km/h (1 Bft)
04.12.2022 22:59 22,3 °C 1,3 °C 51 % 96 % 1016,9 hPa 0,0 l/m² 5,7 km/h (2 Bft) N 360 ° 0 min 0 W/m² 0,7 °C 1,3 °C 9,7 km/h (2 Bft)
04.12.2022 23:01 22,3 °C 1,3 °C 51 % 95 % 1016,9 hPa 0,0 l/m² 4,2 km/h (1 Bft) N-NW 342 ° 0 min 0 W/m² 0,6 °C 1,3 °C 8,0 km/h (2 Bft)
04.12.2022 23:03 22,3 °C 1,3 °C 51 % 96 % 1016,8 hPa 0,0 l/m² 2,6 km/h (1 Bft) N-NW 327 ° 0 min 0 W/m² 0,7 °C 1,3 °C 4,8 km/h (1 Bft)
04.12.2022 23:04 22,3 °C 1,3 °C 51 % 96 % 1016,8 hPa 0,0 l/m² 2,1 km/h (1 Bft) N-NW 341 ° 0 min 0 W/m² 0,7 °C 1,3 °C 3,2 km/h (1 Bft)
04.12.2022 23:05 22,3 °C 1,3 °C 51 % 96 % 1016,8 hPa 0,0 l/m² 1,2 km/h (1 Bft) N-NW 336 ° 0 min 0 W/m² 0,7 °C 1,3 °C 3,2 km/h (1 Bft)
04.12.2022 23:06 22,3 °C 1,3 °C 51 % 96 % 1016,9 hPa 0,2 l/m² 2,1 km/h (1 Bft) N 360 ° 0 min 0 W/m² 0,7 °C 1,3 °C 8,0 km/h (2 Bft)
04.12.2022 23:07 22,3 °C 1,3 °C 51 % 96 % 1016,8 hPa 0,0 l/m² 3,6 km/h (1 Bft) N-NW 335 ° 0 min 0 W/m² 0,7 °C 1,3 °C 6,4 km/h (2 Bft)
04.12.2022 23:08 22,3 °C 1,3 °C 51 % 96 % 1016,8 hPa 0,0 l/m² 3,3 km/h (1 Bft) N-NW 336 ° 0 min 0 W/m² 0,7 °C 1,3 °C 8,0 km/h (2 Bft)
04.12.2022 23:09 22,3 °C 1,3 °C 51 % 96 % 1016,8 hPa 0,0 l/m² 4,8 km/h (1 Bft) N 360 ° 0 min 0 W/m² 0,7 °C 1,3 °C 8,0 km/h (2 Bft)
04.12.2022 23:11 22,3 °C 1,3 °C 51 % 96 % 1016,8 hPa 0,0 l/m² 3,9 km/h (1 Bft) NW 322 ° 0 min 0 W/m² 0,7 °C 1,3 °C 6,4 km/h (2 Bft)
04.12.2022 23:13 22,2 °C 1,3 °C 51 % 96 % 1016,9 hPa 0,0 l/m² 3,1 km/h (1 Bft) N-NW 333 ° 0 min 0 W/m² 0,7 °C 1,3 °C 6,4 km/h (2 Bft)
04.12.2022 23:14 22,2 °C 1,3 °C 51 % 96 % 1016,9 hPa 0,0 l/m² 1,8 km/h (1 Bft) N-NW 333 ° 0 min 0 W/m² 0,7 °C 1,3 °C 4,8 km/h (1 Bft)
04.12.2022 23:15 22,2 °C 1,3 °C 51 % 96 % 1016,9 hPa 0,0 l/m² 3,1 km/h (1 Bft) NW 306 ° 0 min 0 W/m² 0,7 °C 1,3 °C 6,4 km/h (2 Bft)
04.12.2022 23:16 22,2 °C 1,3 °C 51 % 96 % 1016,8 hPa 0,0 l/m² 3,2 km/h (1 Bft) NW 315 ° 0 min 0 W/m² 0,7 °C 1,3 °C 8,0 km/h (2 Bft)
04.12.2022 23:17 22,2 °C 1,3 °C 51 % 96 % 1016,9 hPa 0,0 l/m² 4,8 km/h (1 Bft) NW 315 ° 0 min 0 W/m² 0,7 °C 1,3 °C 12,9 km/h (3 Bft)
04.12.2022 23:23 22,2 °C 1,3 °C 51 % 96 % 1016,9 hPa 0,0 l/m² 2,3 km/h (1 Bft) N-NW 338 ° 0 min 0 W/m² 0,7 °C 1,3 °C 4,8 km/h (1 Bft)
04.12.2022 23:25 22,2 °C 1,4 °C 51 % 96 % 1016,9 hPa 0,0 l/m² 2,7 km/h (1 Bft) N-NW 331 ° 0 min 0 W/m² 0,8 °C 1,4 °C 6,4 km/h (2 Bft)
04.12.2022 23:27 22,2 °C 1,3 °C 51 % 96 % 1016,8 hPa 0,0 l/m² 2,1 km/h (1 Bft) N-NW 335 ° 0 min 0 W/m² 0,7 °C 1,3 °C 4,8 km/h (1 Bft)
04.12.2022 23:29 22,2 °C 1,4 °C 51 % 96 % 1016,9 hPa 0,0 l/m² 3,1 km/h (1 Bft) N 360 ° 0 min 0 W/m² 0,8 °C 1,4 °C 6,4 km/h (2 Bft)
04.12.2022 23:30 22,1 °C 1,3 °C 51 % 96 % 1016,8 hPa 0,0 l/m² 1,7 km/h (1 Bft) N-NW 327 ° 0 min 0 W/m² 0,7 °C 1,3 °C 3,2 km/h (1 Bft)
04.12.2022 23:31 22,2 °C 1,3 °C 51 % 96 % 1016,9 hPa 0,0 l/m² 4,2 km/h (1 Bft) N-NW 337 ° 0 min 0 W/m² 0,7 °C 1,3 °C 8,0 km/h (2 Bft)
04.12.2022 23:32 22,2 °C 1,3 °C 51 % 96 % 1016,9 hPa 0,2 l/m² 3,4 km/h (1 Bft) N-NW 336 ° 0 min 0 W/m² 0,7 °C 1,3 °C 4,8 km/h (1 Bft)
04.12.2022 23:34 22,1 °C 1,3 °C 51 % 96 % 1016,8 hPa 0,0 l/m² 3,8 km/h (1 Bft) N-NW 346 ° 0 min 0 W/m² 0,7 °C 1,3 °C 4,8 km/h (1 Bft)
04.12.2022 23:35 22,2 °C 1,3 °C 51 % 96 % 1016,8 hPa 0,0 l/m² 3,3 km/h (1 Bft) N-NW 344 ° 0 min 0 W/m² 0,7 °C 1,3 °C 4,8 km/h (1 Bft)
04.12.2022 23:37 22,1 °C 1,3 °C 51 % 96 % 1016,9 hPa 0,0 l/m² 1,5 km/h (1 Bft) N-NW 329 ° 0 min 0 W/m² 0,7 °C 1,3 °C 3,2 km/h (1 Bft)
04.12.2022 23:39 22,2 °C 1,4 °C 51 % 96 % 1016,8 hPa 0,0 l/m² 2,6 km/h (1 Bft) NW 325 ° 0 min 0 W/m² 0,8 °C 1,4 °C 4,8 km/h (1 Bft)
04.12.2022 23:40 22,1 °C 1,4 °C 51 % 96 % 1016,8 hPa 0,0 l/m² 2,7 km/h (1 Bft) NW 323 ° 0 min 0 W/m² 0,8 °C 1,4 °C 4,8 km/h (1 Bft)
04.12.2022 23:41 22,1 °C 1,4 °C 51 % 96 % 1016,9 hPa 0,0 l/m² 3,3 km/h (1 Bft) N-NW 335 ° 0 min 0 W/m² 0,8 °C 1,4 °C 4,8 km/h (1 Bft)
04.12.2022 23:42 22,1 °C 1,3 °C 51 % 96 % 1016,9 hPa 0,0 l/m² 2,1 km/h (1 Bft) N-NW 336 ° 0 min 0 W/m² 0,7 °C 1,3 °C 4,8 km/h (1 Bft)
04.12.2022 23:44 22,2 °C 1,3 °C 51 % 96 % 1016,8 hPa 0,0 l/m² 2,5 km/h (1 Bft) N-NW 327 ° 0 min 0 W/m² 0,7 °C 1,3 °C 4,8 km/h (1 Bft)
04.12.2022 23:45 22,1 °C 1,3 °C 51 % 96 % 1016,8 hPa 0,0 l/m² 2,3 km/h (1 Bft) N 349 ° 0 min 0 W/m² 0,7 °C 1,3 °C 6,4 km/h (2 Bft)
04.12.2022 23:47 22,1 °C 1,3 °C 51 % 96 % 1016,8 hPa 0,0 l/m² 4,1 km/h (1 Bft) N-NW 331 ° 0 min 0 W/m² 0,7 °C 1,3 °C 6,4 km/h (2 Bft)
04.12.2022 23:49 22,1 °C 1,4 °C 51 % 96 % 1016,8 hPa 0,0 l/m² 2,3 km/h (1 Bft) N-NW 329 ° 0 min 0 W/m² 0,8 °C 1,4 °C 4,8 km/h (1 Bft)
04.12.2022 23:50 22,1 °C 1,4 °C 51 % 96 % 1016,7 hPa 0,0 l/m² 3,3 km/h (1 Bft) NW 325 ° 0 min 0 W/m² 0,8 °C 1,4 °C 4,8 km/h (1 Bft)
04.12.2022 23:51 22,1 °C 1,4 °C 51 % 96 % 1016,8 hPa 0,0 l/m² 3,4 km/h (1 Bft) N-NW 339 ° 0 min 0 W/m² 0,8 °C 1,4 °C 6,4 km/h (2 Bft)
04.12.2022 23:52 22,1 °C 1,4 °C 51 % 96 % 1016,8 hPa 0,0 l/m² 3,1 km/h (1 Bft) N-NW 331 ° 0 min 0 W/m² 0,8 °C 1,4 °C 4,8 km/h (1 Bft)
04.12.2022 23:54 22,1 °C 1,3 °C 51 % 96 % 1016,7 hPa 0,2 l/m² 3,6 km/h (1 Bft) NW 323 ° 0 min 0 W/m² 0,7 °C 1,3 °C 6,4 km/h (2 Bft)
04.12.2022 23:55 22,1 °C 1,4 °C 51 % 96 % 1016,7 hPa 0,0 l/m² 5,0 km/h (1 Bft) N-NW 344 ° 0 min 0 W/m² 0,8 °C 1,4 °C 6,4 km/h (2 Bft)
04.12.2022 23:57 22,1 °C 1,4 °C 51 % 96 % 1016,7 hPa 0,0 l/m² 3,8 km/h (1 Bft) N-NW 331 ° 0 min 0 W/m² 0,8 °C 1,4 °C 6,4 km/h (2 Bft)
04.12.2022 23:59 22,1 °C 1,4 °C 51 % 96 % 1016,7 hPa 0,0 l/m² 2,7 km/h (1 Bft) NW 317 ° 0 min 0 W/m² 0,8 °C 1,4 °C 4,8 km/h (1 Bft)
_ Min-Zeit 18:00 00:55 17:33 23:01 23:59 - 18:34 - - - - 00:55 04:42 18:34
Minimum _ 21,8 °C -0,1 °C 40 % 95 % 1016,7 hPa - 0,0 km/h (0 Bft) - - - - -0,8 °C -2,1 °C 0,0 km/h (0 Bft)
_ Max-Zeit 16:57 23:59 17:04 23:59 00:00 23:54 04:42 - - 12:52 12:40 23:59 23:59 09:06
Maximum _ 22,8 °C 1,4 °C 52 % 96 % 1020,4 hPa 0,2 l/m² 8,8 km/h
N-NO (2 Bft)
- - 2 min 65 W/m² 0,8 °C 1,4 °C 17,7 km/h
NO (3 Bft)
Durchschnitt _ 22,3 °C 0,7 °C 50 % 95 % 1018,4 hPa #7,0 l/m² 3,3 km/h (1 Bft) NO - #27 min. 8 W/m² 0,0 °C 0,7 °C 7,5 km/h (2 Bft)
© 2009 Mathias Hoßbach